GFSNGP_con_sbcape_000.txt.gz
CAPE
0 0 0 0 0 0 0 0 0 0 0 0 0 0 0 0 0 0 0 0 14 95 107 159 221 298 628 887 1032 829 413 143 111 68 46 3 9 0 0 0 0 0 0 0
0 0 0 0 0 0 0 0 0 0 0 0 0 0 0 0 0 0 0 0 0 10 52 83 97 126 527 794 921 854 559 374 305 127 39 0 22 141 0 0 0 0 0 0
0 0 0 0 0 0 0 0 0 0 0 0 0 0 0 0 0 0 0 0 0 0 0 0 0 49 403 699 839 818 708 678 350 8 10 0 0 2 3 7 0 0 0 0
0 0 0 0 0 0 0 0 0 0 0 0 0 0 0 0 0 0 0 0 0 0 0 0 0 50 294 556 794 870 814 747 141 20 0 0 0 0 0 0 0 0 0 11
0 0 0 11 0 10 42 13 0 1 0 0 0 0 0 0 0 0 0 5 35 0 0 1 56 154 370 572 798 805 828 513 237 87 85 99 2 0 0 0 0 12 47 77
0 0 1 0 0 0 3 16 0 0 0 0 0 0 0 0 0 0 0 0 0 5 13 174 249 403 448 507 691 739 608 495 356 104 0 0 18 11 0 0 4 27 43 15
0 2 8 0 0 0 41 0 0 0 0 0 0 0 0 0 0 0 29 113 124 376 512 378 289 391 426 365 577 550 365 383 535 326 163 29 0 0 0 17 28 55 33 0
0 23 117 0 18 22 1 0 0 0 0 0 0 0 0 0 2 4 32 117 239 384 544 492 280 461 302 471 274 298 270 206 96 80 122 0 0 0 0 0 0 0 13 0
0 0 0 0 0 0 0 0 0 0 0 1 0 3 54 46 52 103 160 264 524 678 582 233 137 188 235 51 165 126 1 0 6 0 0 0 0 0 0 0 0 29 59 81
0 0 0 0 0 0 0 0 0 0 0 0 1 159 236 330 266 173 184 248 380 446 291 39 25 5 0 51 60 0 0 0 0 0 0 0 0 0 0 0 0 10 54 63
0 0 0 0 0 0 0 0 0 0 0 0 0 0 0 0 346 279 133 188 248 231 112 49 22 1 0 18 0 0 0 0 0 0 0 0 7 0 0 0 3 26 22 0
0 0 0 0 0 0 0 0 0 0 0 0 0 0 0 0 1 260 254 239 163 80 155 20 0 0 0 0 0 0 1 1 0 0 0 0 2 2 0 0 0 0 0 0
0 0 0 0 0 0 0 0 0 0 0 0 0 0 0 0 0 108 233 331 182 31 1 0 0 0 0 0 0 0 3 0 0 0 0 0 2 1 0 0 0 0 0 0
0 0 0 0 0 0 0 0 0 0 0 0 0 0 0 0 0 0 0 25 74 0 0 0 0 0 0 0 0 0 0 0 0 0 0 1 0 1 0 0 0 0 0 0
0 0 0 0 0 0 0 0 0 0 0 0 0 0 0 0 0 0 0 0 3 0 0 0 0 0 0 0 0 0 0 0 0 0 1 0 1 1 0 0 0 0 0 0
0 0 0 0 0 0 0 0 0 0 0 0 0 0 0 0 0 0 0 0 0 75 1 0 0 0 0 0 0 0 0 0 0 0 0 0 1 0 0 0 0 0 0 0
0 0 0 0 0 0 0 0 0 0 0 0 0 0 0 0 0 0 0 0 0 0 0 0 0 0 0 0 0 0 0 0 0 0 0 0 0 0 0 0 0 0 0 0
0 0 0 0 0 0 0 0 0 0 0 0 0 0 0 0 0 0 0 0 0 0 0 0 0 0 0 0 0 0 0 0 0 0 0 0 0 1 1 0 0 0 0 0
0 0 0 0 0 0 0 0 0 0 0 0 0 0 0 0 0 0 0 0 0 0 0 0 0 0 0 0 0 0 0 0 0 0 0 0 0 0 0 0 0 0 0 0
0 0 0 0 0 0 0 0 0 0 0 0 0 0 0 0 0 0 0 0 0 0 0 0 0 0 0 0 0 0 0 0 0 0 0 0 0 0 0 0 0 0 0 0
0 0 0 0 0 0 0 0 0 0 0 0 0 0 0 0 0 0 0 0 0 0 0 0 0 0 0 0 0 0 0 0 0 0 0 0 0 0 0 0 0 0 0 0
0 0 0 0 0 0 0 0 0 0 0 0 0 0 0 0 0 0 0 0 0 0 0 0 0 0 0 0 0 0 0 0 0 0 0 0 0 0 0 0 0 0 0 0
0 0 0 0 0 0 0 0 0 0 0 0 0 0 0 0 0 0 0 0 0 0 0 0 0 0 0 0 0 0 0 0 0 0 0 0 0 0 0 0 0 0 0 0
0 0 0 0 0 0 0 0 0 0 0 0 0 0 0 0 0 0 0 0 0 0 0 0 0 0 0 0 0 0 0 0 0 0 0 0 0 0 0 0 0 0 0 0
0 0 0 0 0 0 0 0 0 0 0 0 0 0 0 0 0 0 0 0 0 0 5 0 0 0 0 0 0 0 0 0 0 0 0 0 0 0 0 0 0 0 0 0
0 0 0 0 0 0 0 0 0 0 0 0 0 0 0 0 0 0 0 0 0 0 2 0 0 0 0 0 0 0 0 0 0 0 0 0 0 0 0 0 0 0 0 0
0 0 0 0 0 0 0 0 0 0 0 0 0 0 0 0 0 0 0 0 0 0 0 0 0 0 0 0 0 0 0 0 0 0 0 0 0 0 0 0 0 0 0 0

GFSNGP_con_sbcape_003.txt.gz
CAPE
0 0 0 0 0 0 0 0 0 0 0 0 57 218 230 226 318 109 166 438 881 1005 1800 2009 2095 1870 1895 1751 2075 2215 2320 2133 1877 1403 950 345 85 9 0 0 11 0 34 338
0 0 0 0 0 0 0 0 0 0 0 0 0 66 148 134 297 207 220 335 700 913 1016 1255 1499 1464 1456 1678 1947 2114 2133 1970 1600 1190 551 313 270 13 0 0 0 101 77 186
2 0 0 0 0 0 0 0 0 0 0 0 0 9 123 210 331 503 493 415 520 742 902 924 982 1131 1154 1387 1563 1785 1883 1732 1366 884 486 601 358 214 25 0 0 12 198 160
71 0 6 0 0 0 0 0 0 0 0 0 19 57 19 13 161 386 531 523 407 255 406 556 520 671 935 1284 1654 1791 1815 1632 1266 818 672 470 600 354 167 0 20 329 381 535
2 35 13 0 0 0 0 0 0 0 0 0 0 22 53 0 0 77 157 404 480 344 350 474 392 639 974 1257 1582 1779 1792 1719 1118 708 738 627 550 512 260 163 204 294 144 370
84 36 33 70 56 19 33 0 0 0 28 36 17 73 200 1 5 66 278 570 591 590 583 820 764 851 1213 1390 1573 1737 1748 1681 1149 735 628 550 671 631 355 291 111 79 229 456
322 181 50 86 47 75 120 73 0 4 14 30 120 160 73 161 454 490 430 707 919 964 1004 1125 1349 1392 1602 1658 1770 1785 1688 1316 1059 895 844 837 854 518 301 300 211 478 552 693
456 366 165 11 152 283 179 31 44 65 99 82 93 131 238 317 453 653 788 945 1230 1482 1585 1358 1514 1839 1881 1877 1670 1394 1421 1044 1065 842 814 660 623 381 362 450 597 541 600 613
270 264 7 0 16 115 163 147 125 207 163 179 232 328 395 546 635 814 1200 1401 1372 1379 1500 1381 1465 1596 1506 1116 843 1018 1044 818 984 848 591 484 383 387 324 395 386 431 313 255
75 92 0 0 0 12 88 118 167 257 259 343 237 446 922 1013 892 759 1018 1388 1627 1778 1660 1282 969 798 932 844 1090 1008 788 835 963 1077 798 470 404 306 181 183 74 38 122 246
348 39 0 0 0 0 0 0 0 6 76 114 139 93 450 1346 1384 1274 1359 1338 1550 1818 1833 1457 1079 1052 969 1074 1051 1099 1023 1059 967 962 551 520 210 44 39 70 2 180 189 406
123 9 41 0 0 0 0 0 0 0 0 0 9 49 83 339 1104 1415 1487 1606 1702 1692 1261 941 1023 964 931 1060 1121 1161 1052 918 720 397 158 43 0 0 0 0 0 0 0 105
0 0 0 0 0 0 0 0 0 0 0 0 0 0 0 0 18 235 528 958 1736 1575 1308 1059 949 894 889 783 725 762 615 538 309 162 344 241 10 0 0 0 0 0 0 0
0 0 0 0 0 0 0 0 0 0 0 0 0 0 0 0 0 0 38 276 1000 1336 1193 1013 859 846 607 355 336 239 233 0 43 38 64 36 1 40 32 37 32 0 0 0
0 0 0 0 0 0 0 0 0 0 0 0 0 0 0 0 0 0 0 27 591 1206 1228 983 773 704 347 149 37 106 47 23 69 111 125 62 106 79 31 88 47 0 0 0
0 0 0 0 0 0 0 0 0 0 0 0 0 0 0 0 0 0 0 0 216 505 1125 984 700 497 161 24 112 201 376 56 143 137 6 23 35 54 85 56 0 0 0 0
0 0 0 0 0 0 0 0 0 0 0 0 0 0 0 0 0 0 0 6 21 223 610 831 699 379 386 408 448 441 430 129 73 223 222 200 177 179 181 47 9 0 5 0
11 4 0 0 0 0 0 0 0 0 0 0 0 0 0 0 0 6 51 54 192 179 161 363 403 429 282 228 193 116 138 206 344 376 294 254 242 165 160 147 117 63 31 0
0 0 0 0 0 0 0 0 0 0 0 0 0 0 0 0 0 15 71 212 235 324 5 3 0 15 62 94 96 75 126 135 154 157 197 17 158 316 367 328 184 74 57 6
0 0 0 0 0 0 0 0 0 0 0 0 0 0 0 0 0 12 100 78 12 7 6 0 48 106 142 6 0 72 46 42 48 53 72 100 159 147 111 16 81 60 36 9
0 0 0 0 0 0 0 0 0 0 0 0 0 0 0 1 0 44 71 79 80 47 85 8 86 42 25 0 0 0 6 4 3 13 15 24 9 17 22 5 8 16 12 2
0 0 0 0 0 0 0 0 0 0 0 1 0 0 2 3 13 52 55 57 44 0 80 79 4 0 0 0 0 0 0 0 0 0 0 0 0 0 0 0 0 0 0 0
0 0 3 9 2 0 0 2 6 6 5 11 13 2 0 0 0 51 48 21 64 17 83 89 1 0 0 0 0 0 0 0 0 0 0 0 0 0 0 0 0 0 0 0
3 18 32 19 2 12 30 19 10 12 21 38 32 28 13 0 0 0 1 0 0 0 66 46 0 0 0 0 0 0 0 0 0 0 0 0 0 0 0 0 0 0 0 0
28 29 44 66 58 31 34 27 20 36 36 56 55 39 35 4 0 0 0 13 2 20 42 0 0 0 28 55 29 13 3 0 0 0 0 0 0 0 0 0 0 0 0 0
26 21 18 23 9 3 8 19 25 15 13 56 83 51 38 32 31 18 18 4 34 41 110 138 102 76 104 107 84 65 33 13 0 0 0 0 0 0 0 0 0 0 0 0
0 0 0 0 0 0 0 0 2 0 0 2 21 20 18 11 11 8 3 27 48 46 59 76 87 48 100 104 86 75 49 25 0 0 0 0 0 0 0 0 0 0 0 0

GFSNGP_con_sbcape_006.txt.gz
CAPE
0 0 0 0 0 0 0 0 4 0 13 17 6 0 0 0 3 213 851 946 1328 1502 2240 2758 2630 2686 2566 2382 2373 2379 2567 2653 3001 3146 3073 2775 2415 1479 665 446 382 0 93 16
43 8 7 3 0 0 0 0 0 0 0 1 2 0 0 0 0 244 960 1052 1418 1698 1936 2359 2377 2566 2647 2642 2501 2637 2798 2872 2983 3274 3069 2810 2241 1201 801 517 186 51 0 0
158 91 65 57 11 8 0 0 0 0 0 0 0 0 0 7 128 276 914 1117 1314 1679 1863 2291 2389 2668 2647 2643 2609 2701 2921 2963 3095 3183 2849 2361 1728 1361 787 528 156 98 104 30
359 252 191 2 2 1 0 0 0 0 0 0 0 0 18 125 69 296 949 1146 1283 1410 1773 1965 1907 2039 2160 2339 2546 2684 2899 2915 2959 2817 2548 2163 1985 1343 961 339 262 399 479 304
274 342 185 64 123 21 4 0 0 0 0 0 0 5 347 231 220 544 1037 1363 1377 1339 1576 1802 1538 1781 1916 2062 2289 2463 2655 2714 2644 2413 2201 1694 1541 1475 1393 775 562 724 749 643
333 234 182 494 385 275 318 62 0 0 0 0 0 64 0 385 146 295 814 1029 1181 1094 1365 1348 1319 1474 1778 1914 2244 2473 2615 2652 2549 2247 2207 1897 1691 1709 1467 1184 866 646 755 734
331 365 295 526 276 459 395 44 11 0 21 19 112 357 553 395 446 631 996 1176 1267 1210 1127 1351 1325 1546 1714 1903 2145 2341 2554 2650 2370 2147 2211 2352 1967 1726 1517 1079 987 1020 838 863
450 507 424 217 491 617 688 542 486 369 395 436 549 783 901 894 1099 1214 1131 976 910 1408 1750 1743 1782 2053 2280 2385 2544 2670 2714 2558 2084 2028 1777 1869 1799 1326 884 1107 1202 990 1464 1482
431 348 376 216 265 443 624 686 630 663 626 685 679 759 862 905 839 913 875 864 1007 1544 1943 2141 2347 2390 2625 3092 2726 2676 2128 1731 1874 1913 1423 1222 1148 822 793 1009 1041 1078 1299 1180
686 404 182 165 177 350 544 628 567 553 507 530 499 534 593 705 899 1199 1337 1213 1245 1447 1878 2344 2389 2450 2750 2147 2234 2377 2121 2087 1644 1363 1497 1154 1048 1131 1199 1114 1033 1687 1391 785
413 290 134 95 95 49 101 327 449 459 468 579 945 1014 1328 1397 1330 1340 1435 1347 1280 1470 2065 2282 2262 2258 2062 1973 1846 1834 1726 1733 1269 1093 1065 1314 592 180 789 112 208 547 457 273
231 255 157 0 0 0 0 1 33 137 160 181 322 470 837 1273 1653 1687 1863 1889 1978 2016 2291 2359 2322 2236 2175 1780 1985 1854 1378 1306 1333 1402 1430 1281 731 108 0 0 1 1 1 89
271 57 0 0 0 0 0 0 0 0 0 0 0 2 17 105 142 229 934 1363 2183 1949 2067 2069 2156 2130 2056 1995 1768 1597 1448 1375 1172 759 823 894 823 474 151 0 0 0 0 0
0 0 0 0 0 0 0 0 0 0 0 0 0 0 0 0 0 0 55 414 884 2004 1878 1879 1788 1845 1754 1510 1632 1513 1150 404 759 747 752 578 547 564 539 399 154 0 0 0
0 0 0 0 0 0 0 0 0 0 0 0 0 0 0 0 0 0 0 0 152 521 1540 1823 1684 1561 1325 1157 1033 709 260 312 464 311 181 83 196 236 358 360 245 144 0 0
3 0 0 0 2 0 0 0 0 0 0 0 0 0 0 0 0 0 0 0 0 142 728 1400 1702 1354 1109 550 206 142 139 0 36 181 357 431 564 490 455 393 377 320 100 37
0 0 2 4 0 0 0 0 0 0 0 0 0 0 0 0 0 0 0 3 243 388 654 1313 1361 1198 718 361 271 244 232 312 109 465 445 404 302 230 236 291 328 246 245 97
55 12 9 0 1 0 0 0 0 0 0 0 0 0 0 0 0 14 96 265 540 750 965 1132 1144 1002 756 646 400 364 343 219 147 99 169 186 199 253 308 292 237 239 195 0
35 7 1 0 0 0 0 0 0 0 0 0 0 0 3 3 11 99 108 86 364 456 443 735 35 584 818 406 327 161 145 110 234 311 308 43 267 334 365 353 362 237 299 194
0 2 0 0 0 0 0 1 0 0 8 14 11 12 15 15 38 69 259 240 296 355 330 144 349 244 204 31 0 89 177 200 176 149 109 114 131 254 330 91 278 325 235 154
0 0 0 1 0 3 12 5 11 15 29 29 35 35 36 40 45 51 64 85 171 87 176 25 265 320 159 45 56 100 99 98 95 91 74 79 163 125 101 73 61 76 49 29
11 15 10 8 8 7 29 51 42 49 72 76 70 68 43 27 75 114 96 61 130 0 154 171 118 7 9 0 16 1 1 0 0 0 0 1 1 6 9 11 11 17 26 33
27 30 14 12 30 30 27 29 53 95 111 101 101 56 23 23 18 53 102 77 151 42 141 101 0 0 0 0 0 0 0 0 0 0 0 0 0 0 2 4 6 3 4 6
116 74 100 43 24 31 32 29 20 35 61 67 52 64 3 1 31 25 56 0 0 10 68 20 0 0 0 8 1 4 4 1 0 0 0 0 0 0 0 3 8 9 8 1
140 72 59 53 17 13 16 24 17 8 15 65 45 29 20 21 13 19 40 46 2 25 159 2 0 0 3 35 49 31 40 35 29 18 14 11 6 1 0 1 12 17 16 9
4 16 20 17 16 17 16 25 32 32 11 30 35 43 35 32 36 20 33 6 16 22 17 104 171 84 98 83 68 70 58 50 34 25 4 10 12 5 1 0 0 0 2 1
0 0 0 0 0 0 0 3 4 16 7 3 6 30 14 12 10 1 0 22 42 50 59 66 69 61 66 59 58 65 57 51 21 24 27 22 17 11 3 0 0 0 0 1

GFSNGP_con_sbcape_009.txt.gz
CAPE
0 1 9 2 0 0 0 0 0 0 46 51 168 105 43 21 3 0 13 626 923 1210 2428 2792 2693 2774 2574 2070 2250 1988 2876 2907 3585 4381 4294 4316 4285 4631 4406 4157 3669 2501 2123 1427
1 0 0 2 4 1 0 0 0 0 0 28 44 102 64 2 6 0 0 49 1021 1389 1749 2932 3147 3510 3239 3038 3053 2867 3675 3580 4106 4720 4588 4581 4622 4695 4222 3631 3065 2265 1224 721
85 40 67 77 0 0 2 2 0 0 0 0 23 89 124 23 4 8 26 87 857 1352 1818 2549 2382 3453 3589 3770 3369 3641 4179 4500 4617 4993 4914 4916 4580 4139 3554 2716 2492 1810 955 150
91 320 193 0 18 35 28 21 17 10 1 0 16 55 32 22 2 117 286 211 435 1160 1896 2826 2354 2437 3151 3215 4225 4449 4621 4545 4804 4955 4924 4791 4212 3573 2786 2433 2257 1519 751 516
357 414 243 138 329 416 370 62 12 35 6 0 0 0 10 3 0 0 106 175 624 1402 1910 3405 2974 3589 3800 3319 3849 3811 3845 4229 4402 4258 4152 3910 3305 3020 2480 2170 1978 1047 604 524
495 298 382 287 454 502 363 149 7 26 33 2 5 29 11 15 40 420 494 156 1158 1656 2153 2699 3267 2756 3159 2927 3190 3384 3607 3637 4029 4083 3732 3242 3071 2962 2519 2472 1851 1196 818 1076
183 348 266 803 431 570 329 357 1104 837 552 223 21 64 225 182 132 531 615 1345 1880 2111 2970 3269 3167 2584 3278 3055 2813 2740 2939 3027 3381 3270 3388 3170 2751 2881 2527 2297 1782 1411 1053 1435
232 217 254 674 648 611 1205 1033 1090 1057 880 927 90 92 693 725 822 935 1218 1637 1759 2364 2710 2618 2911 3088 3299 3451 3609 3832 3647 3344 3322 3088 2798 2659 2586 2516 2258 1997 1630 1561 1840 1832
242 529 1269 917 791 908 905 1046 1033 1055 993 843 610 932 1103 1363 1703 1789 1750 1830 1731 1727 2590 2431 3105 3286 3675 4382 4112 3879 3706 3494 3119 2731 2481 2416 2664 2134 1464 1389 1184 1427 1098 1689
1086 925 794 910 831 926 1068 1047 1003 1098 1134 1137 1166 1266 1415 1558 1409 1256 1223 1696 1531 1751 2361 2769 3159 2903 3590 3411 3365 3356 2908 2548 2397 2258 1926 1676 1594 1271 1052 963 1206 1523 1493 1509
1159 868 831 677 699 769 1002 1049 1048 1358 1564 1308 1482 1481 1516 1617 1526 1336 1362 1832 1960 1903 2183 2420 2677 2909 2583 2885 3062 2758 2934 2574 2191 1790 1608 1134 661 676 883 194 567 986 1202 1304
600 798 703 184 118 335 381 293 506 803 694 1184 1337 1357 1648 1561 1436 1393 1396 1541 2079 1920 2268 2558 2644 2649 2616 2567 2692 2441 2324 2078 1756 1523 1276 1066 426 2 0 0 2 1 0 53
323 314 0 0 0 0 0 0 0 1 26 77 73 140 282 443 668 728 1522 1514 1664 1885 2234 2516 2576 2651 2352 2497 2518 2442 1893 1851 1399 1263 1411 1560 1057 975 563 0 0 0 0 0
53 4 1 0 0 0 0 0 0 0 0 0 0 0 0 11 29 198 740 1255 1966 1872 2221 2122 2154 2490 2432 2213 2651 2130 1739 764 1258 1018 865 909 893 695 449 245 57 2 0 0
7 8 4 6 1 0 0 0 0 0 0 0 0 0 0 0 0 0 5 72 493 1577 1747 1706 2018 1852 1846 2055 2045 1932 1505 950 992 893 779 429 392 381 418 406 333 12 0 0
18 4 7 2 0 0 0 0 6 0 0 0 0 0 0 0 0 0 0 0 0 279 958 1549 1884 1696 1588 1657 1575 970 431 136 477 528 283 189 230 195 247 284 216 55 16 0
3 10 5 5 4 31 0 0 0 0 0 0 0 0 0 0 0 21 19 10 11 17 202 810 1814 1565 1489 969 683 372 151 152 7 319 281 268 335 304 244 223 203 206 195 27
0 2 16 63 103 24 39 45 23 20 0 4 0 0 2 10 17 110 4 15 65 269 304 1393 1502 1734 1212 778 627 313 248 299 142 296 192 229 192 158 152 147 150 233 63 6
20 42 43 49 90 76 56 41 18 12 0 0 5 21 28 31 38 41 60 56 102 210 640 974 300 755 954 601 270 270 122 97 88 89 212 100 151 262 199 325 228 273 14 10
2 12 12 23 48 65 50 36 20 42 50 52 47 61 48 47 60 76 156 340 579 540 791 468 524 690 710 222 4 210 302 118 185 247 416 209 178 277 148 74 182 223 158 140
28 12 10 19 20 53 42 49 32 79 40 54 39 50 46 54 54 169 183 112 223 181 255 60 291 174 169 41 60 111 114 100 136 126 118 123 113 90 98 134 80 66 121 111
20 11 10 22 32 34 49 30 50 101 89 96 59 49 111 47 209 86 123 157 125 9 115 167 76 3 49 0 112 85 66 45 41 42 27 17 20 29 40 60 66 59 88 170
22 27 26 30 45 48 35 29 13 46 84 65 41 18 18 46 65 147 192 116 145 26 57 3 0 0 0 11 44 34 27 2 1 1 0 0 0 0 2 3 8 13 14 9
66 65 88 51 34 39 24 6 27 6 18 80 1 2 0 20 41 46 63 5 2 0 22 0 0 0 0 20 19 22 22 12 7 2 3 0 0 0 0 0 0 7 7 0
76 152 163 101 54 43 56 46 83 41 83 173 121 93 63 42 23 17 16 39 0 0 63 0 0 0 0 1 42 30 21 36 39 37 23 13 7 6 3 0 0 5 11 13
49 51 44 33 46 43 32 44 49 48 33 47 50 61 53 48 48 38 131 32 38 30 12 174 99 46 39 33 47 61 64 61 53 43 25 17 7 12 14 6 3 1 2 2
7 0 12 7 2 1 0 0 5 8 24 13 2 12 48 61 58 27 16 48 56 56 47 55 74 115 60 84 77 61 47 67 30 39 30 36 36 37 30 26 13 4 0 1

GFSNGP_con_sbcape_012.txt.gz
CAPE
0 0 0 0 0 0 0 0 0 0 0 27 199 379 111 282 272 155 604 1038 1178 1478 1963 1615 1734 1696 1632 1766 1843 2013 2768 3137 3447 3815 3728 3800 3767 4122 4015 3951 3870 3494 2930 2296
0 0 0 0 10 0 0 0 0 0 0 0 8 111 242 209 88 276 259 366 1322 1700 3064 3160 2180 1945 1717 1679 1706 1895 2238 2663 3077 3585 3951 3777 3976 3921 4231 4165 4220 3741 3141 2232
0 0 1 42 0 3 3 0 0 0 0 0 14 96 415 649 472 408 339 297 1413 1927 2156 2871 2881 2422 1949 1805 1977 1916 2565 2726 2918 3542 3947 4053 3976 4032 4279 4297 4194 3698 3328 2199
0 68 90 0 1 0 0 0 0 0 0 0 0 4 16 15 212 242 308 219 336 852 2102 2631 2877 2626 2659 2363 2573 2495 3667 3264 3485 4112 4296 4220 4221 4249 4432 4360 3985 3478 2685 1460
106 32 5 23 39 154 63 5 12 0 22 6 3 0 5 0 3 21 40 780 464 86 1889 2696 2942 2917 3407 3012 2748 3794 3365 4630 4128 5033 4793 4762 4742 4681 4495 3799 2932 2400 1604 674
124 73 113 223 191 455 241 211 496 584 263 103 125 60 0 16 14 4 9 122 549 331 2303 3358 3354 3200 3366 3692 3440 3233 4295 4442 5008 5021 4950 4888 4790 4364 3053 2416 2225 1913 994 723
95 40 0 388 388 134 147 287 1039 907 856 714 551 806 966 527 1617 649 132 382 1574 3051 2911 3519 3615 3516 3660 3819 3989 4020 4533 4546 4828 4917 4957 4833 4538 3296 2407 2477 2622 1701 1111 894
369 336 202 445 205 160 1077 865 774 683 652 743 1105 922 905 1172 1328 1640 843 918 3037 3569 4082 4067 3948 4029 4174 4245 4439 4556 4489 4465 4626 4686 3833 3788 3384 2730 2749 2373 1922 1632 1289 1148
40 34 715 1114 1253 1018 925 883 934 828 723 702 666 826 787 1434 1023 1234 1143 2930 2691 3753 4123 4124 4552 4039 4149 4397 4092 4013 4029 4257 4217 3890 3473 3131 2771 2701 2440 2266 1811 1498 1664 1611
146 489 1068 821 624 819 876 1126 1212 1906 2036 1322 808 922 1324 1702 2099 2674 2767 3062 3123 3084 3414 3680 3859 4085 4327 4345 4222 4134 4104 3715 3270 2641 2544 2577 2330 2206 1847 1687 1499 1624 1814 2157
242 1460 1142 1038 1101 1077 1159 1617 1771 1513 1432 1756 1800 1911 2005 2647 2846 2755 2736 2821 3006 3139 3594 3959 4403 4034 4060 4243 4026 3253 2891 2647 2155 1812 1772 1202 112 859 1357 0 337 1901 1964 1693
1066 263 1275 610 697 689 648 754 824 760 625 524 754 666 894 1900 2191 2464 2607 2497 2641 3122 3432 3445 3496 3587 3788 3882 3263 3053 2608 2247 1670 1691 1252 716 81 0 0 0 0 0 0 521
10 0 0 2 6 101 116 8 85 62 127 63 252 36 138 148 687 1454 1650 2167 2831 3196 3323 3221 3208 3042 3310 3654 3418 2843 2372 2310 1941 1634 1618 1170 701 367 0 0 0 0 0 0
8 0 0 0 0 0 0 0 0 0 0 0 0 0 0 1 101 793 1976 2143 2715 3000 3085 3107 2692 2627 2749 2877 3125 3319 2734 1939 1845 1699 1765 1694 1543 1121 899 136 0 0 0 0
6 3 9 1 0 0 0 0 0 0 0 0 0 0 0 0 0 108 370 1803 2179 2307 2457 2847 2781 2826 2788 2742 3000 2405 2170 1550 1226 1707 1712 1437 1285 1201 636 290 144 0 0 0
0 5 1 0 0 0 0 0 0 0 0 0 0 0 0 1 7 23 111 464 1396 2018 2524 2179 2226 2386 2221 2219 2421 2260 2042 752 1007 1279 582 883 707 624 606 659 10 0 0 0
0 0 0 0 0 1 0 0 0 0 0 0 13 0 1 23 50 265 390 296 790 1151 1648 1896 2231 2365 2168 1987 2198 1258 611 863 1 912 482 476 364 319 305 297 242 114 18 0
0 6 1 0 0 0 0 0 0 0 0 0 2 55 42 25 81 192 721 511 458 1446 1469 1828 1740 2087 1411 1193 1102 967 231 373 246 286 432 528 645 479 294 163 195 259 192 0
22 20 11 2 2 0 0 0 7 51 74 66 17 48 107 107 54 429 121 265 513 703 1115 1526 488 926 1327 284 288 707 296 89 100 109 37 22 76 178 277 336 3 38 69 0
1 5 33 12 17 37 15 14 46 40 79 103 175 151 230 123 236 407 681 671 835 443 625 761 1065 858 897 817 75 114 169 111 130 182 204 140 132 238 57 51 90 60 31 27
29 27 68 100 25 45 78 80 135 116 167 184 172 128 214 191 211 237 323 404 331 284 368 103 717 292 219 108 15 66 43 132 39 127 139 45 66 125 105 138 107 161 109 87
65 55 55 45 16 68 60 48 87 191 161 215 148 143 216 224 261 146 249 194 147 0 0 3 5 0 0 0 96 82 62 65 21 1 19 50 1 40 93 57 52 105 127 172
102 146 122 143 96 99 53 89 89 150 204 191 161 155 84 78 89 87 304 3 11 0 9 0 0 0 0 16 63 36 11 12 0 0 0 0 0 0 0 0 2 65 100 80
173 173 119 170 94 156 223 91 43 110 87 64 59 50 145 19 84 66 37 0 0 5 1 0 0 0 0 0 25 22 25 11 1 0 2 0 0 0 0 0 0 1 14 5
75 241 114 124 38 14 113 120 38 35 122 167 68 109 110 55 110 26 27 13 0 23 65 0 0 0 0 0 0 25 35 24 26 35 43 31 1 2 12 3 2 6 8 12
80 42 57 102 14 0 0 0 1 23 13 35 28 12 33 92 62 60 128 59 54 18 24 120 57 9 19 16 11 33 74 39 52 46 29 43 21 5 2 23 4 0 5 0
17 0 7 0 0 0 0 0 0 0 0 0 0 0 5 35 44 13 8 37 23 23 30 126 94 29 18 27 43 40 41 72 28 3 20 36 39 63 40 46 59 38 6 0

GFSNGP_con_sbcape_015.txt.gz
CAPE
0 0 0 0 0 0 0 0 0 0 0 0 0 82 62 13 15 4 9 65 300 373 426 847 1200 1290 1398 1696 1943 2906 3147 3209 3009 3022 3033 3093 3000 3055 2591 2596 2502 2074 1344 1305
0 0 0 0 0 0 0 0 0 0 0 0 0 33 272 166 69 1 0 530 705 538 471 573 795 1027 1341 1581 1898 2270 2875 2983 2884 2887 2946 3011 3033 2972 3162 2691 2813 2187 2011 1531
0 0 0 0 0 0 0 0 0 0 0 0 0 0 0 124 162 14 10 416 557 675 751 675 784 979 1270 1577 1693 1993 2404 2756 2749 2656 2895 2927 2989 2937 3234 3267 3124 3056 2616 1971
0 0 4 0 0 0 0 0 0 0 0 0 0 0 0 2 0 4 1 89 559 805 1767 1126 1104 997 1264 1380 1674 1786 1857 2450 2538 2749 2757 3093 3044 3181 3103 3388 3291 3294 2912 2064
0 0 0 0 0 0 0 0 0 60 2 0 0 0 0 0 0 0 0 0 0 638 1051 2033 1519 1233 1121 1152 1470 1456 1572 1894 2344 2485 2852 3073 3246 3233 3237 3414 3351 2975 2064 1139
0 0 0 0 0 339 212 52 769 550 486 373 135 1 0 257 173 0 0 0 0 0 652 1554 1981 1663 1308 1245 1420 1296 1382 1990 2172 2353 2890 3326 3378 3301 3283 3084 2270 1874 954 536
4 0 0 0 103 58 73 372 766 568 490 494 446 465 401 456 455 962 663 0 0 211 1332 1595 2027 2093 1778 1605 1379 1995 1438 3575 2802 3391 3808 3674 3535 2807 2066 1850 1788 1255 748 397
83 42 39 431 368 183 510 894 488 365 330 391 456 333 494 391 403 732 700 1727 168 1488 1616 2295 2243 2631 2618 2324 2466 2820 3752 4084 4319 4238 4227 3178 2538 1822 1623 1836 1573 1039 742 609
15 174 757 112 7 1 57 627 902 1584 2073 1271 1038 1226 668 1256 750 757 2631 3258 3217 3269 3436 3553 3052 3105 3477 3778 3739 3701 3790 3747 3371 2996 2521 2113 1810 1794 1715 1420 1334 1085 879 739
179 33 109 180 0 283 1354 848 1165 1377 1393 1321 1222 1492 1942 2108 2164 2470 2647 2845 2951 3090 3138 3274 3411 3470 3522 3315 3374 3443 3222 2783 2496 2350 2042 1867 1710 1517 1516 1264 1205 1075 1019 907
153 6 14 732 820 850 917 673 435 473 599 607 534 437 455 537 1414 2013 2297 2298 2726 3071 3283 3262 3358 3332 3272 3358 3125 2849 2291 1829 1744 1745 943 0 0 187 234 0 473 934 1013 764
161 6 10 0 16 241 114 170 73 9 0 0 0 0 0 0 12 210 298 2077 2887 3055 3150 3157 3195 3014 2686 2497 2353 1976 1580 1432 1393 496 89 0 0 0 0 0 0 0 73 138
14 1 0 0 0 0 0 1 0 0 0 0 0 0 0 0 0 0 1 50 2087 2437 2509 2588 2613 2529 2403 2085 1964 1860 1562 1302 1024 683 336 144 0 0 0 0 0 0 0 0
3 0 0 0 0 0 0 0 0 0 0 0 0 0 0 0 0 0 0 8 1671 2021 2063 2029 2124 2286 2588 2173 1861 1696 1543 1399 1125 820 547 298 101 0 0 0 0 0 0 0
0 0 1 0 0 0 0 0 0 0 0 0 0 0 0 0 0 0 0 148 1423 2171 2252 2059 1959 1958 2130 2350 2565 2021 1688 1534 1452 1251 929 717 526 202 0 0 0 0 0 0
3 0 0 0 0 0 0 0 0 0 0 0 0 0 0 0 9 26 0 186 850 1498 1972 2135 2153 1953 1820 1781 1378 1221 681 1314 1212 1210 1095 986 889 744 227 0 0 0 0 0
0 0 0 0 0 0 0 0 0 0 0 0 0 0 0 0 0 85 31 656 718 1067 1156 1290 1725 1526 1466 1366 1240 1030 417 32 3 105 650 353 43 7 25 4 0 0 0 0
0 0 0 0 0 0 0 0 0 0 0 0 0 0 0 0 0 0 15 173 94 293 428 259 264 485 329 286 461 410 122 126 6 144 16 29 5 4 1 11 0 0 0 0
12 12 0 0 0 0 0 0 0 0 0 0 0 0 0 4 35 10 9 125 14 148 502 150 470 365 269 11 4 0 6 43 18 18 8 26 7 0 0 3 0 0 0 0
2 22 33 40 42 27 35 20 11 22 6 6 56 37 16 30 65 59 65 36 46 154 340 92 275 412 375 94 33 69 13 39 34 9 1 5 0 0 0 0 0 0 0 0
65 41 20 34 19 2 26 42 48 31 80 62 33 52 84 109 84 86 110 76 13 0 0 3 0 11 36 50 32 8 13 10 9 15 24 0 0 3 0 5 0 7 0 0
33 20 17 54 60 32 23 47 99 71 102 81 72 77 65 96 80 46 41 7 0 0 0 0 0 0 0 1 2 23 15 37 21 6 0 0 0 0 0 20 22 36 7 10
36 182 157 105 100 80 97 61 40 87 36 62 9 22 111 92 87 39 12 1 0 0 0 0 0 0 0 0 0 0 3 1 0 0 0 0 0 0 0 0 0 0 7 4
41 26 155 5 79 135 27 22 16 151 137 111 74 70 40 51 109 32 1 0 0 15 0 0 0 0 0 0 0 0 0 1 0 0 0 0 0 0 0 0 0 0 0 0
154 6 0 0 0 0 0 0 0 0 10 3 0 0 1 9 26 9 18 4 0 2 51 0 0 0 0 0 0 0 0 0 0 0 1 0 0 0 0 0 0 0 0 0
0 0 0 0 0 0 0 0 0 0 0 0 0 0 0 0 0 0 3 6 6 10 31 71 17 0 0 0 0 0 0 0 0 0 0 0 5 0 0 0 0 0 0 0
0 0 0 0 0 0 0 0 0 0 0 0 0 0 0 0 0 0 0 0 0 0 4 0 0 0 0 0 0 0 0 0 0 2 2 1 0 8 2 0 0 0 0 0

GFSNGP_con_sbcape_018.txt.gz
CAPE
0 0 0 0 0 0 0 0 0 0 0 0 0 0 0 0 0 9 0 0 29 7 118 405 773 836 1146 1556 1956 2297 2429 2588 2441 2531 2607 2560 2468 2183 1880 1978 1768 1087 1000 898
0 0 0 0 0 0 0 0 0 0 0 0 0 0 0 0 0 0 0 0 0 63 238 278 782 915 1039 1411 2199 2370 2608 2659 2757 2691 2599 2585 2695 2621 2107 2001 2077 1395 1012 1000
0 0 0 0 0 0 0 0 0 0 0 0 0 0 0 0 0 0 0 0 2 98 214 425 800 985 1030 1468 2016 2593 2676 2869 2898 2831 2751 2675 2637 2647 2682 2217 2034 1843 1183 1068
0 0 0 0 0 0 0 0 0 0 0 0 0 0 0 0 0 0 0 0 51 239 291 581 827 1037 1138 1349 1767 2493 2670 2821 2998 2842 2787 2731 2749 2748 2736 2825 2354 2342 1918 1421
0 0 0 0 0 0 0 0 0 0 0 0 0 0 0 0 0 0 0 0 0 376 331 459 676 962 1124 1295 1684 1895 2416 2638 2829 2775 2648 2725 2655 2747 2771 2941 2897 2755 2740 2071
0 0 0 0 0 1 0 0 141 0 0 0 0 0 0 0 2 0 0 0 0 202 1002 581 584 659 923 1176 1496 1765 1986 2381 2660 2634 2541 2633 2746 2768 2834 2929 2987 2980 2411 1821
0 0 0 0 0 5 8 0 188 0 0 0 0 0 0 105 4 217 0 0 0 0 357 1441 859 678 816 978 1251 1570 1870 1925 2316 2480 2516 2528 2825 2847 2852 2965 2584 2011 1080 320
36 0 15 1 21 0 0 421 26 0 1 0 0 0 0 22 29 518 340 291 0 0 0 157 1361 983 828 886 1025 1363 1493 1444 1681 2104 2259 2600 2879 2851 2722 2262 1788 778 381 316
42 1 42 5 35 227 748 938 772 676 550 892 1330 1589 1644 1813 1659 654 1547 1877 2023 0 0 37 946 1407 1140 1038 1005 1187 1118 1672 1844 2048 2588 2875 2692 2230 1928 1538 1210 847 587 442
2 27 8 0 152 611 300 118 5 25 42 147 399 570 586 472 550 938 925 784 1846 2490 2461 2418 1894 1740 1466 1493 1909 1995 2236 3186 3187 2917 2681 2410 1988 1764 1550 1136 863 688 657 619
110 1 1 0 4 46 56 1 0 0 0 0 0 0 1 0 0 0 0 0 0 652 2101 2747 3004 3000 2973 2524 3235 3085 2830 2614 2269 1619 1219 199 1 487 644 443 872 888 560 419
65 3 1 5 0 4 0 0 0 0 0 0 0 0 0 0 0 0 0 0 0 0 0 0 0 2659 2887 2712 2501 2248 1943 1347 286 32 3 2 0 1 0 0 0 467 504 217
7 14 2 0 0 0 0 0 0 0 0 0 0 0 0 0 0 0 0 0 0 0 0 0 0 22 1909 1723 1877 1818 1276 468 78 9 0 0 0 0 0 0 0 2 18 3
1 8 0 0 0 0 0 0 0 0 0 0 0 0 0 0 0 0 178 478 540 0 0 0 0 6 733 886 792 745 338 8 314 141 32 9 0 0 0 0 0 0 0 0
0 0 1 0 0 0 0 0 0 0 0 0 0 0 0 0 0 16 229 463 566 537 124 95 534 455 600 802 604 457 457 289 246 165 88 0 0 0 0 0 0 0 0 0
0 0 0 0 0 0 0 0 0 0 0 0 0 0 0 0 0 69 181 426 307 154 309 423 323 195 170 653 783 628 623 660 538 322 145 55 0 0 0 0 0 0 0 0
0 0 0 0 0 0 0 0 0 0 0 0 0 0 0 0 0 0 0 0 3 10 10 82 22 4 14 121 166 70 232 496 736 761 635 429 237 6 0 0 0 0 0 0
0 0 0 0 0 0 0 0 0 1 0 0 0 0 0 0 0 0 0 0 0 4 0 0 0 0 0 0 0 0 0 0 30 671 563 393 339 11 7 0 0 0 0 0
8 0 0 0 0 0 0 0 0 0 0 0 0 0 0 0 0 0 0 0 0 0 0 0 3 0 0 0 0 0 0 0 0 0 0 0 0 0 40 1 0 0 0 0
58 38 51 14 22 14 9 5 10 31 15 14 6 0 0 0 0 0 0 0 0 0 0 0 0 0 0 0 0 0 0 0 0 0 0 0 0 0 0 0 0 0 0 0
73 27 4 16 23 11 1 6 23 36 14 13 50 21 9 0 13 3 0 0 0 0 0 0 0 0 0 0 0 2 3 0 0 0 0 0 0 0 0 0 0 0 0 0
30 35 40 19 10 16 6 12 19 0 6 0 15 30 47 23 9 1 0 1 0 0 0 0 0 0 0 0 0 3 0 0 0 0 0 0 0 0 0 0 0 0 0 0
0 0 0 0 0 0 0 0 0 0 0 0 0 3 17 18 0 0 1 0 0 0 0 0 0 0 0 0 0 1 0 0 1 0 0 0 0 0 0 0 0 0 0 0
0 0 0 0 0 0 0 0 0 0 0 0 0 0 0 0 0 0 0 0 0 0 0 0 0 0 0 0 0 0 0 0 0 0 0 0 0 0 0 0 0 0 0 0
0 0 0 0 0 0 0 0 0 0 0 0 0 0 0 0 0 0 0 0 0 0 0 0 0 0 0 0 0 0 0 0 0 0 0 0 0 0 0 0 0 0 0 0
0 0 0 0 0 0 0 0 0 0 0 0 0 0 0 0 0 0 0 0 0 0 0 0 0 0 0 0 0 0 0 0 0 0 0 0 0 0 0 0 0 0 0 0
0 0 0 0 0 0 0 0 0 0 0 0 0 0 0 0 0 0 0 0 0 0 0 0 0 0 0 0 0 0 0 0 0 0 0 0 0 0 0 0 0 0 0 0

GFSNGP_con_sbcape_021.txt.gz
CAPE
0 0 0 0 0 0 0 0 0 0 0 0 0 0 0 0 0 0 0 0 0 0 0 0 3 252 490 865 1220 1258 1367 1567 1593 1634 1642 1574 1438 1286 1214 1283 1301 780 615 622
0 0 0 0 0 0 0 0 0 0 0 0 0 0 0 0 0 0 0 0 0 0 0 0 19 269 446 912 1242 1514 1560 1699 1731 1858 1892 1877 1838 1706 1472 1327 1383 974 777 653
0 0 0 0 0 0 0 0 0 0 0 0 0 0 0 0 0 0 0 0 0 0 0 0 17 310 496 909 1147 1783 1820 1847 1869 1847 2048 2108 2043 1995 1803 1561 1521 1104 1066 939
0 0 0 0 0 0 0 0 0 0 0 0 0 0 0 0 0 0 0 0 0 0 0 0 117 416 614 896 1247 1694 1951 2007 2127 2082 2055 2168 2208 2232 2141 1791 1727 1659 1217 1016
0 0 0 0 0 0 0 0 0 0 0 0 0 0 0 0 0 0 0 0 0 0 0 12 162 535 817 938 1176 1794 2009 2134 2265 2423 2332 2244 2256 2293 2340 2220 1787 1856 1572 1341
0 0 0 0 0 0 0 0 0 0 0 0 0 0 0 0 0 0 0 0 0 0 0 40 294 618 883 960 1276 1810 2151 2263 2443 2538 2516 2434 2373 2339 2363 2458 2394 1990 1994 1877
0 0 0 0 0 0 0 0 0 0 0 0 0 0 0 0 0 0 0 0 0 0 128 131 381 816 1014 1036 1174 1517 2079 2358 2407 2617 2582 2498 2428 2392 2511 2525 2624 2475 2544 2236
0 0 0 9 24 78 8 0 0 0 0 0 0 162 184 434 115 785 1631 1916 1409 0 0 38 198 637 955 1049 1170 1351 1597 1941 2248 2402 2586 2394 2431 2431 2554 2625 2775 2793 2025 1431
8 0 74 19 1 49 74 12 2 139 334 804 981 598 394 270 266 2 24 822 1764 1979 1306 0 4 521 575 933 1103 1241 1343 1561 1751 2225 2389 2312 2438 2482 2630 2679 2704 1708 1489 1225
114 88 122 106 8 37 22 17 9 0 0 14 0 0 0 0 0 0 0 0 68 552 753 45 224 804 645 636 701 1000 1297 1432 1504 2019 2258 2242 2508 2628 2719 2740 2096 1479 1368 775
125 61 230 112 0 0 0 0 0 0 0 0 0 0 0 0 0 0 0 0 0 325 535 48 0 0 0 88 710 759 1059 1244 1298 1720 1982 2269 917 1498 2408 1238 1291 1012 706 477
145 2 14 1 0 0 0 0 0 0 0 0 0 0 0 0 0 1 0 0 0 0 0 0 0 0 0 0 1350 1238 1157 1769 1983 2003 398 12 1 0 4 1 343 131 131 1
71 0 0 0 0 0 0 0 0 0 0 0 0 0 0 0 0 0 135 96 1 0 0 0 0 0 0 0 873 2307 2348 889 429 344 291 441 416 238 27 0 1 5 21 0
16 0 0 0 0 0 0 0 0 0 0 0 0 0 0 0 0 2 60 137 120 2 0 329 99 410 308 0 92 214 136 255 387 296 289 143 26 0 0 0 50 0 1 0
0 0 0 0 0 0 0 0 0 0 0 0 0 0 0 0 0 3 1 34 59 173 113 137 61 182 59 0 17 106 231 200 114 45 0 0 0 0 0 0 0 0 0 0
1 0 0 0 0 0 0 0 0 0 0 0 0 0 0 0 0 0 0 2 7 2 1 0 0 4 67 3 1 0 0 65 121 10 0 0 0 0 0 0 0 0 0 0
0 0 0 0 0 0 0 0 0 0 0 0 0 0 0 0 0 0 0 0 0 0 1 0 0 0 0 0 18 1 62 149 31 20 0 0 0 0 0 0 0 0 0 0
0 0 0 0 0 0 0 0 0 0 0 0 0 0 0 0 0 0 0 0 0 0 0 0 0 0 0 0 0 2 79 262 288 142 26 10 0 0 0 0 0 0 0 0
0 0 0 0 0 0 0 0 0 0 0 0 0 0 0 0 0 0 0 0 0 0 0 0 0 0 0 0 0 0 0 15 99 176 129 45 21 1 0 0 0 0 0 0
29 44 42 7 2 3 5 12 1 0 0 0 0 0 0 0 0 0 0 0 0 0 0 0 0 0 0 0 0 0 0 0 0 0 0 0 0 0 0 0 0 0 0 0
0 0 4 0 0 0 2 1 0 0 0 10 11 7 10 4 0 0 0 0 0 0 0 0 0 0 0 0 0 0 0 0 0 0 0 0 0 0 0 0 0 0 0 0
0 0 0 0 0 0 0 0 0 0 0 0 1 0 0 0 0 0 0 0 0 0 0 0 0 0 0 0 0 0 0 0 0 0 0 0 0 0 0 0 0 0 0 0
0 0 0 0 0 0 0 0 0 0 0 0 0 0 0 0 0 0 0 0 0 0 0 0 0 0 0 0 0 0 0 0 0 0 0 0 2 0 0 0 0 0 0 0
0 0 0 0 0 0 0 0 0 0 0 0 0 0 0 0 0 0 0 0 0 0 0 0 0 0 0 0 0 0 0 0 0 0 0 0 0 0 0 0 1 0 0 0
0 0 0 0 0 0 0 0 0 0 0 0 0 0 0 0 0 0 0 0 0 0 0 0 0 0 0 0 0 0 0 0 0 0 0 0 0 0 0 0 0 0 0 0
0 0 0 0 0 0 0 0 0 0 0 0 0 0 0 0 0 0 0 0 0 0 0 0 0 0 0 0 0 0 0 0 0 0 0 0 0 0 0 0 0 0 0 0
0 0 0 0 0 0 0 0 0 0 0 0 0 0 0 0 0 0 0 0 0 0 0 0 0 0 0 0 0 0 0 0 0 0 0 0 0 0 0 0 0 0 0 0

GFSNGP_con_sbcape_024.txt.gz
CAPE
0 0 0 0 0 0 0 0 0 0 0 0 0 0 0 0 0 0 0 0 0 0 0 0 0 4 47 214 395 658 722 761 994 1055 1089 1138 1216 1174 1107 1023 1019 906 932 936
0 0 0 0 0 0 0 0 0 0 0 0 0 0 0 0 0 0 0 0 0 0 0 0 0 76 165 348 611 778 922 940 1066 1204 1183 1151 1135 1281 1309 1306 1275 1039 931 978
0 0 0 0 0 0 0 0 0 0 0 0 0 0 0 0 0 0 0 0 0 0 0 0 1 127 253 441 735 933 1089 1177 1296 1399 1442 1418 1366 1244 1225 1224 1345 1155 1101 1005
0 0 0 0 0 0 0 0 0 0 0 0 0 0 0 0 0 0 0 0 0 0 0 0 0 0 162 397 843 1140 1217 1270 1475 1603 1666 1663 1675 1573 1458 1363 1296 1329 1200 1048
0 0 0 0 0 0 0 0 0 0 0 0 0 0 0 0 0 0 0 0 0 0 0 0 0 0 179 448 856 1194 1436 1420 1548 1739 1808 1838 1881 1877 1839 1723 1546 1516 1412 1214
0 0 0 0 0 0 0 0 0 0 0 0 0 0 0 0 0 0 0 0 0 0 0 0 0 3 293 531 862 1087 1584 1702 1759 1847 1829 1926 2035 2090 2060 2004 1841 1730 1604 1368
0 0 0 0 2 0 0 0 0 1 0 0 0 0 0 0 0 13 28 0 0 0 0 0 0 38 344 478 783 1118 1409 1793 1968 2067 2052 1964 2090 2276 2324 2350 2164 1870 1825 1605
0 0 0 28 42 86 0 0 0 1 0 0 0 71 218 333 520 970 1384 1574 830 0 0 0 0 73 400 595 814 1030 1435 1775 1982 2202 2320 2323 2207 2286 2285 2439 2415 2140 1935 1868
0 0 0 83 70 0 1 1 0 0 0 174 195 31 5 0 0 1 68 463 1120 493 14 1 45 29 41 198 477 801 1202 1773 2148 2258 2445 2433 2469 2405 2407 2425 2434 2297 2083 2081
5 4 0 218 37 0 0 0 2 0 0 0 0 0 0 0 0 0 0 0 53 28 0 0 0 0 0 153 1072 529 950 1290 1839 2339 2479 2609 2469 2483 2479 2477 2261 2265 2212 2129
5 0 148 152 0 0 0 0 0 0 0 0 0 0 0 0 0 1 0 0 0 0 0 0 0 0 0 0 739 1606 408 981 1448 2022 2052 2552 1078 1232 2354 2457 2535 2547 1927 1411
7 0 113 15 0 0 0 0 0 0 0 0 0 0 0 0 0 1 0 0 0 0 0 0 0 0 0 0 201 1941 1780 733 1181 1762 2071 169 0 0 2 2 2 8 36 3
0 9 75 1 0 0 0 0 0 0 0 0 0 0 0 0 0 1 0 0 1 0 3 0 0 15 3 0 0 1016 2018 1333 1245 1442 326 24 386 333 2 0 1 0 1 0
1 153 107 5 0 1 0 0 0 0 0 0 0 10 1 4 3 18 9 31 48 5 1 13 36 77 22 0 0 304 1851 963 726 486 364 677 364 239 43 1 2 0 1 0
119 65 22 4 0 0 0 0 0 0 0 0 0 0 1 0 0 0 5 16 0 0 0 0 0 0 1 10 2 89 67 274 279 372 328 10 2 4 4 7 6 2 4 1
38 11 4 0 0 0 0 0 0 0 0 0 0 0 0 0 0 0 0 1 0 2 1 0 0 0 0 3 0 0 0 0 0 4 7 0 0 0 1 1 0 1 2 4
0 3 3 0 0 0 1 0 0 0 0 0 0 0 0 0 0 0 0 0 0 0 0 0 0 0 0 0 0 2 0 2 1 0 24 4 2 0 1 1 1 1 1 5
1 0 0 0 0 0 0 0 0 0 0 0 0 0 0 0 0 0 0 0 0 0 0 0 0 0 0 0 1 7 10 8 0 0 3 2 2 1 0 0 0 0 2 2
4 1 0 0 15 2 0 0 0 0 0 0 0 0 0 0 0 0 0 0 0 0 0 0 0 0 0 0 0 0 0 13 28 21 4 0 0 0 0 0 2 2 1 0
0 0 0 0 0 0 0 0 0 0 2 3 0 0 0 0 0 0 0 0 0 0 0 0 0 0 0 0 0 0 0 0 1 1 1 3 4 0 0 0 0 0 0 0
0 0 0 0 0 0 0 0 0 0 0 0 0 0 0 0 0 0 0 0 0 0 0 0 0 0 0 0 0 0 0 0 0 0 3 0 0 1 0 0 0 0 0 0
0 0 0 0 0 0 0 0 0 0 0 0 0 0 0 0 0 0 0 0 0 0 0 0 0 0 0 0 0 0 0 2 0 0 0 4 0 0 0 1 1 0 0 0
0 0 0 0 0 0 0 0 0 0 0 0 0 0 0 0 0 0 0 0 0 0 0 0 0 0 0 0 0 0 0 0 0 0 0 0 0 0 0 0 0 0 0 0
0 0 0 0 0 0 0 0 0 0 0 0 0 0 0 0 0 0 0 0 0 0 0 0 0 0 0 0 0 0 0 0 0 0 0 0 0 0 0 0 0 0 0 0
0 0 0 0 0 0 0 0 0 0 0 0 0 0 0 0 0 0 0 0 0 0 0 0 0 0 0 0 0 0 0 0 0 0 0 0 0 0 0 0 0 0 0 0
0 0 0 0 0 0 0 0 0 0 0 0 0 0 0 0 0 0 0 0 0 0 0 0 0 0 0 0 0 0 1 1 1 0 0 0 0 0 0 0 0 0 0 0
0 0 0 0 0 0 0 0 0 0 0 0 0 0 0 0 0 0 0 0 0 0 0 0 0 0 0 0 0 0 0 0 0 0 1 2 0 0 0 0 0 0 0 0

GFSNGP_con_sbcape_030.txt.gz
CAPE
0 0 0 0 0 0 0 0 0 0 0 0 0 0 0 0 0 0 0 0 0 362 530 1037 1337 2004 2512 1820 2011 1880 2602 2324 3051 3466 3647 3655 3701 3699 3705 3909 3798 3987 3954 4050
0 0 0 0 0 0 0 0 0 0 0 0 0 0 0 0 0 0 0 0 0 0 199 714 1254 1624 1883 2635 2182 2057 2834 2840 3120 3641 3886 3808 3817 3804 3933 3892 3910 3974 3903 4053
0 0 0 0 0 0 0 0 0 0 0 0 0 0 0 0 0 0 0 0 0 0 17 594 1028 1367 1491 2454 2020 2485 2880 3204 3382 3754 3895 3949 3989 4034 3969 3915 3973 4032 3987 4011
0 0 0 0 0 0 0 0 0 0 0 0 0 0 0 0 0 0 0 0 0 0 0 82 437 123 1124 1361 2672 2860 3123 3304 3555 3732 3928 4155 4188 4113 4086 4041 3974 4092 4037 4095
0 0 0 0 0 0 0 0 0 0 0 0 0 0 0 0 0 0 0 0 0 0 0 0 0 155 359 1326 1876 2600 3156 3389 3557 3670 3410 3551 4120 4098 4067 3845 3665 3693 3554 4120
0 0 0 0 0 0 0 0 0 0 0 0 2 0 0 0 0 0 0 0 0 0 0 0 127 224 622 1151 1554 2588 3008 3277 3476 3786 3781 3705 4092 4230 4088 3938 3556 3107 3511 3910
0 0 0 0 0 16 0 60 8 0 0 2 229 117 145 78 64 2 0 0 0 0 0 37 419 644 1056 1290 1677 2423 2349 2415 3367 3875 4040 4038 4341 4302 4240 4067 3624 4045 3715 3696
0 0 0 0 0 0 6 5 1 2 0 0 11 80 423 606 662 218 69 669 1172 332 0 16 640 630 1193 2941 2489 2985 3083 3084 3874 3994 3208 3073 4433 4496 4176 4167 4127 3978 3379 3552
0 0 0 0 0 0 0 0 0 1 3 0 12 144 467 921 909 20 435 1275 1690 13 243 1386 1904 1567 1639 2737 2643 2702 2999 3669 3715 3817 3855 4197 4487 4536 3738 4238 3371 3369 2907 3468
23 0 2 5 0 0 0 0 0 0 0 0 1 269 890 1194 781 1060 1728 2440 2084 1387 1305 1988 2517 2625 2869 2875 2719 2767 2875 3131 3239 3500 3483 3475 3295 3545 3284 3098 3598 3207 3560 3712
64 53 26 2 0 0 0 0 0 0 0 3 11 514 1086 894 936 1382 1525 1290 1451 1791 1899 1864 1976 2011 2185 2711 3430 2926 3120 3231 3353 3301 3469 3626 3853 3376 3266 3635 3205 3428 3503 3170
34 32 55 42 32 0 0 0 0 0 0 0 94 185 399 903 1075 989 1125 1002 976 963 1041 1162 1093 1147 1228 1225 1326 1848 2398 2539 2400 2498 2802 3219 3300 3737 51 218 27 1002 1795 1548
30 36 45 50 36 1 46 4 0 9 11 107 41 24 53 230 74 138 791 1040 1307 1367 1424 1437 1358 1203 614 814 1496 1653 1541 1516 1458 1386 1585 1816 2400 2906 3042 1367 0 2 8 733
38 50 38 37 10 15 6 18 20 70 113 123 64 41 48 138 104 225 407 694 849 1010 1214 1192 785 371 501 973 1383 1491 805 6 1138 1247 1479 1880 2430 2664 2879 3266 2779 2687 173 0
24 31 27 12 41 59 124 55 129 143 129 125 97 33 37 80 132 45 51 226 536 854 1040 1021 776 728 909 1079 647 347 231 567 423 263 210 150 1 1 2 137 2 3 2 0
7 8 22 28 13 21 171 201 99 92 113 61 117 130 57 16 3 0 0 0 0 1 11 269 858 969 526 570 524 463 246 0 27 177 0 19 17 0 0 0 0 0 2 1
18 29 18 6 32 110 56 46 94 53 57 34 10 31 8 5 2 0 0 0 0 0 0 0 82 446 1046 1023 770 580 400 484 0 132 133 15 5 1 11 14 16 6 2 1
111 112 67 1 123 67 18 82 12 2 12 6 2 3 3 0 0 0 0 0 0 0 0 0 0 100 162 352 852 707 665 384 240 129 93 6 21 14 16 7 17 11 5 3
6 4 3 3 5 4 4 3 26 29 8 8 11 9 10 1 0 0 0 0 0 0 0 0 0 0 16 5 370 728 532 429 216 238 194 1 3 4 14 16 7 10 6 4
2 1 2 2 3 3 2 3 2 3 12 9 4 1 0 1 0 0 0 0 3 0 0 0 0 0 0 0 10 311 699 704 439 137 129 83 12 7 6 2 12 8 10 34
0 1 2 2 2 2 3 2 0 4 1 0 0 1 0 0 0 0 0 0 0 0 0 0 0 0 0 0 1 1 2 35 138 248 410 177 23 6 8 10 7 4 1 2
0 0 0 0 0 0 0 0 0 0 0 0 0 0 0 0 0 0 0 0 0 0 0 0 0 0 0 0 0 0 0 0 0 0 42 21 49 17 10 7 6 5 5 3
0 0 0 0 0 0 0 0 0 0 0 0 0 0 0 0 0 0 0 0 0 0 0 0 0 0 0 0 0 0 0 0 0 0 0 0 0 0 4 5 5 4 4 4
0 0 0 0 0 0 0 0 0 0 0 0 0 0 0 0 0 0 0 0 0 0 0 0 0 0 0 0 0 0 0 0 0 0 0 0 0 0 0 0 0 1 3 2
0 0 0 0 0 0 0 0 0 0 0 0 0 0 0 0 0 0 0 0 0 0 0 0 0 0 0 0 0 0 2 3 0 0 0 0 0 0 0 0 0 0 0 0
0 0 0 0 0 0 0 0 0 0 0 0 0 0 0 0 0 0 0 0 0 0 0 0 0 0 0 0 0 0 0 0 0 1 4 5 0 0 0 1 0 0 0 0
0 0 0 0 0 0 0 0 0 0 0 0 0 0 0 0 0 0 0 0 0 0 0 0 0 0 0 0 0 0 0 0 0 0 0 0 5 3 4 0 0 0 1 5

GFSNGP_con_sbcape_033.txt.gz
CAPE
0 4 0 0 0 0 0 0 0 0 0 0 0 0 0 0 0 0 0 0 1 89 432 933 2052 2882 3096 2400 2841 2548 3151 3153 3456 3998 4198 4253 4212 4289 4333 4384 4357 4407 4369 4378
0 0 0 0 0 0 0 0 0 0 0 0 0 0 0 0 0 0 0 0 0 0 89 552 1404 2615 2828 3201 2798 2824 3479 3342 3729 4127 4351 4424 4436 4380 4538 4434 4476 4467 4464 4380
6 0 0 0 0 0 0 0 0 0 0 0 0 0 0 0 0 0 0 0 0 0 0 259 633 1582 2022 3294 3226 2934 3378 3782 3815 4188 4393 4522 4572 4605 4527 4524 4534 4520 4471 4529
7 4 2 0 0 0 0 0 0 0 0 0 0 0 0 0 0 0 0 0 0 0 0 34 19 291 1415 1558 3813 3697 3634 3690 3998 4125 4356 4573 4683 4633 4650 4632 4592 4594 4599 4656
0 1 0 0 0 0 0 0 0 0 0 0 0 0 0 0 0 0 0 0 0 0 0 134 0 42 473 1643 2824 3744 3908 3861 3820 4196 4345 4526 4574 4610 4644 4610 4605 4555 4610 4724
13 3 7 3 1 0 0 0 0 0 0 0 0 0 0 129 50 32 0 0 0 0 0 0 62 0 0 256 1698 3625 3658 4076 4156 4444 4475 4533 4624 4762 4739 4690 4567 4299 4481 4632
4 10 3 2 20 11 2 186 46 5 0 4 22 164 360 211 244 527 648 514 249 157 74 165 113 67 1358 1224 1405 2704 3329 3999 4390 4465 4647 4572 4655 4783 4828 4759 4430 4637 4525 4569
5 9 6 0 0 14 37 20 2 13 21 47 67 60 115 119 393 626 983 787 400 397 1021 1174 431 783 2740 2973 3085 3777 3761 3970 4324 4548 4132 4067 4692 4833 4969 4842 4750 4747 4703 4633
2 0 0 0 0 0 0 0 0 0 0 0 0 3 31 162 629 1090 1141 805 37 310 1619 533 772 1067 2719 3751 4441 4389 4491 4638 4619 4694 4696 4536 4840 4910 4502 4794 4311 4404 4248 4507
13 2 0 0 0 0 0 0 0 0 0 0 0 0 0 280 997 1197 1167 1444 1962 2000 1703 1040 2063 2545 2454 3448 3665 4170 4740 4844 4808 4894 4783 4610 3660 4007 3845 3696 4024 3973 3905 4110
25 7 13 2 0 0 0 0 0 0 0 0 0 0 0 508 1564 1177 1660 2257 2041 2451 2558 2752 3134 3421 3449 3497 3231 3255 3426 3393 3615 3433 3852 4495 4385 3289 3606 3966 3272 3589 3737 3600
69 57 34 31 24 6 0 0 0 0 0 0 0 0 76 275 1326 1948 1681 1703 1839 1902 2007 1914 1867 1891 1991 2011 3223 3800 3592 3550 3338 3171 3324 3525 3581 4000 1986 2077 1172 1151 0 266
55 57 57 30 51 37 25 0 0 0 0 0 0 0 199 173 1181 1141 1846 1508 1670 1947 1925 1908 1809 1161 1172 1770 1988 2147 2434 2467 2138 1709 1897 2033 2872 3033 2906 1539 31 31 0 0
23 14 28 14 21 52 39 29 10 0 0 0 0 12 77 77 307 998 1159 1321 1405 1593 1387 1198 1168 1463 1698 1998 2211 1714 1165 330 1450 1533 1649 1847 2152 2360 2432 2464 2656 2615 6 0
1 2 10 36 13 26 34 36 26 13 1 2 9 57 33 220 515 812 1318 1375 1144 1178 1232 1121 1125 1211 1351 762 679 865 1048 981 766 785 697 578 735 676 736 635 251 1 0 0
1 4 12 17 24 32 24 2 41 88 8 58 105 125 53 130 418 655 690 236 345 607 378 697 1030 956 837 988 845 711 332 29 147 464 235 223 235 343 282 62 9 7 3 1
7 13 13 16 18 13 23 22 1 73 138 68 97 66 61 51 6 44 30 16 17 22 124 443 561 756 1067 1040 757 672 635 596 0 310 170 217 191 134 16 30 6 6 2 0
7 36 43 43 54 23 18 43 69 137 104 27 24 2 2 0 3 29 39 22 7 9 4 1 76 335 521 623 685 517 528 479 406 450 179 63 151 21 59 13 3 2 9 2
44 25 15 10 17 13 12 9 11 9 5 4 3 8 4 2 4 9 8 8 4 2 7 1 0 0 32 0 410 303 295 389 533 531 403 30 116 51 8 8 5 5 8 16
36 43 43 19 3 4 7 4 4 3 15 2 3 1 1 1 6 8 6 11 13 4 0 0 0 0 0 0 1 76 272 355 327 219 143 147 79 33 10 3 7 10 17 13
21 23 17 23 10 12 10 13 2 9 7 1 5 9 2 0 0 0 0 0 0 8 0 0 0 0 0 0 0 1 2 22 28 8 107 17 20 18 20 9 9 6 4 2
34 19 46 4 1 4 12 7 1 0 1 0 0 0 0 0 0 0 0 0 0 0 0 0 0 0 0 0 0 0 0 1 9 12 11 11 1 1 5 7 6 5 5 5
41 50 21 20 22 10 0 0 0 0 0 0 0 0 0 0 0 0 0 0 0 0 0 0 0 0 0 0 0 0 0 0 1 1 1 0 0 0 0 2 5 8 3 1
27 16 24 26 1 4 12 3 0 0 0 0 0 0 0 0 0 0 0 0 0 0 0 0 0 0 0 0 0 0 0 0 0 0 3 2 8 9 0 0 0 2 4 2
0 13 5 1 9 10 11 9 0 0 0 0 0 0 0 0 0 0 0 0 0 0 0 0 0 0 0 0 0 0 0 0 0 0 1 0 10 13 7 7 2 0 0 0
0 0 6 8 5 3 9 10 5 1 3 0 0 0 0 0 0 0 0 0 0 0 0 0 0 0 0 0 0 0 0 0 0 0 0 0 2 4 3 6 4 5 8 4
3 0 3 2 2 4 2 2 3 0 0 0 0 0 0 0 0 0 0 0 0 0 0 0 0 0 0 0 0 0 0 0 0 0 1 3 1 0 0 0 0 0 0 0

GFSNGP_con_sbcape_036.txt.gz
CAPE
0 2 20 0 0 0 0 0 0 0 0 0 0 0 0 0 152 312 641 708 1207 1324 1836 1941 2282 2506 2597 2530 2566 2528 2680 3203 3359 3372 3509 3516 3619 3684 3838 3592 3421 3551 3630 3611
0 0 0 0 0 0 0 0 0 0 7 0 0 23 4 41 57 200 158 103 188 537 695 1520 2498 2951 2569 2672 2821 2764 2758 2929 3185 3459 3485 3835 3680 3775 3856 3946 3837 3782 3820 3703
0 0 0 4 0 1 0 0 0 0 29 15 14 11 9 0 0 0 0 0 0 38 327 1008 1472 3277 3287 3024 3098 3270 2998 3261 3311 3404 3565 3737 3989 3889 3846 4036 4051 4029 4011 3966
0 0 3 0 2 0 3 0 0 0 64 148 241 63 0 0 0 0 0 0 128 0 45 1038 393 475 2111 3412 3495 3310 3880 3601 3805 3862 3686 3922 4064 4098 4124 4050 4163 4119 4174 4101
0 1 1 6 0 0 0 1 14 31 36 5 0 0 0 0 0 0 0 29 59 0 2 1426 842 974 1605 2066 3730 3726 3464 3920 3696 4044 4027 4027 4135 4153 4213 4279 4213 4311 4243 4271
0 0 1 10 0 0 1 0 30 0 0 0 0 0 458 520 228 351 560 988 1357 913 936 220 2046 406 2494 2214 2862 3636 3597 3435 3858 3783 3952 4068 4190 4341 4359 4363 4351 4304 4316 4274
0 0 0 0 0 0 0 188 115 31 74 81 174 656 452 179 172 390 871 1161 1385 1338 1268 2281 2246 1988 2875 2217 2348 3089 3601 3745 3984 4023 3890 4093 4250 4448 4497 4487 4446 4425 4358 4341
1 0 0 0 0 2 69 0 0 0 0 0 0 0 29 66 356 651 1213 1463 1188 1486 1656 1681 2692 2540 2944 3880 3984 4151 4223 4064 4173 4513 3956 3938 4406 4510 4536 4527 4507 4445 4402 4376
0 0 0 2 0 0 0 0 0 0 0 0 0 0 0 1 559 1069 1743 1962 1574 1265 1618 1906 1987 3187 3042 4783 5096 4868 5087 4912 4472 4704 4525 4143 4588 4486 4512 4599 4527 4504 4405 4385
2 0 0 0 0 0 0 0 0 0 0 0 0 0 0 0 60 874 1992 2249 3052 3147 3420 3637 2642 3000 4366 4350 4436 5079 5233 5322 4947 4843 4661 4528 4171 4448 4330 4357 4512 4555 4458 4334
15 0 13 0 0 0 0 0 0 0 0 0 0 0 0 0 223 322 913 2659 2816 3385 4009 4061 4454 4187 4045 4478 4801 4646 4830 4986 5113 4685 4587 4739 4590 3995 4478 4403 4237 4382 4386 4083
29 7 25 14 0 0 0 0 0 0 0 0 0 0 0 0 306 386 1411 2396 2882 2941 2690 2405 2288 2360 2679 2771 3849 4822 4644 4244 4059 3859 4121 4327 4563 4501 2899 2584 738 12 6 908
3 0 0 0 0 0 0 0 0 0 0 0 0 0 0 0 308 320 1003 2196 2369 2761 2276 2464 2430 1564 1547 2568 2673 3611 3975 4549 4082 3379 3944 4194 3976 4525 4424 0 2 0 0 0
1 1 4 0 0 0 0 0 0 0 0 0 0 0 0 0 197 372 755 1539 1848 1997 1703 1626 1409 1722 2097 2480 2293 2044 1945 659 2434 2110 2271 2547 2547 2334 2473 2480 2816 1832 51 0
16 0 0 0 0 0 0 0 1 0 0 0 0 0 0 1 159 636 860 1349 1044 1115 1066 1708 1611 1611 1143 1163 1519 2066 2348 1587 1500 1070 984 783 1073 862 640 689 455 264 214 12
3 2 17 0 6 0 6 10 0 0 0 0 0 0 0 115 228 604 820 953 897 538 828 1167 1306 1415 1247 1665 1393 826 667 178 564 934 698 810 728 717 744 569 405 281 13 0
47 2 0 5 7 11 9 8 7 7 0 1 46 3 137 184 64 1 75 15 35 71 211 795 835 1549 1553 1138 1658 1263 491 672 263 440 473 530 534 499 355 348 124 34 1 0
27 42 35 29 19 16 15 20 29 51 33 9 101 125 180 55 5 0 8 0 0 18 2 40 407 1044 610 573 852 874 879 743 664 280 201 247 334 174 106 9 0 0 4 0
35 15 16 11 15 12 15 7 3 8 6 1 0 8 5 5 0 2 0 0 0 0 0 0 0 0 0 29 537 440 217 370 432 347 109 33 1 2 5 4 3 5 19 19
65 21 18 51 10 8 20 14 5 13 17 7 3 1 1 3 4 4 0 1 1 0 0 0 0 0 0 0 9 3 18 15 18 0 0 0 0 10 6 1 3 4 3 2
80 67 36 25 10 7 7 2 9 7 12 3 8 7 6 7 5 1 1 1 1 0 0 0 0 0 0 0 0 0 0 0 0 0 0 1 2 1 3 2 3 3 3 3
49 47 81 51 17 4 3 3 0 2 19 9 11 15 10 5 5 1 1 2 0 0 0 0 0 0 0 0 0 0 0 5 0 1 17 8 2 2 3 5 5 5 5 6
61 26 66 35 7 4 4 1 1 0 0 18 24 1 3 0 0 0 0 0 0 0 0 0 0 0 0 0 0 0 0 0 0 15 20 12 0 0 0 1 3 4 5 5
8 26 33 49 87 16 2 0 0 11 14 5 0 0 1 0 0 0 0 0 0 0 0 0 0 0 0 0 0 0 0 0 0 0 0 0 2 2 0 0 0 0 0 2
13 47 12 23 49 52 52 52 36 28 7 5 4 0 0 0 0 0 0 0 0 0 0 0 0 0 0 0 0 0 0 0 0 0 0 0 0 0 0 0 5 1 0 0
0 17 18 37 8 7 7 5 0 0 2 0 0 0 0 0 0 0 0 0 0 0 0 0 0 0 0 0 0 0 0 0 0 0 0 0 0 0 0 0 0 0 0 0
5 0 18 18 16 0 0 0 0 0 0 0 0 0 0 0 0 0 0 0 0 0 0 0 0 0 0 0 0 0 0 0 0 0 0 4 6 0 0 0 0 0 0 0

GFSNGP_con_sbcape_039.txt.gz
CAPE
0 0 0 0 0 0 0 0 0 0 0 0 1 24 14 0 3 64 227 467 745 1164 1235 1510 1425 1197 1178 1121 1267 1572 2292 2541 2585 2595 2398 2379 2393 2442 2282 1774 2504 2237 2630 2337
0 0 0 0 0 0 0 0 0 0 0 0 0 14 2 0 0 0 2 172 212 690 1191 1452 1656 1564 1475 1457 1439 1479 2083 2418 2680 2593 2580 2393 2449 2404 2671 2650 2106 2395 2411 2449
0 0 0 0 0 1 0 0 0 0 0 0 1 6 0 0 0 0 0 0 0 0 142 1259 1764 1753 1781 1830 1667 1723 1721 2223 2525 2688 2571 2624 2520 2701 2672 2871 2924 2590 2428 2722
0 0 0 0 0 1 0 0 0 0 16 0 51 149 40 0 0 0 4 0 0 0 0 1 707 2040 1887 1897 2067 1931 1926 1960 2211 2588 2785 2698 2789 2677 2911 2930 3055 3158 3066 2815
0 0 0 0 0 0 18 25 2 225 205 17 252 314 158 92 219 333 411 537 607 463 287 284 42 80 2302 2142 2302 2495 2216 2236 2270 2694 2751 2922 2871 3049 3026 3041 3122 3172 3367 3307
0 0 0 0 0 0 0 0 0 9 357 34 355 267 200 94 139 351 538 652 768 635 436 432 713 586 1865 2660 2498 2654 2775 2947 2800 2789 2942 2886 3019 3038 3198 3292 3237 3279 3277 3496
0 0 0 0 0 0 1 0 0 0 0 0 0 0 0 41 137 469 856 979 960 776 745 879 568 497 1025 1151 2721 2660 2461 2666 3266 3374 3301 3259 3153 3267 3384 3513 3548 3525 3557 3553
0 2 2 0 0 0 0 0 0 0 0 0 0 0 0 0 36 414 234 1025 1412 1210 736 608 405 1106 852 677 1973 2367 2703 2894 2888 3106 3132 3323 3432 3589 3731 3770 3800 3744 3773 3780
0 0 0 0 0 0 0 0 0 0 0 0 0 0 0 0 0 71 49 73 1546 2280 2505 2624 1060 1306 1282 2943 3063 3693 2914 3026 3132 3347 3342 2702 3629 3607 4038 3984 4053 3999 3937 3934
0 0 0 0 0 0 0 0 0 0 0 0 0 0 0 0 0 55 28 158 1217 1972 2683 3432 3227 3098 3090 3460 3146 2450 3343 4218 3570 3730 4078 3318 3831 3813 3944 4125 4050 3983 3950 3924
0 0 0 0 0 0 0 0 0 0 0 0 0 0 0 0 0 82 81 155 663 1228 2025 2575 2577 2431 2325 2289 2737 3756 2723 4587 4195 4165 4109 3984 3445 3964 3795 3729 3851 3950 3934 3786
1 0 0 0 0 0 0 0 0 0 0 0 0 0 0 0 0 76 52 41 424 875 1547 1924 2185 1682 1275 1287 1872 2793 3808 4379 4452 3988 3947 4103 4158 2572 0 80 0 1 7 2255
0 0 0 0 0 0 0 0 0 0 0 0 0 0 0 0 0 0 81 175 372 651 1034 1495 1408 1277 1179 1438 2077 1860 2002 3293 3151 3330 3498 3840 3876 3844 592 0 1 0 0 0
0 0 0 0 0 0 0 0 0 0 0 0 0 0 0 0 0 0 50 224 352 642 1331 1343 1363 1444 1512 1936 1906 1471 1210 917 1089 1457 1320 1540 1626 1429 1261 226 303 0 0 0
2 0 0 0 0 0 0 0 0 0 0 0 0 0 0 0 0 0 295 474 681 957 912 1037 958 862 757 679 997 675 1475 670 423 337 428 386 249 220 156 39 0 0 0 0
4 1 0 0 0 0 0 0 0 0 0 0 0 0 0 0 0 3 59 328 803 750 712 720 752 873 1090 1122 705 357 54 379 282 254 342 308 216 69 9 2 0 0 0 0
11 6 19 3 0 0 0 0 0 0 0 0 0 0 0 0 0 34 15 41 2 0 0 0 0 410 111 175 1247 546 262 63 104 82 43 19 0 0 0 0 0 0 0 0
4 15 11 8 5 21 42 22 11 6 2 0 0 0 0 0 11 1 0 0 0 0 0 0 0 0 8 345 466 552 173 60 9 0 0 0 0 0 0 0 0 0 0 0
7 9 14 7 5 3 8 3 1 1 1 0 0 2 3 4 5 3 0 0 0 0 0 0 0 0 0 3 6 0 0 0 0 0 0 0 0 0 0 0 0 0 0 0
2 0 0 23 3 3 4 17 12 9 10 8 3 0 1 3 4 4 1 1 3 0 0 0 0 0 0 0 0 0 0 0 0 0 0 0 0 1 1 0 1 1 1 1
15 1 0 0 12 18 13 4 8 5 8 15 8 5 3 3 3 2 2 1 2 0 0 0 0 0 0 0 0 0 0 0 0 0 0 0 1 1 1 1 2 3 3 3
36 17 1 0 0 1 15 10 3 7 10 8 10 9 2 1 1 2 4 5 1 1 0 2 1 2 0 0 0 0 0 0 0 0 0 0 0 1 0 2 2 3 2 2
6 50 1 0 2 0 0 3 6 5 5 35 16 0 5 6 1 1 0 0 0 0 0 0 0 0 0 0 0 0 0 0 0 0 0 0 0 0 0 0 0 0 1 2
1 38 47 4 2 0 1 13 16 8 1 1 10 4 0 0 0 0 0 0 0 0 0 0 0 0 0 0 0 0 0 0 0 0 0 0 0 0 0 0 0 0 0 0
44 47 18 12 30 14 7 0 0 1 7 6 0 0 0 0 2 15 10 4 1 0 0 0 0 0 0 0 0 0 0 0 0 0 0 0 0 0 0 0 0 0 0 0
24 37 57 23 0 0 0 0 0 0 0 0 0 0 0 0 0 0 0 0 0 0 0 0 0 0 0 0 0 0 0 0 0 0 0 0 0 0 0 0 0 0 0 0
0 0 0 0 4 0 0 0 0 0 0 0 0 0 0 0 0 0 0 0 0 0 0 0 0 0 0 0 0 0 0 0 0 0 0 0 0 0 0 0 0 0 0 0

GFSNGP_con_sbcape_045.txt.gz
CAPE
0 0 0 0 0 0 0 0 0 0 0 0 0 0 0 0 0 0 0 75 263 374 303 348 298 221 450 555 802 695 729 792 903 1126 1143 1063 788 586 915 1288 985 698 741 1051
0 0 0 0 0 0 0 0 0 0 0 0 3 20 21 0 0 0 49 243 382 454 386 378 347 283 404 694 989 1038 981 1012 1048 1096 1315 1361 1277 1088 732 1058 1444 1043 823 929
0 0 0 0 0 0 0 0 0 0 0 0 105 117 79 58 0 0 0 214 435 425 422 415 403 336 457 793 1021 1363 1353 1343 1361 1322 1347 1541 1636 1564 1256 1027 1091 1511 1480 1115
0 0 0 0 0 0 0 0 0 0 0 166 245 151 40 7 87 151 0 111 403 561 554 494 492 415 447 718 909 1419 1592 1653 1671 1712 1617 1547 1717 1903 1817 1519 1344 1237 1235 1565
0 0 0 0 0 0 0 0 0 0 0 26 208 191 75 0 12 170 649 0 9 377 502 568 610 529 532 736 924 1156 1461 1701 1828 1889 1934 1978 1878 1891 2000 2063 1951 1713 1550 1237
2 0 0 0 0 0 0 0 0 0 0 0 7 42 0 0 0 13 772 1106 89 0 242 797 776 687 683 774 850 1004 1371 1653 1758 1933 2085 2110 2222 2141 2089 2123 2174 2254 2272 2138
9 13 2 0 0 0 0 0 0 0 0 0 0 0 0 0 0 0 29 808 1923 1297 183 30 151 987 1016 1010 1020 1082 1068 1104 1573 1969 2167 2277 2216 2231 2197 2174 2235 2240 2262 2321
14 15 12 0 0 0 0 0 0 0 0 0 0 0 0 0 0 0 0 127 800 1814 1706 1142 75 649 903 1270 1315 1432 1390 1207 1281 1524 2089 2238 2381 2316 2316 2343 2321 2349 2389 2421
11 15 0 0 0 0 0 0 0 0 0 0 0 0 0 0 0 0 0 0 140 540 1361 1498 1471 1552 1671 1770 2170 1621 1666 1645 1465 1543 1582 2044 2323 2440 2418 2384 2505 2535 2541 2528
2 0 0 0 0 0 0 0 0 0 0 0 0 0 0 0 0 0 0 0 0 63 405 1072 906 779 693 774 1248 1892 1997 1830 1852 2125 2058 1969 2219 2278 2404 2534 2548 2589 2673 2819
0 0 0 0 0 0 0 0 0 0 0 0 0 0 0 0 0 0 0 0 0 0 6 328 651 453 514 947 1120 1370 1672 1758 2110 2079 1637 2030 980 1292 2216 2548 2443 2757 2838 2937
3 0 2 0 0 0 0 0 0 0 0 0 0 0 0 0 0 0 0 0 0 0 7 137 429 459 629 1104 1206 1022 1135 1046 946 2223 2281 1589 14 1 0 1 2 146 1131 3214
20 6 2 0 1 0 0 0 0 0 0 0 0 0 0 0 0 0 0 0 0 0 0 140 380 567 448 1055 899 658 563 824 563 753 2523 1899 365 59 0 0 0 0 0 14
4 5 4 7 3 0 0 0 0 0 0 0 0 0 0 0 0 0 0 0 0 0 0 30 260 305 179 113 138 183 164 561 412 838 1948 2719 1250 72 0 0 0 0 0 0
3 3 4 2 0 0 0 0 0 0 0 0 0 0 0 0 0 0 0 0 0 0 0 0 0 135 1 127 287 193 79 279 186 115 220 1357 816 26 0 0 0 0 0 0
2 2 4 5 4 1 0 0 0 0 0 0 0 0 0 0 0 0 0 0 0 0 0 0 0 0 0 0 5 203 9 104 90 75 84 199 214 83 0 0 0 0 0 0
0 8 3 6 9 8 10 6 5 3 0 0 0 0 0 0 0 0 0 0 0 0 0 0 0 0 0 0 0 17 0 0 0 0 0 0 0 0 0 0 0 1 1 0
2 8 1 2 8 11 10 10 5 4 5 5 1 0 0 0 1 0 0 0 0 0 0 0 0 0 0 0 0 0 0 0 0 0 0 0 0 0 1 1 1 1 1 1
0 0 3 0 0 3 8 12 11 7 4 3 3 4 5 4 4 3 3 1 1 1 0 0 0 0 0 0 0 0 0 0 0 0 0 0 0 0 0 0 1 0 1 1
0 0 0 0 1 0 1 4 5 7 7 7 6 4 4 4 4 3 3 2 4 2 2 1 0 0 0 0 0 0 0 0 0 0 0 0 0 0 0 0 0 0 0 0
0 0 0 0 0 0 0 0 0 3 7 6 4 4 5 4 5 3 2 1 1 2 2 5 0 0 0 0 0 0 0 0 0 0 0 0 0 0 0 1 1 0 1 1
1 0 0 0 0 0 0 0 0 0 0 2 4 3 3 2 1 1 1 2 2 3 5 6 4 7 2 0 0 0 0 1 1 0 0 1 1 1 1 1 1 1 1 1
2 0 0 0 0 0 0 0 0 0 0 0 0 0 2 2 0 1 2 5 2 3 3 5 6 5 4 1 0 1 1 2 1 1 1 0 1 0 0 0 0 0 0 0
0 0 0 0 0 0 0 0 0 0 0 0 0 0 0 0 0 0 7 3 0 5 5 2 2 2 2 3 2 1 2 1 1 3 5 0 0 0 0 0 0 0 0 0
0 0 0 0 0 0 0 0 0 0 0 0 0 0 0 0 0 0 0 3 12 11 7 5 3 2 0 0 2 1 2 1 1 0 0 0 0 0 0 0 0 0 0 0
0 0 0 0 0 0 0 0 0 0 0 0 0 0 0 0 0 0 0 0 0 0 2 3 2 2 1 0 0 0 0 0 0 0 0 0 0 0 0 0 0 0 0 0
0 0 0 0 0 0 0 0 0 0 0 0 0 0 0 0 0 0 0 0 0 0 0 0 0 0 0 0 0 0 0 0 0 0 0 0 0 0 0 0 0 0 0 0

GFSNGP_con_sbcape_048.txt.gz
CAPE
0 0 0 0 0 0 0 0 0 0 0 0 0 0 0 0 0 0 0 0 7 67 90 120 275 193 426 422 348 282 285 506 556 515 491 518 687 973 957 370 301 453 443 486
0 0 0 0 0 0 0 0 0 0 0 0 0 0 27 20 13 0 0 0 0 22 118 175 285 296 380 535 513 395 338 428 621 670 636 565 459 470 923 1137 878 724 624 702
0 0 0 0 0 0 0 0 0 0 0 0 12 8 0 0 0 1 74 0 0 0 107 212 295 321 328 536 645 595 509 504 605 797 932 918 850 679 568 710 1144 1144 993 923
0 0 0 0 0 0 0 0 0 0 0 41 69 0 0 0 0 0 250 70 0 52 196 234 312 308 303 513 807 783 704 779 864 949 1097 1169 1212 1185 1062 831 812 1227 1332 1122
0 0 0 0 0 0 0 0 0 0 0 0 0 0 2 0 0 0 95 651 0 72 142 225 319 300 357 658 832 1061 1050 1092 1158 1208 1205 1307 1461 1521 1490 1376 1196 1075 1213 1500
12 0 15 0 0 0 0 0 0 0 0 0 3 3 0 0 0 0 37 763 291 186 162 186 240 251 446 719 954 1334 1390 1449 1530 1555 1522 1471 1489 1630 1781 1839 1735 1615 1578 1481
2 6 13 1 0 0 0 0 0 0 0 0 0 0 0 0 0 0 2 355 1055 188 270 330 310 316 536 690 930 1128 1380 1598 1707 1785 1809 1814 1788 1788 1859 1983 2098 2157 2135 2046
10 18 33 0 0 0 0 0 0 0 0 0 0 0 0 0 0 0 0 30 315 1292 1245 420 294 502 600 702 742 814 1088 1412 1684 1793 1976 2028 2093 2225 2227 2163 2204 2257 2281 2351
9 12 7 0 4 0 0 0 0 0 0 0 0 0 0 0 0 0 0 0 19 380 776 781 1164 1601 1761 1744 1465 1152 945 1122 1344 1779 1969 2224 2292 2265 2338 2351 2365 2385 2428 2473
4 5 2 9 0 0 0 0 0 0 0 0 0 0 0 0 0 0 0 0 0 9 182 403 329 522 704 1050 1727 1619 1608 1405 1237 1285 1613 2117 2342 2419 2435 2498 2545 2573 2551 2567
4 7 3 5 0 0 1 0 0 0 0 0 0 0 0 0 0 0 0 0 0 0 34 188 279 468 857 1122 1207 1383 1505 1823 1939 1910 1483 1759 1343 1377 2435 2575 2187 2610 2668 2729
10 12 17 4 1 2 3 0 0 0 0 0 0 0 0 0 0 0 0 0 0 0 0 126 239 342 536 791 857 913 1054 1066 888 2060 1589 1962 62 0 0 1 2 2 336 2629
20 4 11 3 0 0 2 0 0 0 0 0 0 0 0 0 0 0 0 0 0 0 0 0 111 130 32 21 182 297 302 429 615 423 2271 1264 518 373 22 0 0 2 3 34
3 3 6 6 6 3 0 0 0 0 0 0 0 0 0 0 0 0 0 0 0 0 0 0 0 14 0 0 39 3 112 174 299 460 1073 2141 873 587 3 36 142 0 0 0
1 6 3 3 1 2 0 0 0 0 0 0 0 0 0 0 0 0 0 0 0 0 0 0 0 0 0 0 0 28 30 331 230 207 313 1877 638 25 1 0 0 0 1 0
12 3 9 1 4 5 4 4 5 0 0 0 0 0 0 0 0 0 0 0 0 0 0 0 0 0 0 0 0 0 25 0 61 130 292 554 316 33 0 0 1 0 0 0
0 5 8 12 6 4 9 7 6 7 5 5 2 2 4 1 0 0 1 0 0 0 0 0 1 1 0 0 0 0 2 0 0 0 1 2 0 0 1 1 3 1 1 0
1 4 8 5 9 4 3 7 6 5 5 6 5 3 2 2 7 4 3 2 0 0 0 1 1 2 1 0 0 0 0 0 0 0 0 0 1 0 0 2 2 1 1 0
0 0 0 0 0 10 4 5 6 6 5 4 3 4 4 4 3 4 5 3 3 2 1 1 2 2 1 0 2 0 0 0 0 1 1 0 1 1 1 1 1 1 0 0
0 0 0 0 0 0 4 3 5 5 6 3 3 2 3 3 5 2 2 6 3 3 4 5 7 2 1 0 1 0 0 0 0 2 1 1 0 1 0 0 0 0 0 0
0 0 0 0 0 0 0 0 0 2 1 4 2 2 3 1 3 8 3 3 3 7 9 8 8 6 2 3 0 0 0 1 1 2 1 1 1 0 0 0 0 0 0 1
0 0 0 0 0 0 0 0 0 0 0 0 0 2 0 1 2 2 1 2 4 10 9 7 5 13 6 1 2 1 1 0 1 1 1 1 1 1 1 1 1 1 1 1
0 0 0 0 0 0 0 0 0 0 0 0 0 0 0 3 3 0 2 1 0 5 6 9 11 10 8 3 4 2 1 2 1 1 1 1 1 0 0 0 0 0 0 0
0 0 0 0 0 0 0 0 0 0 0 0 0 0 0 1 12 17 13 9 0 0 2 10 7 8 5 6 5 5 3 3 3 3 3 1 1 0 0 0 0 0 0 0
0 0 0 0 0 0 0 0 0 0 0 0 0 0 0 0 0 0 1 9 19 4 0 2 6 3 1 2 4 5 5 4 3 2 2 0 0 0 0 0 0 0 0 0
0 0 0 0 0 0 0 0 0 0 0 0 0 0 0 0 0 0 0 0 5 6 11 9 5 2 1 2 1 1 3 5 3 2 2 3 2 0 0 0 0 0 0 0
0 0 0 0 0 0 0 0 0 0 0 0 0 0 0 0 0 0 0 0 0 0 0 1 23 15 8 0 1 1 1 1 0 3 4 1 0 0 0 0 0 0 0 0

GFSNGP_con_sbcape_051.txt.gz
CAPE
0 0 0 0 0 0 0 0 0 0 0 0 0 0 0 0 0 5 1 0 166 517 936 1083 1471 1472 1483 1462 1346 1070 1240 1224 1322 1465 1533 1624 1760 1860 1745 1853 1860 1913 1686 1698
0 0 0 0 0 0 0 0 0 0 0 0 0 6 0 76 97 148 202 233 79 5 670 899 1136 1421 1374 1516 1476 1412 1440 1451 1579 1708 1748 1815 1917 2037 2122 1916 1880 2212 2004 1807
0 1 1 0 0 0 0 0 0 0 0 0 1 203 2 0 0 0 63 136 483 313 3 908 823 1364 1328 1523 1584 1593 1607 1712 1926 1965 1944 1981 2063 2225 2349 2318 1986 2177 1857 1859
1 1 16 13 0 0 0 0 0 0 0 0 67 211 19 0 0 0 1 22 292 693 48 242 540 733 1249 1394 1726 1708 1748 1828 2053 2135 2092 2142 2158 2215 2351 2201 2504 2314 2099 2301
20 51 7 75 0 0 0 0 0 0 0 0 0 336 312 0 0 0 0 3 530 967 215 418 1039 1321 1483 1695 1793 1788 1837 1917 2009 2154 2224 2304 2311 2302 2160 1958 1984 2247 2243 2354
25 41 149 10 2 0 1 0 0 0 0 0 138 613 0 0 0 0 1 146 954 624 253 803 1388 1362 1505 1460 1855 1934 1967 2040 2061 2124 2293 2457 2539 2643 2674 2358 2247 1798 1894 2485
41 43 14 5 4 0 6 0 0 0 0 0 0 0 0 0 0 0 113 257 1305 839 1146 1556 1574 1313 1773 1813 2119 1873 1802 1782 2126 2425 2515 2649 2875 3017 2688 2599 2724 2538 2430 2746
36 38 20 7 0 1 3 0 0 0 0 0 0 0 0 0 0 0 7 331 875 1305 920 1142 1472 1737 2030 2160 2377 2584 2672 2625 2825 2869 2278 2219 3045 2884 2766 3030 2989 3026 2914 2802
41 29 9 31 11 5 19 6 0 0 0 0 0 0 0 0 0 0 0 173 743 1247 1429 1694 1360 1469 1692 1918 2180 2566 2985 3177 3008 2944 2842 3300 3003 3052 2689 3046 2767 2879 2899 2931
11 11 19 5 7 16 1 15 1 0 0 0 0 0 0 0 0 0 0 40 737 1236 1389 1571 1958 2198 2478 2530 2124 2157 2521 2855 2945 2868 2970 3134 2812 2861 2879 2933 2945 2940 3064 3096
12 7 15 14 33 18 7 9 5 0 0 0 0 0 0 0 0 0 0 0 210 647 985 1132 1390 1530 1500 1944 2750 2460 2246 2161 2354 2406 2478 2872 3045 2564 2941 3404 2738 3146 3216 3287
31 15 26 16 20 13 9 10 9 1 0 0 0 0 0 0 0 0 0 0 0 0 190 797 878 639 657 784 990 1729 2285 2575 2463 2253 1674 2201 2884 941 0 0 2 3 434 2354
38 22 26 13 10 5 8 8 11 6 0 0 0 0 0 0 0 0 0 0 0 0 0 0 280 101 1 19 675 912 841 1236 1205 2515 3559 2880 2923 2178 1923 0 1 2 2 10
23 20 11 13 12 3 4 1 5 6 4 1 1 0 0 0 0 0 0 0 0 0 0 0 0 0 0 0 17 577 892 263 1226 1569 2413 2727 2299 2186 2435 2244 1999 542 0 0
16 15 14 11 8 4 2 2 3 5 3 8 2 4 0 0 0 7 2 0 0 0 0 0 0 0 0 0 0 38 789 899 1388 1796 1689 2315 1876 1333 1657 1995 2104 1 0 0
2 5 7 20 9 11 6 6 6 5 4 8 10 11 14 18 7 2 1 0 4 7 2 1 0 1 2 0 0 0 500 281 227 1576 1456 1366 848 703 1193 1506 933 674 436 14
1 5 5 11 6 14 14 10 9 9 5 6 8 7 6 5 1 2 3 2 0 2 5 6 4 2 3 0 0 0 19 786 0 1122 1329 861 356 167 385 613 449 248 67 0
1 1 1 3 9 10 11 13 9 9 10 8 7 8 10 7 11 11 8 4 3 2 7 9 8 4 1 0 0 0 0 298 715 840 894 463 216 1 1 1 4 5 4 1
0 0 0 0 1 7 11 10 9 7 11 6 4 7 9 12 9 7 10 9 8 10 9 7 7 4 1 0 3 3 0 278 483 539 472 12 44 1 1 2 3 2 1 0
2 0 0 0 0 0 3 4 9 8 7 6 6 3 5 11 9 7 12 10 15 16 17 7 4 5 5 1 1 3 4 115 328 238 5 15 3 3 1 0 0 0 0 0
20 7 11 16 19 16 8 0 2 7 12 4 6 6 6 5 4 7 6 5 10 11 17 12 14 6 4 4 3 13 3 2 5 5 6 2 2 1 0 0 0 0 0 1
81 53 18 18 25 34 47 58 9 0 1 5 2 3 0 1 2 6 13 15 7 5 16 17 13 14 10 6 3 3 1 1 1 1 2 2 1 1 1 0 1 0 1 1
65 110 89 69 60 59 44 41 35 39 15 5 6 12 13 18 22 14 16 13 4 3 7 16 17 14 9 7 7 4 5 3 4 3 3 2 2 2 3 2 1 2 0 1
64 92 90 93 85 41 3 5 7 12 8 6 1 0 0 0 21 30 45 27 9 6 10 11 15 19 11 8 8 7 6 6 6 5 5 2 4 3 2 1 0 0 0 0
27 27 40 45 1 0 0 0 0 0 0 0 0 0 0 0 2 9 39 45 25 17 7 5 10 8 5 8 12 10 8 7 8 7 6 5 4 5 3 2 1 0 0 0
0 0 7 0 0 0 0 0 0 0 0 0 0 0 3 1 1 6 25 27 37 19 25 9 2 8 8 8 8 6 8 9 10 9 6 5 5 3 2 1 0 0 0 0
0 0 0 0 0 0 0 0 0 0 0 0 6 13 12 18 9 3 2 23 29 32 21 17 18 16 11 10 12 14 14 13 4 12 13 13 18 10 2 0 0 0 1 1

GFSNGP_con_sbcape_054.txt.gz
CAPE
0 0 0 0 0 0 0 1 16 29 55 58 0 0 0 0 0 0 0 0 33 247 713 1587 1819 2328 2183 1470 1650 1424 2007 1303 1918 2499 2357 2522 2832 2882 2522 2678 2403 2339 2330 2297
0 0 0 0 0 0 0 0 0 0 0 49 0 0 0 0 9 56 35 126 72 38 512 945 1337 2046 2346 2486 2094 1913 2480 2211 2497 3033 2958 3031 3195 3335 3357 2964 2859 2836 2331 2397
11 0 0 0 0 0 0 0 0 0 0 24 0 0 219 175 157 146 136 242 343 526 361 221 1049 1546 1992 2805 2228 2427 2809 2718 2937 3208 3248 3326 3356 3522 3447 3442 3020 3289 2516 2573
22 18 3 0 0 4 2 0 0 0 0 42 0 86 537 75 45 110 67 72 346 609 768 1072 249 743 1511 1902 2900 2961 3160 3001 3131 3359 3374 3521 3561 3626 3740 3143 3331 3155 2852 3299
71 53 7 26 204 125 158 92 59 12 0 0 0 311 931 0 0 59 53 103 263 525 917 1251 1373 461 1208 1656 2416 2828 3176 3210 3310 3397 3423 3277 3350 3426 3186 3262 3093 3081 2910 3235
122 50 59 51 1 9 10 146 1 0 0 0 19 183 184 0 0 61 118 344 548 1007 1426 1491 1592 379 772 1518 1976 2939 3039 3133 3308 3343 3499 3483 3479 3748 3763 3138 3210 2819 2876 3260
172 79 41 1 0 3 147 82 0 0 1 1 175 0 0 0 0 0 10 467 1167 1832 1733 1365 1150 419 1883 2113 2437 2639 2292 2351 2985 3432 3705 3670 3983 3942 3829 3220 3314 3397 3102 3539
151 76 75 3 0 32 14 17 6 8 5 0 0 0 0 0 0 0 0 848 1662 1681 1485 970 1069 1292 2620 2924 2327 2708 2867 2823 3442 3586 2796 2714 4029 3548 3412 3586 3676 3872 3580 3206
104 68 15 14 12 17 38 31 30 8 5 0 0 0 0 0 0 0 1 87 1399 1765 1715 1476 1453 1650 2000 3232 2931 3068 3171 3473 2887 2912 2864 3698 3727 3437 3262 3497 3266 3189 3171 3116
31 43 17 24 27 35 36 38 33 5 2 2 0 0 0 0 0 0 0 0 25 1306 1632 2157 2468 2098 2214 2508 2594 2775 2905 3008 3071 3149 3081 2913 3033 3190 3109 3102 3157 3055 3163 3149
14 17 7 21 23 22 29 30 17 7 1 1 1 0 0 0 0 0 0 0 0 0 635 767 1058 1392 1565 2421 2616 2750 2934 3012 3213 3234 3162 3345 3454 2622 3242 3627 1721 3294 3203 3361
29 15 29 20 38 17 17 27 24 14 5 1 2 1 0 0 0 1 6 0 0 0 0 51 83 380 804 1609 1984 2945 2673 2684 2762 2834 3128 3204 3381 2501 0 1 3 71 53 1253
30 21 29 25 27 16 8 23 20 14 20 4 4 3 0 0 0 10 5 5 16 10 0 9 14 14 102 568 1497 1919 2345 3043 3058 2539 2824 3095 2837 2927 1970 81 2 3 3 24
25 14 25 22 25 20 10 10 8 4 3 14 11 5 0 0 7 15 5 4 6 3 1 3 2 3 3 91 690 1543 1436 846 2469 2130 1427 1191 1246 1042 890 1255 3023 3042 120 0
19 18 19 16 22 17 12 11 7 6 5 8 4 21 16 17 11 6 2 1 0 0 2 0 1 6 4 0 89 875 1227 1362 1899 1708 1423 1769 2480 2199 1392 2514 3271 3206 908 0
19 13 9 7 16 14 17 18 16 14 7 7 8 8 10 18 22 16 6 5 3 4 4 4 1 2 2 0 0 195 623 293 624 1890 1914 2073 2182 2250 2693 3483 3493 2813 2057 1131
16 15 11 13 7 9 13 13 16 17 15 13 12 14 16 12 15 16 14 11 7 15 15 4 5 2 1 0 0 0 80 507 265 1258 1719 1583 1383 1171 1480 2319 3140 2917 2157 35
35 26 22 24 13 6 11 11 7 9 13 11 12 14 9 11 12 15 18 14 14 6 7 11 7 3 0 0 0 0 0 66 565 873 1252 1220 957 538 454 1386 690 2 1 0
43 37 35 26 39 41 29 19 5 3 7 8 7 7 6 7 7 11 16 12 12 9 14 14 8 4 1 0 0 0 0 0 76 490 1050 292 799 600 361 260 358 126 52 41
64 52 42 51 42 45 49 37 27 6 1 4 6 5 7 9 9 8 12 17 15 26 17 15 13 6 5 1 0 0 0 4 153 329 339 513 613 391 147 1 2 1 1 0
47 71 47 33 40 40 38 50 38 26 33 15 9 7 3 3 4 7 12 13 20 21 22 15 17 10 14 12 2 3 1 11 8 4 4 3 3 3 4 2 2 3 1 0
25 35 47 28 23 23 23 22 32 43 35 13 16 24 21 20 24 33 22 17 18 14 27 23 21 17 12 7 6 4 2 1 1 1 1 0 0 1 1 1 1 1 1 2
38 34 21 23 22 23 8 7 14 19 25 32 35 36 36 33 33 28 11 14 18 16 26 33 21 16 12 9 9 7 8 7 8 4 4 4 4 3 2 2 1 1 0 0
56 66 58 30 16 7 6 9 6 10 16 19 27 28 24 6 21 9 34 0 5 13 27 34 18 17 12 15 12 10 12 12 13 16 10 3 6 5 5 3 4 2 0 0
57 57 78 39 22 15 5 3 10 15 18 19 19 31 35 47 37 29 25 20 4 8 19 14 14 11 9 9 10 11 9 9 14 12 13 18 12 6 6 6 3 1 0 0
59 60 72 28 16 15 16 23 24 15 26 27 30 34 34 33 29 21 33 21 23 10 16 18 9 8 8 7 9 9 11 12 7 7 11 11 10 10 8 5 5 4 3 2
38 5 52 41 39 30 18 7 39 34 21 38 32 43 43 30 21 26 5 23 17 18 20 11 16 22 30 29 29 21 13 11 3 12 15 13 11 10 12 11 10 5 2 5

GFSNGP_con_sbcape_057.txt.gz
CAPE
0 0 0 0 0 15 95 89 86 40 47 82 76 30 52 0 0 0 18 75 229 286 1409 2517 2394 2865 2606 1828 2042 1629 1932 1835 2149 2670 2840 3074 2873 3348 3317 3566 3654 3841 3954 3817
19 3 0 0 0 0 0 0 0 0 0 8 2 112 104 17 26 22 0 0 0 187 499 896 1539 2831 2983 2661 2455 2083 2424 2123 2277 2927 3115 3084 3043 3317 3600 3703 3842 3976 3885 3911
73 24 3 0 0 0 0 0 0 0 0 0 0 4 93 139 167 135 144 104 144 190 122 382 933 1810 2494 3013 2566 2773 2865 2842 2791 3099 3214 3232 3276 3531 3730 3837 3964 4176 4061 3980
159 60 42 3 0 0 0 0 0 0 0 0 0 4 39 807 433 327 318 316 388 476 507 541 503 900 1398 2121 3235 3147 3121 3526 3074 3532 3438 3563 3711 3764 3952 3985 4002 4124 4168 4208
216 130 60 18 82 142 13 0 38 31 0 0 0 1 11 90 444 562 602 657 638 599 584 793 974 779 870 1833 3317 3256 3697 3393 3606 3494 3839 3903 3903 3970 4098 4127 4138 4095 4170 4312
234 142 92 42 162 12 39 52 129 256 16 13 24 84 41 228 122 195 338 660 931 1036 1060 1186 1366 1367 1309 946 2392 3500 3627 3525 3828 3732 4025 4052 4123 4240 4279 4208 4179 3612 3926 4310
278 223 120 318 86 0 83 51 1 69 116 158 189 358 151 0 0 0 34 470 747 1614 1727 1897 2086 1774 2103 1525 2155 3165 3509 3738 4120 4036 4173 4293 4450 4439 4451 4387 3724 4296 4167 4267
356 220 149 278 91 7 1 0 0 10 5 12 24 0 0 0 0 0 0 0 50 1763 2356 2247 2208 2309 3111 2770 2327 3459 3695 3892 4138 4295 3696 3648 4488 4483 4478 4474 4495 4703 4540 4367
227 210 385 121 34 53 2 1 11 33 7 12 9 5 0 0 1 0 0 0 0 696 2975 2903 2223 1840 2996 2749 3727 3917 4059 4115 4171 4252 4226 4238 4424 4590 4076 4442 3503 3546 3409 3165
80 87 14 7 9 4 0 2 9 41 22 14 17 14 0 0 0 5 1 2 3 31 579 1786 2017 2537 2980 3024 3833 4185 4219 4253 4288 4192 4197 4189 3790 3755 3442 3258 3264 3111 3051 2922
27 17 5 8 23 28 23 25 63 44 11 5 6 23 2 0 0 27 23 9 13 5 7 8 33 284 753 1994 3693 3207 3992 3807 3934 3504 3436 3948 3774 3369 3344 3638 2491 3200 2716 2450
35 15 20 18 25 29 28 62 38 34 23 7 6 11 4 0 0 73 26 32 15 7 3 3 1 0 0 88 2090 3306 3222 3394 3136 3077 3471 3469 3429 2267 0 297 316 480 125 1215
31 21 18 30 33 31 33 60 31 3 4 18 8 10 0 0 73 61 55 20 48 29 13 16 10 5 0 0 75 2755 3351 3409 3407 2825 3433 3890 3759 3110 2707 109 1 2 2 442
13 5 15 23 27 22 32 44 26 5 3 6 3 14 13 34 23 10 6 28 57 35 1 8 5 2 1 0 0 833 2397 1899 3512 3247 3190 3551 3523 3451 3191 2826 2261 2634 14 96
24 16 20 27 21 26 22 25 26 12 6 7 3 3 2 24 30 34 16 12 27 15 6 6 8 5 3 0 0 216 593 1266 1655 2659 2812 2319 2229 1663 1140 1098 1461 1360 791 25
36 22 16 15 23 21 24 17 19 19 11 10 10 7 5 6 6 16 13 13 10 15 13 10 12 8 8 0 0 2 385 219 627 1856 1280 1418 1222 1374 1013 1059 836 29 46 1319
29 36 24 25 15 20 18 19 20 18 13 11 15 11 6 9 10 8 11 9 10 10 10 14 8 4 3 3 0 0 0 699 308 1610 2082 1310 1595 1137 1429 1958 2252 2611 2285 84
19 24 30 39 43 26 24 8 3 8 15 14 10 11 13 12 12 19 10 12 9 10 10 10 3 1 3 4 0 0 0 0 187 1295 1235 1644 1696 1638 1930 2237 2299 1502 584 22
13 19 19 15 20 29 37 34 0 0 1 12 13 11 6 6 9 17 30 14 13 13 11 14 9 3 0 1 0 0 0 0 0 629 986 531 1014 1006 975 1050 1287 1135 611 307
40 15 19 21 14 20 31 24 11 11 1 20 29 32 32 32 32 22 10 21 20 26 15 10 11 11 10 3 0 0 0 0 6 288 467 277 67 310 177 0 4 25 33 241
44 32 6 24 23 29 21 19 26 18 14 5 20 21 19 28 31 27 10 13 14 17 10 12 17 12 8 3 1 0 0 14 0 0 0 7 4 0 0 0 2 0 0 0
51 49 17 6 30 20 25 25 29 37 26 18 15 26 26 36 38 22 12 17 27 16 12 19 17 20 17 7 4 3 2 2 1 0 1 0 0 0 0 0 0 0 0 1
71 71 45 21 26 33 32 32 30 37 39 43 32 32 24 29 18 31 15 18 23 23 23 28 22 17 14 6 6 6 6 7 7 6 5 4 5 4 3 1 1 0 0 0
43 83 67 65 28 37 44 41 26 33 31 30 40 53 33 20 33 22 4 1 4 9 27 22 16 12 9 12 9 7 7 7 8 9 9 3 5 5 5 5 4 2 0 0
134 87 80 55 51 32 34 29 30 35 37 32 37 39 40 34 44 40 31 5 0 1 9 5 11 18 13 13 14 18 17 11 7 6 7 8 7 7 8 8 10 8 3 1
159 103 48 42 24 32 44 35 32 36 38 49 40 47 31 41 49 39 35 39 35 4 34 30 24 15 16 16 17 13 5 9 18 15 11 10 7 7 8 8 7 5 6 10
127 8 115 64 31 32 19 2 41 35 13 21 46 68 37 52 46 33 7 33 20 20 17 9 12 3 5 7 12 21 16 0 0 3 14 16 14 16 17 10 7 5 4 7

GFSNGP_con_sbcape_060.txt.gz
CAPE
0 0 0 0 0 0 0 0 22 0 0 0 63 95 60 112 116 49 36 280 167 672 924 1490 1742 1770 1707 1612 1395 1413 1591 1783 2111 2264 2075 2108 1857 1966 1281 2039 2489 2755 2854 3078
9 1 0 0 0 0 0 0 0 13 0 0 0 41 12 61 165 466 198 74 231 373 909 1048 2040 2178 2054 1867 1791 1665 1669 1763 1937 2275 2242 2317 1987 2223 2267 2157 2438 2815 2966 3054
31 41 16 4 0 0 0 0 0 0 0 0 0 0 46 87 108 364 875 506 732 756 819 268 31 678 2489 2407 2075 2047 2094 1962 2022 2384 2457 2291 2524 2126 2735 2436 2731 2795 2941 3109
100 64 53 1 0 0 0 0 0 0 0 0 0 0 0 0 131 121 575 772 703 346 537 468 13 211 2569 2693 2765 2748 2262 2513 2305 2277 2391 2554 2496 2715 2457 2852 2717 2958 3006 3074
79 92 13 2 25 98 135 1 0 22 3 0 0 0 0 231 394 187 1 20 615 525 635 1241 1337 1422 1895 2837 2742 2474 3015 2458 2803 2248 2564 2558 2653 2583 2704 2742 2945 2952 3081 3206
177 71 39 1 93 36 26 21 87 0 0 0 8 35 45 80 19 1 9 2 340 639 764 1192 1393 1379 1390 1603 3295 2706 2424 3063 2681 2724 2625 2773 2722 2769 2829 2910 2938 3050 3044 3185
214 173 90 213 129 55 47 6 15 0 0 0 2 47 38 60 0 0 0 5 12 90 619 1359 2415 2006 1698 1725 1802 3350 2836 2560 3400 3444 2813 3201 3127 3108 3190 3234 3200 3356 3338 3358
266 152 74 291 131 101 133 21 12 0 0 0 0 3 2 0 0 0 1 0 3 10 428 2317 3124 2947 2350 2368 2104 2717 3600 3117 3451 3384 3382 3176 3669 3645 3527 3513 3571 3596 3603 3695
26 117 312 127 60 33 7 11 0 0 0 0 0 10 8 5 3 2 6 2 5 6 7 51 422 1832 3400 3328 3177 2810 4018 3528 3675 3860 3759 3404 3807 3770 3849 3849 3714 3613 3655 3643
3 81 10 4 10 10 7 12 8 3 0 0 2 8 6 13 0 0 15 13 1 4 1 4 4 24 721 1234 3369 3692 2828 3991 3842 4015 3851 3597 3789 3814 3898 3873 3851 3743 3421 3789
19 13 3 9 8 10 15 6 1 0 0 6 19 6 9 1 1 0 22 17 25 15 4 2 7 12 4 81 751 3368 3972 4013 3951 3905 3428 3811 3461 3816 3803 3729 3635 3624 3593 3280
40 17 19 7 17 15 6 4 0 33 13 27 23 2 10 0 0 34 16 10 30 2 0 2 8 7 7 5 5 1094 4200 4065 3784 3719 3685 3739 3352 1797 0 1319 983 2392 1851 3042
12 15 30 33 17 21 24 34 41 14 11 32 19 11 16 12 21 15 0 0 5 22 0 11 12 5 8 5 2 7 1250 3967 3492 2993 3287 3445 3380 2909 2103 60 1 2 273 1128
8 0 5 23 22 34 34 29 42 26 11 8 3 0 1 12 42 6 2 10 4 20 2 4 13 5 2 6 2 2 182 638 3045 3028 2681 3078 3404 3217 2735 2372 2039 810 2 0
12 11 0 8 14 20 30 24 30 18 11 8 11 4 2 9 4 7 2 4 16 0 1 7 6 1 1 4 5 13 1 1 243 1035 947 1441 3153 3301 3016 3038 3033 2902 756 35
18 25 24 18 21 3 12 18 20 21 23 19 11 12 7 10 4 3 0 1 15 13 7 5 3 1 0 7 4 8 0 0 0 530 1031 273 1284 668 1433 1980 2916 2151 1880 1221
11 22 6 22 55 9 0 13 31 34 35 34 21 15 15 8 14 9 15 3 19 26 24 14 6 0 0 0 0 0 0 0 0 61 514 563 877 992 586 1002 803 610 727 37
3 38 3 11 27 43 3 0 0 13 17 18 31 25 5 2 12 13 10 7 2 3 12 12 11 0 0 0 2 0 0 0 3 809 579 1118 1173 1579 1883 1408 1043 444 52 6
23 10 10 24 13 30 70 24 5 14 12 24 33 17 37 37 17 17 14 10 10 8 8 15 12 2 1 0 0 0 0 0 36 0 161 188 134 2 2 0 21 171 165 498
65 51 50 24 20 34 32 58 40 44 28 34 28 27 34 33 14 9 16 13 14 12 11 12 6 5 4 3 0 0 0 2 0 0 0 0 10 4 0 0 0 0 0 0
46 70 69 67 34 22 32 78 43 38 38 32 41 57 32 41 6 2 6 13 17 21 9 13 13 7 6 5 1 0 0 0 2 3 0 0 0 0 0 5 9 13 9 2
76 43 38 57 42 43 26 30 29 78 42 34 44 75 61 14 1 4 7 9 18 13 14 16 13 18 11 5 2 2 2 2 2 2 1 3 2 0 0 0 0 0 1 5
126 125 44 61 42 46 43 31 19 17 37 51 50 52 19 6 9 4 4 5 5 10 9 10 10 11 8 3 3 3 3 4 4 3 2 1 2 2 2 2 0 0 0 0
187 130 162 37 41 52 48 56 38 34 123 180 65 89 37 37 2 1 0 0 0 0 6 6 3 4 0 2 3 4 4 5 3 4 5 2 2 1 1 1 1 1 0 0
68 134 122 100 56 95 57 47 55 107 54 174 21 59 32 16 5 9 12 0 0 4 7 2 2 0 1 0 0 3 5 3 3 4 5 6 7 7 4 3 3 2 1 0
233 115 129 100 27 27 32 19 46 14 24 66 46 47 43 18 34 44 56 26 13 4 10 6 17 9 5 2 0 0 0 0 2 7 4 6 5 5 6 6 4 5 3 2
321 36 140 73 38 32 2 8 41 41 10 37 57 48 61 33 19 17 11 17 7 9 8 9 8 3 6 3 14 8 0 0 0 0 7 13 12 8 6 4 0 2 5 6

GFSNGP_con_sbcape_063.txt.gz
CAPE
0 0 0 0 0 0 0 0 0 0 0 0 0 0 0 4 260 375 432 497 231 140 22 255 99 390 531 573 518 826 1503 1564 1451 1271 1080 1015 478 360 0 969 751 1744 1380 2134
0 0 0 0 0 0 0 0 0 0 0 0 0 0 0 0 48 221 269 83 124 63 0 261 73 10 484 630 733 654 1155 1583 1559 1402 1335 1237 1091 894 349 165 1303 829 1384 1613
0 0 3 0 0 0 0 0 0 0 0 0 0 0 0 229 272 231 68 0 0 39 10 8 67 334 128 431 726 883 886 1386 1464 1435 1461 1351 1270 1101 1119 354 718 1523 1344 1510
0 3 8 0 0 0 0 0 0 0 0 0 0 0 0 0 0 12 40 0 3 0 0 1 0 69 101 46 211 476 913 973 1375 1502 1455 1510 1396 1293 1121 1146 633 733 1365 1732
7 1 0 0 0 11 0 0 0 0 0 0 0 0 0 0 0 0 0 0 0 0 0 0 31 6 55 251 258 264 965 1225 1377 1411 1609 1662 1396 1474 1190 1451 1414 1152 1499 1719
11 9 0 5 79 0 0 0 0 0 0 0 0 0 0 0 0 0 0 0 0 0 0 0 42 198 355 179 342 437 1361 1578 1502 1433 1591 1656 1698 1414 1639 1250 1398 1742 1515 1856
25 9 0 55 151 9 10 0 0 0 0 0 0 0 0 0 0 0 0 0 0 0 0 3 65 34 1515 671 836 908 1842 1979 1808 1656 1502 1738 1722 1800 1599 1762 1668 1646 1930 1866
17 0 6 0 117 55 0 0 0 0 0 0 0 0 0 0 0 0 0 0 0 0 0 0 0 3 9 472 435 1167 1605 2029 2234 2195 1646 1857 1859 1863 1873 1789 1872 1839 1896 2067
14 4 0 0 0 0 0 0 0 0 0 0 0 0 0 0 0 0 0 0 0 0 0 0 0 0 3 2 1 29 1252 2496 1949 2403 2255 1901 2181 2034 2060 2044 2048 2063 2098 2138
0 5 0 0 0 0 1 4 0 0 0 0 0 0 0 2 2 0 0 0 0 0 0 0 0 0 1 0 1 1 441 2099 2711 2491 2638 2197 2594 2275 2297 2268 2351 2258 2352 2364
2 8 0 1 0 12 15 10 0 2 0 6 5 1 0 4 13 21 0 2 0 10 1 0 0 0 0 1 3 1 7 2052 2748 2603 2406 2721 2476 2828 2615 2606 2542 2530 2498 2493
3 0 13 7 8 25 23 12 12 14 23 9 4 1 9 23 15 23 39 3 0 2 0 0 0 0 0 0 3 3 2 902 2719 2817 2841 2812 2611 707 1 678 2324 2583 2620 2780
0 0 2 2 3 8 13 24 17 26 27 20 1 16 41 33 12 62 40 1 1 5 1 1 1 0 0 2 4 3 3 4 68 2719 3045 2929 2843 2508 1618 54 1 2 40 2451
0 1 5 0 0 6 11 17 22 27 18 27 2 11 5 4 23 5 2 5 6 5 1 1 0 1 0 0 5 2 1 1 1 236 2295 2816 2932 2805 2172 1377 1084 131 1 0
0 0 0 0 9 4 3 12 15 16 24 20 4 15 9 4 4 5 0 0 3 1 2 1 3 0 1 0 2 2 3 2 1 3 861 1436 2442 2579 2120 1334 1330 353 1 1
0 1 0 14 10 0 1 0 4 21 23 33 27 8 7 14 11 6 3 1 4 5 6 3 2 0 1 0 7 1 3 1 0 0 152 652 1424 1694 1897 1825 1741 489 179 37
0 0 0 0 4 0 0 0 0 8 20 27 29 23 16 7 12 6 5 4 5 0 7 7 5 4 1 6 1 3 2 4 0 0 1 220 243 333 390 570 697 369 214 29
0 0 0 7 9 0 0 0 0 0 4 17 14 20 3 12 13 7 7 6 4 3 4 5 8 8 2 1 2 0 2 2 2 2 124 71 85 171 182 292 198 76 29 1
17 0 0 7 11 3 0 0 0 0 5 0 13 13 13 24 11 10 9 5 5 5 5 6 17 5 4 4 1 0 3 7 8 4 10 2 3 4 3 1 1 8 29 17
31 55 31 3 23 35 11 7 8 10 1 0 4 2 0 6 8 8 12 9 12 13 11 10 7 3 3 3 2 0 0 3 6 2 6 5 4 5 7 1 3 3 3 2
77 60 53 2 1 73 13 11 6 9 7 17 13 0 0 0 0 2 10 11 9 10 10 15 9 6 6 2 1 0 1 2 1 1 1 1 3 2 0 2 1 3 1 2
12 12 53 36 4 8 54 52 31 7 16 18 13 0 0 0 0 0 0 1 0 5 3 8 6 18 9 5 1 1 1 2 1 0 1 1 1 0 0 0 0 0 0 0
34 2 19 27 51 13 30 49 41 83 30 11 9 1 0 0 0 0 0 0 0 0 0 0 0 1 8 2 1 2 2 2 2 1 1 1 1 1 1 0 0 0 0 0
231 151 107 175 119 23 41 83 48 149 10 27 16 2 0 0 0 0 0 0 0 0 0 0 2 0 0 0 0 0 1 1 1 1 2 1 1 1 1 1 1 0 0 0
273 177 157 152 163 37 3 2 0 47 37 39 17 13 5 0 0 0 0 0 0 0 3 0 0 0 0 0 0 0 0 0 0 1 1 1 1 3 2 2 1 1 1 1
297 195 109 139 188 24 13 29 0 2 26 31 17 4 17 4 2 3 9 0 7 6 1 3 4 0 0 0 0 0 0 0 0 0 0 0 0 0 1 2 2 2 2 2
0 1 9 105 103 0 8 15 9 0 12 39 27 7 11 11 16 10 3 2 0 8 3 0 0 0 0 0 0 0 0 0 0 0 0 0 0 0 0 0 0 0 0 0

GFSNGP_con_sbcape_066.txt.gz
CAPE
0 0 0 0 0 0 0 0 0 0 0 0 0 43 157 134 64 68 31 12 34 115 95 70 17 0 0 75 437 660 570 657 487 687 719 280 0 15 45 167 276 243 988 1409
0 0 0 0 0 0 0 0 0 0 0 0 0 0 0 9 2 4 1 0 0 0 0 7 20 60 6 123 265 780 817 795 905 633 828 800 452 0 0 0 178 477 856 1123
0 0 0 0 0 0 0 0 0 0 0 0 0 0 0 0 0 0 10 17 9 0 0 0 0 7 61 48 159 416 1080 1117 1149 1215 1001 893 855 495 189 88 0 280 553 1095
0 0 0 0 0 0 0 0 0 0 0 0 0 0 0 0 0 0 2 2 0 2 0 0 0 39 67 281 313 291 556 1330 1536 1467 1365 1255 1004 912 634 465 82 0 549 493
0 0 0 0 0 0 0 0 0 0 0 0 0 0 0 0 0 0 0 2 3 0 0 0 3 9 374 370 23 1 107 489 992 1580 1480 1404 1303 1144 1034 920 682 154 353 1035
0 2 0 0 0 0 0 1 0 0 0 0 0 0 0 0 0 0 0 0 0 0 0 0 1 1 90 341 92 0 191 271 491 954 1390 1462 1416 1330 1223 1101 1066 867 506 447
0 0 1 0 0 5 38 0 0 0 0 0 0 0 0 0 0 0 0 0 0 0 1 0 0 0 4 6 156 66 116 456 861 962 1209 1445 1430 1426 1359 1285 1138 1154 1058 839
7 1 0 0 0 2 0 0 0 0 0 0 0 0 0 0 0 0 0 0 0 0 0 0 0 0 0 4 1 4 2 2 218 1279 1363 1356 1471 1507 1378 1345 1287 1118 1299 1392
1 9 0 0 0 0 0 0 0 0 0 0 2 0 0 0 0 0 0 0 0 0 0 0 0 0 0 0 0 3 2 0 20 688 1675 1408 1457 1519 1534 1353 1457 1490 1218 1244
0 0 0 0 0 0 0 0 0 0 0 0 0 0 1 1 0 0 0 0 0 0 0 0 0 0 0 0 0 0 1 1 1 198 1828 1769 1540 1559 1541 1643 1493 1497 1636 1564
0 0 0 0 0 0 0 0 9 5 3 4 19 0 5 0 0 0 0 0 0 0 0 0 0 0 0 0 0 1 2 2 3 340 1780 2167 1835 1806 1659 1692 1691 1641 1598 1596
0 0 0 0 0 0 4 1 6 24 16 8 26 1 4 0 2 0 0 4 0 2 0 0 0 0 0 0 0 1 5 4 7 5 142 2170 2370 1104 1 260 1318 1420 1523 1680
0 0 0 0 0 2 1 7 11 26 28 35 6 31 9 12 10 1 26 0 0 6 0 0 0 0 0 0 0 1 3 4 5 0 6 1625 2422 2280 1760 49 2 9 361 1327
0 0 0 0 0 0 0 0 11 23 11 14 8 29 41 18 6 0 0 1 1 1 0 0 0 0 0 0 0 0 3 0 4 2 0 67 2123 2665 2034 1880 1572 959 2 11
0 0 0 0 0 0 0 0 13 15 12 19 23 15 5 22 12 7 4 2 0 0 0 0 0 0 0 0 1 0 1 2 3 3 0 2 129 1645 2340 2074 1671 1882 1 1
0 0 0 0 0 0 0 0 0 5 9 13 25 16 14 32 31 9 9 5 4 4 2 0 2 1 2 2 1 1 1 0 2 2 2 2 10 835 1754 1671 1131 528 235 547
0 0 0 0 0 0 0 0 0 0 20 17 28 16 19 27 15 11 10 9 6 6 3 4 4 1 0 2 2 3 3 2 7 5 4 0 50 519 1358 1580 1329 835 169 25
0 0 0 0 0 0 0 0 0 0 11 13 15 16 26 17 17 17 13 8 7 3 2 3 5 0 0 0 3 1 2 3 7 5 11 2 1 134 467 1027 476 16 1 1
0 0 0 0 0 0 0 1 0 0 1 1 12 15 15 3 14 16 12 2 7 5 4 6 13 5 4 2 2 0 0 3 6 0 6 3 2 0 1 23 1 2 1 1
0 10 7 0 0 0 1 0 0 0 0 0 10 1 0 0 10 7 7 8 12 17 11 14 9 4 5 2 5 1 0 3 5 2 2 5 2 2 3 0 1 2 1 2
11 15 64 48 0 0 0 0 0 0 0 0 0 0 0 0 0 0 4 5 6 23 14 14 14 8 10 6 3 1 6 3 3 6 3 5 3 1 1 3 7 9 6 4
2 9 1 6 0 0 0 0 0 0 0 0 0 0 0 0 0 0 0 2 2 29 24 11 7 17 15 14 4 2 4 3 5 2 2 3 2 0 1 2 2 3 4 1
2 2 0 1 0 0 0 0 0 0 0 0 0 0 0 0 0 0 0 0 0 5 33 22 13 7 7 3 4 3 2 1 1 2 2 2 1 1 1 1 1 1 0 0
0 0 0 1 1 0 0 0 0 0 0 0 0 0 0 0 0 0 0 0 0 12 20 32 46 0 0 1 2 3 3 3 1 0 1 0 1 1 1 0 1 1 0 0
0 0 0 0 11 0 0 0 0 0 0 0 0 0 0 0 0 0 0 0 0 11 9 21 72 8 0 0 0 1 2 2 2 1 0 2 1 1 1 1 1 1 1 0
0 0 0 0 0 0 0 0 0 0 0 0 0 0 0 0 0 0 0 0 0 0 0 0 0 0 0 0 0 0 0 0 0 0 0 0 0 0 1 1 1 1 1 1
0 0 0 0 0 0 0 0 0 0 0 0 0 0 0 0 0 0 0 0 0 0 0 0 0 0 0 0 0 0 0 0 0 0 0 0 0 0 0 0 0 0 0 0

GFSNGP_con_sbcape_069.txt.gz
CAPE
0 0 0 0 0 0 0 0 0 0 0 0 0 1 3 0 0 3 5 2 3 0 0 0 1 0 0 0 65 99 37 187 265 257 112 0 0 0 0 10 7 0 237 1016
0 0 0 0 0 0 0 0 0 0 0 0 0 0 0 0 0 3 2 5 4 4 0 0 0 0 3 14 8 280 247 205 283 269 326 124 0 0 0 0 0 0 0 205
0 0 0 0 0 0 0 0 0 0 0 0 0 0 0 0 0 0 2 0 1 2 6 7 1 3 14 70 34 195 476 345 341 329 407 505 239 0 0 0 0 0 6 84
0 0 0 0 0 0 0 0 0 0 0 0 0 0 0 0 0 0 0 0 0 0 0 5 2 0 1 97 270 282 394 577 505 575 412 512 629 392 35 0 0 0 0 0
0 0 0 0 0 0 0 0 0 0 0 0 0 0 0 0 0 0 0 0 0 0 0 0 5 0 2 350 204 0 70 147 574 822 931 712 708 709 598 238 6 0 0 0
0 0 0 0 0 0 0 0 0 0 0 0 0 0 0 0 0 0 0 0 0 0 0 0 0 0 0 14 4 4 40 152 247 187 1203 1234 1107 914 806 642 499 295 128 0
0 0 0 0 0 0 1 0 0 0 0 0 0 0 0 0 0 0 0 0 0 0 0 0 0 0 2 0 1 3 8 3 1 130 429 555 1260 1262 1151 995 882 754 646 345
0 0 0 0 0 0 0 0 0 0 0 0 0 0 0 0 0 0 0 0 0 0 0 0 0 0 0 0 0 8 4 8 7 4 199 747 1016 1169 1317 1232 1091 989 931 870
0 0 0 0 0 0 0 0 0 0 0 0 0 1 0 0 0 0 0 0 0 0 0 0 0 0 0 0 0 2 4 2 3 3 4 318 1172 1115 1236 1271 1300 1171 1090 993
0 0 0 0 0 0 0 0 0 0 0 0 0 1 0 4 1 0 0 0 0 0 0 0 0 0 0 0 0 0 4 4 3 1 0 15 820 1316 1186 1301 1336 1236 1216 1108
0 0 0 0 0 0 0 0 1 1 3 4 1 1 1 0 0 0 0 0 0 0 13 4 0 0 0 0 0 0 0 4 2 2 3 2 9 1263 1341 1383 1464 1402 1281 1248
0 0 0 0 0 0 0 0 0 17 20 16 21 15 18 3 1 0 0 0 0 2 7 0 0 0 0 0 0 1 3 1 1 3 2 4 4 99 141 213 680 878 952 1253
0 0 0 0 0 0 0 6 1 13 23 30 12 15 9 17 13 31 16 1 39 42 0 0 0 0 0 0 0 0 0 1 1 1 0 6 4 4 587 577 2 0 0 118
0 0 0 0 0 0 0 9 1 2 5 9 15 18 36 35 21 4 10 2 10 0 0 0 0 0 0 0 0 1 1 0 0 1 0 0 4 5 8 1088 1859 1504 206 0
0 0 0 0 0 0 0 0 0 1 0 8 9 8 14 23 15 8 6 5 7 1 0 0 0 0 0 0 1 2 1 0 0 2 2 1 2 2 0 26 1663 1983 914 7
0 0 0 0 0 0 0 0 0 1 4 6 4 10 13 29 20 20 7 6 6 7 3 1 1 1 2 0 0 0 0 2 4 2 4 4 3 2 2 9 917 1748 1678 1231
0 0 0 0 0 0 0 0 0 0 4 3 0 0 16 19 18 18 16 3 5 6 7 6 4 0 5 0 3 3 4 2 3 6 3 3 5 3 3 18 326 1462 1526 978
0 0 0 0 0 0 0 0 0 0 0 0 0 2 1 13 15 15 18 9 8 6 11 7 3 8 1 3 1 3 1 5 5 5 4 3 2 7 7 51 285 780 452 1
0 0 0 0 0 0 0 0 0 0 0 0 0 0 0 1 13 18 19 18 17 9 6 7 20 6 3 1 11 1 3 3 3 4 3 2 2 3 2 2 33 666 11 1
0 0 0 0 0 0 0 0 0 0 0 0 0 0 0 0 10 14 15 16 17 33 16 16 14 6 4 4 10 3 3 4 4 3 2 3 3 2 3 1 1 1 1 1
0 4 7 23 14 2 0 0 0 0 0 0 0 0 0 0 3 10 11 12 14 28 20 23 17 11 8 8 4 4 4 4 2 4 3 3 4 2 1 5 2 0 0 3
0 0 4 2 0 11 0 0 0 0 0 0 0 0 0 0 0 0 0 4 5 46 37 19 14 26 15 13 5 5 4 4 1 3 5 3 2 2 2 2 3 3 1 3
0 0 0 0 0 0 0 0 0 0 0 0 0 0 0 0 0 0 0 0 1 19 43 39 21 17 11 2 3 4 4 4 3 2 4 2 2 2 2 2 3 3 4 3
0 0 0 0 0 0 0 0 0 0 0 0 0 0 0 0 0 0 0 0 0 12 37 47 27 5 2 1 2 2 3 4 3 3 2 1 2 2 2 2 1 2 2 0
0 0 0 0 0 0 0 0 0 0 0 0 0 0 0 0 0 0 0 0 0 2 0 39 16 1 0 0 0 2 3 3 3 3 2 2 2 2 2 2 2 2 1 3
0 0 0 0 0 0 0 0 0 0 0 0 0 0 0 0 0 0 0 0 0 0 0 0 0 0 0 0 0 0 4 6 6 6 4 2 1 1 2 2 3 3 3 3
0 0 0 0 0 0 0 0 0 0 0 0 0 0 0 0 0 0 0 0 0 0 0 0 0 0 0 0 0 0 0 0 0 2 14 17 13 5 1 3 3 2 2 1

GFSNGP_con_sbcape_072.txt.gz
CAPE
0 0 0 0 0 0 0 0 0 0 0 0 0 1 0 0 0 0 1 1 3 5 4 2 3 12 23 36 12 0 99 134 63 4 0 0 0 0 8 17 21 85 206 597
0 0 0 0 0 0 0 0 0 0 0 0 0 0 0 0 0 2 6 6 3 1 3 3 7 7 41 56 50 64 63 146 302 260 132 0 0 0 0 0 36 0 36 323
0 0 0 0 0 0 0 0 0 0 0 0 0 0 0 0 0 0 0 1 7 4 1 3 5 11 5 5 71 77 260 190 143 298 299 236 46 0 0 0 0 4 0 28
0 0 0 0 0 0 0 0 0 0 0 0 0 0 0 0 0 0 0 0 0 3 0 0 1 0 1 23 286 122 111 340 322 271 355 401 373 124 0 0 0 0 0 10
0 0 0 0 0 0 0 0 0 0 0 0 0 0 0 0 0 0 0 0 0 0 0 0 0 0 1 6 5 17 29 63 307 466 436 462 510 559 375 61 0 0 0 0
0 0 0 0 0 0 0 0 0 0 0 0 0 0 0 0 0 0 0 0 0 0 0 0 0 0 0 8 3 3 3 3 1 6 538 806 534 566 499 559 381 116 28 8
0 0 0 0 0 0 0 0 0 0 0 0 0 0 0 0 0 0 0 0 0 0 0 0 0 0 0 1 5 0 4 9 3 3 30 398 789 856 628 677 628 736 497 344
0 0 0 0 0 0 0 0 0 0 0 0 0 0 0 0 0 0 0 0 0 0 0 0 0 0 0 0 5 3 2 2 9 4 0 36 122 312 970 1254 1078 1011 994 849
0 0 0 0 0 0 0 0 0 0 0 0 0 0 0 0 0 0 0 0 0 0 0 0 0 0 0 0 0 1 2 1 1 8 4 2 20 158 767 1149 1391 1341 1295 1169
0 0 0 0 0 0 0 0 0 0 0 0 1 1 0 0 0 0 0 0 0 0 0 0 0 0 0 0 0 0 2 2 2 2 8 7 6 6 167 1183 1323 1449 1515 1400
0 0 0 0 0 0 0 0 0 0 1 5 9 9 8 4 0 0 0 0 0 0 0 2 4 0 0 0 0 0 2 1 4 6 5 4 5 4 2 129 1143 1412 1495 1478
0 0 0 0 0 0 0 0 0 3 4 7 22 19 17 8 7 13 5 1 0 0 0 0 15 3 0 0 0 0 2 1 5 5 3 1 4 1 0 0 2 13 65 1194
0 0 0 0 0 0 0 0 10 10 4 0 1 9 10 17 2 1 4 26 28 7 1 1 0 0 0 0 0 0 3 5 7 2 3 7 13 5 3 0 0 5 3 2
0 0 0 0 0 0 0 0 11 9 3 0 1 9 17 13 10 20 12 12 8 8 5 0 0 0 0 0 0 2 3 3 6 6 9 9 0 0 1 0 1 0 135 1
0 0 0 0 0 0 0 0 0 0 8 6 0 4 20 23 14 15 15 16 9 11 6 0 0 0 1 3 1 0 0 1 4 5 5 4 6 2 4 5 0 2 141 417
0 0 0 0 0 0 0 0 0 0 0 12 1 0 0 8 26 20 20 14 12 11 6 8 1 0 2 4 3 0 0 1 1 1 3 4 4 2 2 7 4 5 53 676
0 0 0 0 0 0 0 0 0 0 0 0 6 0 8 0 11 11 15 24 18 19 17 14 8 3 2 10 4 5 7 2 1 0 2 5 0 8 9 9 9 10 45 389
0 0 0 0 0 0 0 0 0 0 0 0 0 2 1 0 18 17 12 12 11 13 12 14 9 9 4 3 6 4 8 7 6 5 6 5 5 8 10 5 5 6 9 95
0 0 0 0 0 0 0 0 0 0 0 0 0 0 0 0 12 10 8 6 9 11 2 5 43 23 10 7 19 11 3 5 8 7 8 7 8 7 5 5 3 2 7 8
2 0 0 0 0 0 0 0 0 0 0 0 0 0 0 0 7 9 9 11 12 13 18 9 11 16 12 8 21 4 4 6 6 5 6 6 6 5 3 1 3 3 5 2
0 0 0 0 0 0 0 0 0 0 0 0 0 0 0 0 0 0 0 1 3 14 14 20 16 25 19 24 9 6 5 4 4 5 5 6 6 5 3 2 2 4 4 3
0 0 0 0 0 0 0 0 0 0 0 0 0 0 0 0 0 0 0 0 0 31 21 32 27 40 33 32 11 8 6 6 6 6 5 5 5 4 3 4 2 3 4 4
0 0 0 0 0 0 0 0 0 0 0 0 0 0 0 0 0 0 0 0 1 4 54 36 28 38 28 10 13 13 11 8 8 7 7 4 5 4 3 2 4 3 3 4
0 0 0 0 0 0 0 0 0 0 0 0 0 0 0 0 0 0 0 0 0 18 28 34 17 32 22 16 13 8 11 12 9 5 6 3 4 4 3 2 2 3 3 8
0 0 0 0 3 1 0 0 0 0 0 0 0 0 0 0 0 0 0 0 0 18 10 22 7 16 24 25 17 12 11 10 7 5 5 5 4 5 4 3 2 2 3 3
0 0 0 0 0 0 0 0 0 0 0 0 0 0 0 0 0 0 0 0 0 3 8 9 0 0 1 14 19 21 21 13 10 7 3 5 8 6 7 7 4 4 4 3
0 0 0 0 0 0 0 0 0 0 0 0 0 0 0 0 0 0 0 0 0 0 0 0 0 0 0 0 0 0 3 6 2 11 8 9 7 7 8 8 8 6 3 5

GFSNGP_con_sbcape_075.txt.gz
CAPE
0 0 0 0 0 0 0 0 0 0 0 0 0 0 0 0 0 0 0 0 2 4 5 6 8 6 118 353 353 386 560 529 613 809 477 325 876 1336 1106 1098 1070 1172 1341 1473
0 0 0 0 0 0 0 0 0 0 0 0 0 0 0 0 0 0 0 0 0 1 4 1 10 9 4 7 181 316 383 713 945 965 1067 1066 1175 1274 1270 1090 1079 1124 1026 1372
0 0 0 0 0 0 0 0 0 0 0 0 0 0 0 0 0 0 0 0 0 0 0 7 7 11 2 4 76 471 575 624 730 1092 1067 1230 980 1022 1119 1268 1146 1169 1027 1024
0 0 0 0 0 0 0 0 0 0 0 0 0 0 0 0 0 0 0 0 0 0 0 0 1 0 0 2 11 214 832 679 862 854 901 1082 1116 1062 1215 912 1086 1043 984 1178
0 0 0 0 0 0 0 0 0 0 0 0 0 0 0 0 0 0 0 0 0 0 0 0 0 2 3 0 8 4 11 101 218 697 1157 1049 1124 1196 1184 977 845 799 841 984
0 0 0 0 0 0 0 0 0 0 0 0 0 0 0 0 0 0 0 0 0 0 0 0 0 0 6 0 6 6 4 11 19 89 313 1225 1282 1370 1359 1378 1118 960 839 860
0 0 0 0 0 0 0 0 2 0 0 0 0 0 0 0 0 0 0 0 0 0 0 0 0 0 2 7 4 4 3 0 3 18 20 44 1022 1748 1531 1693 1658 1578 1492 1392
0 0 0 0 0 0 0 0 0 0 0 0 0 0 0 0 0 0 0 0 0 0 0 0 0 0 4 5 16 5 0 0 0 7 20 17 58 75 349 1135 1417 1702 1721 1832
0 0 0 0 0 0 0 0 0 0 0 0 0 0 0 0 0 0 0 0 0 0 0 0 0 0 4 9 18 11 0 0 0 0 3 20 15 70 444 555 1000 1584 1763 1757
0 0 0 0 0 0 0 0 0 0 0 1 1 2 2 3 3 1 0 0 0 2 1 0 0 0 0 12 29 4 1 0 0 0 0 5 6 8 17 99 498 774 1577 2015
0 0 0 0 0 0 0 0 0 0 1 5 7 6 10 11 13 18 21 15 14 17 15 9 2 0 0 3 32 9 1 0 0 0 0 0 1 0 0 2 56 573 1149 1531
0 0 0 0 0 0 0 0 0 1 2 10 8 9 9 11 4 10 27 27 41 53 38 21 25 30 16 17 18 3 5 6 0 0 1 1 0 0 0 0 0 0 0 0
0 0 0 0 0 0 0 0 0 2 6 5 5 7 13 18 19 22 26 22 10 21 7 29 3 12 14 9 0 0 2 4 3 0 0 1 0 0 0 0 0 0 0 0
0 0 0 0 0 0 0 0 0 5 5 8 12 4 5 18 28 28 17 24 24 18 8 13 14 7 9 5 7 4 3 0 3 1 2 1 2 1 1 0 0 0 0 0
0 0 0 0 0 0 0 0 0 6 6 5 5 1 8 22 29 34 36 34 18 21 26 20 10 15 7 12 18 8 10 1 2 5 5 2 3 10 9 7 9 5 0 0
0 0 0 0 0 0 0 0 0 6 0 0 0 1 10 15 13 20 23 28 25 25 27 13 11 9 5 7 16 13 8 3 8 6 3 1 3 1 11 19 13 10 7 3
0 0 0 0 0 0 0 3 0 13 19 4 7 12 23 24 9 17 16 15 21 30 10 15 10 25 38 21 24 12 6 5 6 15 3 6 9 8 11 12 8 9 14 12
10 0 0 10 14 0 0 0 0 0 7 22 19 9 16 7 11 10 17 16 17 17 37 13 53 58 27 27 20 10 12 14 12 9 6 15 4 5 7 7 12 18 8 6
24 0 0 0 0 3 3 0 0 11 20 3 8 18 23 0 2 6 3 12 27 47 62 66 65 31 28 28 44 37 33 16 10 14 17 13 12 10 11 12 12 10 10 9
78 73 59 13 1 1 6 6 11 25 14 3 0 31 18 9 0 4 18 8 36 63 45 62 53 55 28 22 40 12 10 17 15 16 13 12 10 9 6 4 6 8 9 12
70 83 93 125 193 126 23 36 65 81 45 17 55 87 78 9 0 1 52 96 33 25 41 29 60 61 26 35 14 17 21 19 17 13 10 11 10 8 6 6 6 6 6 4
68 59 54 51 111 204 167 101 40 60 78 80 104 109 71 22 7 6 37 59 67 46 117 72 74 49 44 36 15 8 11 19 17 12 8 8 9 7 5 6 5 5 4 5
33 57 118 108 39 95 35 33 2 6 88 136 181 126 29 0 5 18 58 82 93 103 119 70 14 23 34 24 13 9 7 10 9 11 13 13 9 7 6 5 7 5 5 5
56 47 22 13 26 39 70 88 0 0 34 143 190 101 3 0 9 59 78 50 12 27 84 73 1 0 21 45 23 12 7 5 4 6 13 12 15 13 10 7 8 6 6 6
3 26 113 52 44 54 7 0 1 0 1 134 116 48 1 20 48 58 95 62 4 24 57 20 0 0 4 32 35 22 13 11 8 4 3 10 12 11 10 9 11 4 3 4
61 72 48 88 3 6 4 9 25 5 27 67 67 33 16 46 57 61 10 3 34 26 72 72 30 58 52 13 19 20 21 17 12 8 4 3 8 10 8 6 6 8 6 3
69 17 105 87 19 0 4 23 62 5 29 59 52 16 5 27 29 11 0 6 8 22 26 50 67 59 58 28 11 30 29 28 7 12 12 10 8 8 8 7 5 3 4 5

GFSNGP_con_sbcape_078.txt.gz
CAPE
0 0 0 0 0 0 0 0 1 0 2 5 8 3 2 1 0 0 0 0 0 0 2 9 8 13 11 19 282 1112 1012 1012 1119 1304 1221 1175 1010 1344 1569 1744 1783 1792 1622 1735
0 0 0 0 0 0 0 0 0 0 0 4 3 0 0 0 0 0 0 0 0 0 0 0 1 4 0 5 11 548 1085 1131 1348 1323 1428 1536 1371 913 1540 1710 1871 1904 1837 1567
0 0 0 0 0 0 0 0 0 0 0 0 0 0 0 0 0 0 0 0 0 0 0 0 0 0 0 0 7 1 630 1292 1071 1228 1556 1589 1630 1713 1629 1616 1827 2012 1881 1821
0 0 0 0 0 0 0 0 0 0 0 0 0 0 0 0 0 0 0 0 0 0 0 0 0 0 0 1 4 2 0 1 1 792 1255 1785 1875 1919 1810 1760 1743 1767 1803 2166
0 0 0 0 0 0 0 0 0 0 0 0 0 0 0 0 0 0 0 0 0 0 0 0 0 0 0 0 4 5 0 4 4 4 73 901 1664 1784 2092 2052 1948 1756 1710 1868
0 0 0 0 0 0 0 0 0 0 0 0 0 0 3 0 0 0 0 0 0 0 0 0 0 0 0 0 0 7 5 6 9 14 8 5 389 1382 1805 2011 1708 1780 1731 1766
0 0 0 0 0 0 0 0 0 0 0 0 0 0 0 0 0 0 0 0 0 0 0 0 0 0 0 0 0 1 3 3 1 5 17 12 9 126 1172 2150 2633 2414 1956 2210
5 4 0 0 0 0 0 0 0 0 0 0 0 0 0 0 0 0 0 0 0 0 0 0 0 0 0 0 0 2 4 2 3 2 0 8 27 55 61 546 976 2030 2298 2789
0 18 0 0 2 0 0 0 0 0 0 0 0 0 0 0 0 0 0 0 0 0 0 0 0 0 0 0 0 1 5 5 2 2 0 0 5 9 55 138 575 1339 1834 1775
0 0 0 0 0 0 0 0 0 0 0 0 0 0 0 0 0 1 4 6 9 11 8 10 8 7 9 3 1 1 6 9 2 0 0 0 0 0 1 1 4 153 528 1684
0 0 0 0 0 0 0 0 0 0 0 0 0 1 4 2 4 7 15 8 12 23 22 5 1 15 24 37 31 6 6 8 2 0 0 0 0 0 0 0 0 2 11 52
0 0 0 0 0 0 0 0 0 0 0 1 3 11 4 11 8 5 13 14 21 19 34 28 21 23 26 10 9 30 39 7 0 0 0 0 0 0 0 0 0 0 0 0
2 0 0 0 0 0 0 0 0 0 3 3 7 9 9 10 5 5 8 23 25 30 13 19 22 32 30 29 16 1 5 34 15 3 2 0 0 0 0 0 0 0 0 0
0 0 0 0 0 0 0 0 0 0 6 8 14 19 16 14 4 11 10 14 21 22 23 13 23 17 13 31 37 21 7 0 15 21 8 2 1 0 0 0 0 0 0 0
0 0 0 6 2 0 0 0 4 15 28 26 33 26 29 27 30 8 4 21 24 23 20 26 33 28 14 14 21 19 25 17 17 22 22 9 3 2 0 0 0 0 0 0
0 0 0 10 24 9 1 3 12 27 27 28 28 31 26 22 22 15 12 23 28 33 27 22 23 10 25 30 26 30 37 20 23 21 14 17 16 7 4 2 1 0 0 0
4 1 5 15 24 34 12 15 16 21 13 16 17 25 31 29 24 15 10 15 16 26 30 34 38 37 58 23 13 18 23 37 21 38 27 21 16 9 7 10 6 6 2 0
7 26 25 20 25 46 91 62 46 37 17 14 13 29 43 34 11 4 4 11 19 18 23 29 35 34 25 28 22 33 40 28 23 21 20 18 15 13 7 11 7 1 5 0
19 22 50 46 67 81 82 74 64 44 41 47 37 37 42 53 6 5 4 9 14 21 33 17 10 25 32 27 52 57 34 27 23 26 33 25 28 10 8 3 9 7 7 7
88 83 74 76 76 92 80 66 31 55 51 57 50 68 89 90 18 21 29 32 46 42 41 42 48 42 41 26 35 18 17 21 30 25 26 24 22 25 7 8 13 12 11 10
135 124 118 161 195 226 150 211 158 165 126 111 95 104 116 99 20 28 47 72 55 50 49 45 42 29 29 37 28 18 14 14 16 28 30 23 23 24 23 22 20 17 14 12
178 155 167 163 167 195 245 301 304 270 257 145 152 148 183 125 49 57 73 86 100 26 41 61 27 2 7 21 27 21 20 18 10 10 17 24 22 18 20 19 17 15 12 11
171 94 126 186 183 191 188 274 365 313 99 148 211 216 272 67 76 76 71 85 48 21 23 58 7 0 0 30 22 24 24 18 20 13 6 9 19 20 17 11 11 9 9 8
62 70 78 113 191 46 15 32 30 75 126 205 292 244 204 69 51 52 46 37 9 0 17 62 16 0 0 44 9 20 27 29 22 22 19 9 8 7 9 15 11 11 9 8
67 102 144 198 109 23 2 14 12 24 105 176 191 211 96 61 43 28 56 46 4 2 65 23 0 0 39 60 30 11 16 30 26 18 16 14 11 7 2 3 5 16 17 13
101 199 192 203 195 19 59 16 11 21 57 73 99 102 120 115 116 50 52 35 41 14 46 46 89 117 67 76 80 8 33 9 26 25 14 16 15 12 2 1 1 2 4 9
66 15 145 250 305 167 36 16 20 24 42 68 73 98 57 53 54 24 8 28 26 32 30 31 43 26 40 42 45 64 61 51 2 23 15 20 15 3 8 7 1 1 0 1

GFSNGP_con_sbcape_081.txt.gz
CAPE
0 0 0 2 0 0 0 0 65 445 252 148 68 35 16 10 0 0 1 0 0 0 0 1 3 7 5 10 127 508 1396 1406 1882 1773 1640 1765 1918 2267 2403 2868 2848 2890 2917 2651
0 0 0 0 0 0 0 0 12 175 119 57 17 4 1 0 0 0 0 0 0 0 0 0 0 1 0 4 7 31 110 409 502 1836 1882 2080 1989 1944 1997 2245 3283 3553 3048 2995
9 0 0 0 0 0 0 0 0 208 143 16 8 0 0 0 0 0 0 0 0 0 0 0 0 0 0 0 0 0 0 0 0 130 984 1610 2234 2571 2341 1971 2571 3442 3320 3139
7 0 0 0 0 0 0 0 0 17 16 1 2 0 1 1 0 0 0 0 0 0 0 0 0 0 0 0 1 0 0 0 0 2 59 442 1092 1913 2304 2547 2657 2824 3144 3482
1 13 0 0 0 0 0 0 0 0 0 0 0 0 2 0 0 0 0 0 0 0 0 0 0 0 0 0 0 8 1 0 0 0 4 9 145 213 1603 2422 2272 2185 2262 2947
0 5 0 4 0 0 0 0 0 0 0 0 0 0 1 0 0 0 0 0 0 0 0 0 0 0 0 0 0 0 0 3 6 2 1 4 4 22 265 1518 2017 2735 2017 2555
0 0 9 0 0 0 0 0 0 0 1 0 0 0 0 0 0 0 0 0 0 0 0 0 0 0 0 0 0 0 0 1 1 3 2 0 2 17 31 55 678 1729 2186 2603
4 16 4 0 0 0 0 0 0 0 0 0 0 0 0 0 0 0 0 0 0 0 0 0 0 0 0 0 0 0 0 0 2 2 0 0 7 1 8 41 102 578 1662 2097
15 113 11 0 1 0 0 3 0 0 0 0 0 0 0 0 0 0 0 4 1 2 2 1 4 3 1 2 3 1 0 0 0 1 0 0 0 0 0 91 377 383 381 1308
0 7 1 0 0 0 0 0 0 0 0 0 0 0 0 0 0 0 3 5 3 6 8 9 12 11 8 7 6 7 13 3 0 0 0 0 0 0 0 0 0 0 80 80
0 5 0 1 0 0 0 0 0 0 0 0 0 0 0 1 5 4 3 4 7 10 9 13 14 10 9 20 21 17 8 4 2 0 0 0 1 0 0 0 0 0 0 0
8 17 10 4 4 0 0 0 0 0 0 0 0 3 2 8 7 5 7 7 8 8 11 11 11 15 17 17 15 17 25 5 0 0 0 0 0 0 0 0 0 0 0 0
27 14 6 6 0 0 0 0 0 0 0 0 1 2 2 6 10 1 5 4 8 10 9 10 12 9 7 17 14 25 17 22 15 3 3 3 0 0 0 0 0 0 0 0
20 12 8 4 3 2 2 4 0 0 3 3 2 3 4 6 7 8 2 5 5 5 7 9 6 6 4 12 19 21 19 5 10 13 12 9 8 1 0 0 0 0 0 0
22 18 20 2 17 26 19 19 6 1 5 8 10 7 7 13 10 0 5 7 11 5 2 3 5 8 13 10 15 12 5 3 8 16 13 3 6 14 7 2 0 0 0 0
33 28 36 2 0 15 28 28 24 23 19 20 13 11 8 27 11 13 6 3 9 8 6 8 12 26 10 16 12 10 5 6 6 6 18 29 17 28 25 21 13 3 0 0
37 34 14 0 0 1 15 33 33 32 42 39 38 33 25 16 23 30 21 19 20 8 12 20 24 21 21 18 12 10 10 10 8 19 22 24 26 25 38 35 29 17 6 1
16 8 1 0 0 15 18 34 32 32 45 29 37 49 42 54 46 36 24 23 24 17 22 27 16 16 19 17 6 4 7 8 10 13 15 37 37 29 7 5 13 28 24 13
14 17 16 5 9 29 33 25 35 72 151 130 47 49 54 48 68 35 32 31 33 36 29 19 3 16 18 11 0 0 0 4 10 14 28 26 33 28 15 22 28 18 22 25
79 134 95 98 124 73 79 158 81 95 88 119 108 69 54 47 49 53 47 38 25 14 29 25 33 23 19 8 0 1 4 10 16 21 26 35 31 25 23 11 21 29 29 18
184 255 188 258 249 362 193 359 159 124 132 158 130 240 322 245 114 66 39 45 85 62 34 5 24 23 11 0 3 4 9 13 17 10 18 19 23 25 21 21 21 23 20 22
246 229 167 193 245 214 226 349 519 331 342 282 137 224 267 162 137 83 46 39 41 14 20 34 38 4 0 0 13 9 10 13 24 19 13 14 14 18 15 20 19 22 21 21
108 94 81 99 149 231 231 249 312 344 526 738 553 182 367 151 134 69 52 63 51 9 11 28 5 0 0 1 28 21 10 29 26 10 17 14 10 10 13 11 16 17 16 16
42 55 68 94 156 194 241 122 28 57 173 109 294 243 232 234 109 53 71 21 1 2 19 18 8 0 0 20 59 10 6 35 43 17 18 10 14 24 19 15 6 8 18 16
41 49 90 135 302 311 267 239 128 60 8 4 82 158 222 226 32 10 62 45 0 8 59 31 6 4 11 70 123 88 64 10 17 30 12 17 18 15 22 27 20 15 7 4
39 39 54 99 337 344 303 39 17 32 59 55 63 172 102 53 58 58 47 32 86 35 65 77 44 101 86 58 66 85 79 19 4 36 7 10 23 15 18 23 20 17 14 11
24 1 29 43 223 260 199 67 6 19 36 17 39 75 80 65 40 24 3 68 58 33 63 61 61 21 42 45 66 69 49 71 2 23 27 18 15 15 12 16 12 8 7 13

GFSNGP_con_sbcape_084.txt.gz
CAPE
0 0 3 0 0 0 0 0 444 523 263 257 164 90 10 1 1 0 0 0 0 0 0 2 6 3 6 12 6 48 281 455 473 789 2231 2825 2865 2631 3169 3130 3096 3255 3189 2911
0 0 0 0 0 0 0 0 117 231 320 89 6 19 11 2 0 0 0 0 0 0 0 0 0 0 2 10 5 1 5 24 153 567 758 1618 2326 2454 2651 2998 3259 3275 3035 3130
0 0 0 0 0 0 0 0 485 509 86 30 1 0 3 0 0 0 0 0 0 0 0 0 0 0 0 0 0 0 0 0 3 17 136 195 612 1925 2310 2393 2374 2893 2991 3129
1 1 0 0 0 0 0 0 339 486 207 13 1 0 1 0 0 0 0 0 0 0 0 0 0 0 0 1 0 0 0 0 0 0 3 25 232 188 319 1003 2252 2247 2422 2818
0 2 5 0 0 0 0 1 135 328 113 2 0 0 0 0 0 0 0 0 0 0 0 0 0 0 0 0 6 0 1 6 0 0 0 0 3 1 13 121 319 1459 2127 2287
15 3 0 22 0 0 0 28 8 22 70 9 2 0 0 0 0 0 0 0 0 0 0 0 0 0 0 0 0 0 0 3 4 5 6 0 0 3 35 80 166 493 1069 2012
30 28 50 1 0 0 0 73 9 8 1 1 2 0 0 0 0 0 0 0 0 0 0 0 0 0 0 0 0 0 0 0 1 11 0 12 8 6 0 31 182 268 711 1554
4 48 77 0 0 0 43 5 0 0 2 7 0 0 0 0 0 0 0 0 0 0 0 0 0 0 0 6 9 12 13 4 0 1 3 0 0 0 0 0 102 296 396 807
110 178 13 6 8 4 0 8 1 0 0 0 0 0 0 0 0 0 0 0 0 0 0 0 0 0 0 6 11 14 7 5 23 8 0 3 8 0 0 0 9 210 220 256
10 97 14 1 0 0 0 0 0 0 0 0 0 0 0 0 0 2 4 0 0 0 0 3 1 3 0 3 17 10 15 16 5 0 0 0 0 0 0 0 0 0 0 0
0 5 1 0 0 0 0 0 0 0 0 0 0 0 0 0 2 1 3 5 3 2 3 5 3 4 3 9 14 2 5 2 1 0 0 0 2 5 1 0 0 0 0 0
26 21 30 24 23 8 0 0 0 0 0 0 0 1 0 1 0 3 4 3 7 8 10 8 5 6 4 4 7 5 4 1 0 0 0 0 0 0 0 0 0 0 0 0
47 25 15 0 0 1 1 0 0 0 0 0 0 0 0 3 3 0 1 0 1 3 6 11 12 7 6 4 8 5 2 1 0 0 0 0 3 2 0 0 0 0 0 0
73 63 31 3 2 0 0 1 0 0 1 0 4 1 0 10 0 5 1 0 1 1 2 4 7 8 6 10 18 16 6 0 0 0 0 1 2 0 0 0 0 0 0 0
23 9 29 7 14 34 11 7 4 0 3 7 5 2 6 13 13 4 1 0 0 1 1 1 0 6 14 2 5 4 0 0 0 0 2 0 0 7 4 3 2 0 1 0
6 14 20 20 58 5 11 30 24 7 10 15 19 15 0 9 21 15 9 0 0 3 2 3 7 23 7 13 11 0 0 1 0 0 2 3 6 12 8 9 6 8 3 2
35 57 38 12 34 47 17 9 19 26 47 45 59 68 8 10 16 8 14 9 5 7 5 7 15 3 16 8 0 0 0 0 0 0 0 1 12 15 14 17 23 18 9 1
7 8 12 16 41 50 17 10 25 25 59 22 46 81 49 19 20 43 38 10 7 15 21 36 24 4 1 7 0 0 0 0 0 0 0 0 3 8 14 23 30 21 18 24
18 18 17 6 16 9 5 8 8 3 21 110 119 102 116 62 61 52 65 21 29 15 29 45 6 4 5 0 0 0 0 0 0 0 1 5 6 7 10 18 20 23 26 28
100 110 82 57 13 10 34 36 84 75 64 107 204 158 148 158 125 56 48 46 38 40 48 31 10 8 22 4 0 0 0 1 2 5 6 7 5 5 8 16 23 23 25 21
263 397 177 156 173 158 73 255 29 72 75 110 74 152 291 337 206 157 41 24 37 69 28 26 10 0 3 0 0 1 3 5 6 6 10 14 7 2 3 16 21 23 25 22
52 137 160 221 199 241 166 28 50 122 265 42 153 157 427 270 296 239 47 109 74 16 21 11 21 15 4 0 0 0 4 2 2 7 6 8 11 12 10 2 8 17 15 15
23 25 41 55 43 123 74 262 242 190 85 196 162 525 588 495 6 37 122 214 37 28 21 43 51 13 0 0 0 6 15 1 6 7 3 7 10 8 13 9 13 14 10 13
28 45 48 29 36 63 177 369 242 161 121 65 226 398 344 199 30 8 62 17 32 0 10 4 23 11 0 0 13 26 22 1 14 10 0 1 12 13 10 10 10 8 9 6
25 49 49 21 28 94 237 345 214 223 236 134 165 153 236 0 20 21 41 34 0 0 19 16 23 11 6 24 71 149 179 72 17 15 15 5 11 7 11 1 8 8 5 9
21 3 15 37 80 161 297 276 17 20 98 169 55 114 33 40 32 55 61 60 99 8 27 31 27 38 59 61 76 12 78 64 7 0 13 14 2 12 9 1 5 6 4 5
7 0 16 14 23 10 26 0 4 9 9 0 5 16 39 64 54 35 20 30 56 45 42 39 34 16 52 23 21 30 38 94 6 11 2 6 6 4 6 3 3 1 2 8

GFSNGP_con_sbcape_087.txt.gz
CAPE
0 0 0 0 0 0 0 370 454 338 189 140 46 0 0 0 0 0 0 0 0 0 1 2 2 2 4 1 4 1 11 42 12 259 328 853 1259 1955 1864 2014 2106 2033 1908 1945
0 0 0 0 0 0 0 294 365 358 251 134 2 1 7 1 0 0 0 0 0 0 0 0 0 1 4 1 1 3 0 2 0 88 141 126 441 965 1307 1292 1411 1855 2103 2083
0 0 0 0 0 0 100 569 450 261 142 82 23 0 0 0 0 0 0 0 0 0 0 0 0 0 0 1 0 0 0 1 1 1 15 72 128 96 123 261 1256 1320 1329 1481
0 0 0 0 0 0 0 699 217 106 45 0 0 0 0 0 0 0 0 0 0 0 0 0 0 0 1 2 0 0 0 0 0 0 0 0 3 5 63 68 157 756 1178 1360
0 0 0 0 0 0 274 669 371 184 15 0 0 0 0 0 0 0 0 0 0 0 0 0 0 0 0 0 0 0 0 0 0 0 0 0 0 0 2 8 40 110 278 711
16 0 0 0 0 0 0 445 331 0 0 0 0 0 0 0 0 0 0 0 0 0 0 0 0 0 0 0 0 0 0 0 0 0 0 0 0 0 0 0 8 193 197 289
0 0 2 0 0 0 3 26 156 0 0 0 0 0 0 0 0 0 0 0 0 0 0 0 0 0 0 0 0 0 0 0 0 0 0 0 0 0 0 0 0 0 50 58
1 10 4 0 0 6 70 0 0 0 0 0 0 0 0 0 0 0 0 0 0 0 0 0 0 0 0 0 0 0 0 0 0 0 0 0 0 0 0 0 0 0 0 50
131 9 0 0 0 0 0 0 0 0 0 0 0 0 0 0 0 0 0 0 0 0 0 0 0 0 0 0 0 0 0 0 0 0 0 0 0 0 0 0 0 0 0 0
88 82 1 0 0 0 0 0 0 0 0 0 0 0 0 0 0 0 0 0 0 0 0 0 0 0 0 0 0 0 0 0 0 0 0 0 0 0 0 0 0 0 0 0
2 16 1 0 0 0 0 0 0 0 0 0 0 0 0 0 0 0 0 0 0 0 0 0 0 0 0 0 0 0 0 0 0 0 0 0 0 0 0 0 0 0 0 0
0 34 28 36 0 0 0 0 0 0 0 0 0 0 0 0 0 0 0 0 0 0 0 0 0 0 0 0 0 0 0 0 0 0 0 0 0 0 0 0 0 0 0 0
32 15 4 2 1 16 0 0 0 0 0 0 0 0 0 0 0 0 0 0 0 0 0 0 0 0 0 0 0 0 0 0 0 0 0 0 0 0 0 0 0 0 0 0
1 16 33 13 0 0 0 0 0 0 0 0 0 0 0 0 0 0 0 0 0 0 0 0 0 0 0 0 0 0 0 0 0 0 0 0 0 0 0 0 0 0 0 0
4 0 0 1 0 0 4 0 0 0 0 0 0 0 0 0 0 0 0 0 0 0 0 0 0 0 0 0 0 0 0 0 0 0 0 0 0 0 0 0 0 0 0 0
5 3 0 8 7 6 1 2 2 0 0 0 0 0 0 0 1 0 0 0 0 0 0 0 0 0 0 0 0 0 0 0 0 0 0 0 0 0 0 0 0 0 0 0
0 3 3 5 9 11 23 4 6 12 0 1 1 7 0 0 0 0 0 0 0 0 0 0 0 0 0 0 0 0 0 0 0 0 0 0 0 0 0 0 0 0 0 0
2 0 0 0 3 8 2 4 5 15 9 12 60 6 0 0 0 0 0 0 0 0 0 0 0 0 0 0 0 0 0 0 0 0 0 0 0 0 0 0 0 0 0 0
130 47 27 43 0 0 0 16 3 4 28 1 18 8 0 2 0 2 0 0 0 0 0 0 6 0 0 0 0 0 0 0 0 0 0 0 0 0 0 1 0 0 2 4
342 153 112 149 71 13 8 0 20 5 2 0 0 7 45 28 15 39 13 0 0 0 0 0 0 0 0 0 0 0 0 0 0 0 0 0 0 0 0 0 0 1 8 5
42 113 139 205 76 60 92 57 48 36 47 18 12 21 3 72 21 34 37 2 0 1 0 1 0 0 0 0 0 0 0 0 0 0 0 0 0 0 0 1 1 6 0 10
0 0 6 28 36 56 79 77 78 77 79 53 1 0 4 10 66 26 13 2 0 13 2 1 0 5 0 6 0 0 0 0 0 0 0 0 0 0 0 5 3 6 8 8
2 14 11 6 1 3 6 14 50 97 152 62 36 2 39 23 7 11 11 14 2 5 1 0 1 50 35 0 0 0 0 0 0 0 0 0 0 0 0 1 6 1 2 7
4 12 39 13 2 0 0 0 44 79 43 64 83 57 68 76 75 28 5 0 0 0 4 13 16 46 4 0 0 0 0 0 0 0 0 0 0 0 0 0 4 1 2 5
0 14 0 0 0 0 6 14 0 0 56 167 108 93 65 113 66 3 0 0 0 0 6 2 42 9 0 0 0 1 6 0 0 0 0 0 0 0 0 0 0 0 0 3
0 0 0 3 0 0 0 0 0 0 5 110 74 1 2 2 0 0 0 0 4 12 3 5 10 0 0 0 0 18 0 3 0 0 0 0 0 0 0 0 0 0 0 1
0 0 0 4 0 0 0 0 0 0 0 1 2 2 1 8 18 11 17 20 21 18 13 7 3 1 0 3 18 1 2 0 0 0 0 0 0 0 0 0 0 0 0 0

GFSNGP_con_sbcape_090.txt.gz
CAPE
0 0 0 0 0 0 0 0 47 128 55 61 1 0 0 0 0 0 0 3 3 2 2 2 2 1 1 9 19 45 32 37 29 140 148 314 745 920 1430 1079 1128 1154 1115 1235
0 0 0 0 0 0 74 290 396 214 74 4 0 0 0 0 0 0 0 0 0 1 1 1 1 1 1 1 4 0 25 1 10 35 81 96 83 100 244 511 903 1087 1302 1175
0 0 0 0 0 0 258 543 421 190 61 0 0 0 0 0 0 0 0 0 0 0 0 0 1 0 0 0 0 0 1 2 2 16 9 9 10 35 67 76 165 478 649 903
0 0 0 0 0 174 615 428 260 133 11 0 0 0 0 0 0 0 0 0 0 0 0 0 0 0 0 1 1 1 1 1 1 1 1 1 3 0 23 10 42 90 221 305
0 0 0 0 0 0 194 177 331 103 1 0 0 0 0 0 0 0 0 0 0 0 0 0 0 0 0 0 0 0 0 0 0 1 0 0 0 5 4 0 0 17 117 114
0 0 0 0 0 0 60 145 2 0 0 0 0 0 0 0 0 0 0 0 0 0 0 0 0 0 0 0 0 0 0 0 0 0 0 0 0 0 0 0 0 1 0 53
0 0 0 0 0 0 0 0 0 0 0 0 0 0 0 0 0 0 0 0 0 0 0 0 0 0 0 0 0 0 0 0 0 0 0 0 0 0 0 0 0 0 0 1
0 0 0 0 0 0 0 0 0 0 0 0 0 0 0 0 0 0 0 0 0 0 0 0 0 0 0 0 0 0 0 0 0 0 0 0 0 0 0 0 0 0 0 2
4 0 0 0 0 0 0 0 0 0 0 0 0 0 0 0 0 0 0 0 0 0 0 0 0 0 0 0 0 0 0 0 0 0 0 0 0 0 0 0 0 0 0 0
0 0 0 0 0 0 0 0 0 0 0 0 0 0 0 0 0 0 0 0 0 0 0 0 0 0 0 0 0 0 0 0 0 0 0 0 0 0 0 0 0 0 0 0
0 0 0 0 0 0 0 0 0 0 0 0 0 0 0 0 0 0 0 0 0 0 0 0 0 0 0 0 0 0 0 0 0 0 0 0 0 0 0 0 0 0 0 0
0 0 0 0 0 0 0 0 0 0 0 0 0 0 0 0 0 0 0 0 0 0 0 0 0 0 0 0 0 0 0 0 0 0 0 0 0 0 0 0 0 0 0 0
0 0 0 0 0 0 0 0 0 0 0 0 0 0 0 0 0 0 0 0 0 0 0 0 0 0 0 0 0 0 0 0 0 0 0 0 0 0 0 0 0 0 0 0
0 0 0 0 0 0 0 0 0 0 0 0 0 0 0 0 0 0 0 0 0 0 0 0 0 0 0 0 0 0 0 0 0 0 0 0 0 0 0 0 0 0 0 0
0 0 0 0 0 0 0 0 0 0 0 0 0 0 0 0 0 0 0 0 0 0 0 0 0 0 0 0 0 0 0 0 0 0 0 0 0 0 0 0 0 0 0 0
0 0 0 0 0 0 0 0 0 0 0 0 0 0 0 0 0 0 0 0 0 0 0 0 0 0 0 0 0 0 0 0 0 0 0 0 0 0 0 0 0 0 0 0
0 0 0 0 0 0 0 0 0 0 0 0 0 0 0 0 0 0 0 0 0 0 0 0 0 0 0 0 0 0 0 0 0 0 0 0 0 0 0 0 0 0 0 0
0 0 0 0 0 0 0 0 0 3 1 1 0 0 0 0 0 0 0 0 0 0 0 0 0 0 0 0 0 0 0 0 0 0 0 0 0 0 0 0 0 0 0 0
1 1 0 0 0 0 0 0 0 0 0 0 0 0 0 0 0 0 0 0 0 0 0 0 0 0 0 0 0 0 0 0 0 0 0 0 0 0 0 0 0 0 0 1
6 11 4 7 0 0 0 0 0 0 0 0 0 0 0 0 0 0 0 0 0 0 0 0 0 0 0 0 0 0 0 0 0 0 0 0 0 0 0 0 0 0 1 0
0 0 11 15 16 13 8 0 0 0 0 0 1 0 0 1 0 0 0 0 0 0 0 0 0 0 0 0 0 0 0 0 0 0 0 0 0 0 0 0 0 0 1 2
0 0 0 0 0 0 0 0 0 10 23 11 3 1 1 0 0 5 1 0 0 0 0 0 0 0 0 0 0 0 0 0 0 0 0 0 0 0 0 0 0 0 1 2
0 0 0 0 0 0 0 0 0 0 0 0 0 1 1 0 0 0 0 0 0 0 0 0 0 0 4 0 0 0 0 0 0 0 0 0 0 0 0 0 0 0 0 0
0 0 0 0 0 0 0 0 0 0 0 0 0 0 0 0 0 0 0 0 0 0 0 0 0 0 28 0 0 0 0 0 0 0 0 0 0 0 0 0 0 0 0 0
0 0 0 0 0 0 0 0 0 0 0 0 0 0 0 1 2 29 13 27 0 9 15 4 0 0 16 0 0 0 0 0 0 0 0 0 0 0 0 0 0 0 0 0
0 0 0 0 0 0 0 0 0 0 3 9 2 0 1 1 2 1 1 1 1 0 2 2 0 4 0 0 0 0 0 0 0 0 0 0 0 0 0 0 0 0 0 0
0 0 0 0 0 0 0 0 0 0 0 0 0 0 0 1 19 12 21 12 3 0 0 4 16 9 1 0 0 0 0 0 0 0 0 0 0 0 0 0 0 0 0 0

GFSNGP_con_sbcape_093.txt.gz
CAPE
0 0 0 0 0 0 0 0 14 23 65 73 1 0 15 1 1 4 4 3 3 1 1 2 3 33 123 107 68 37 35 22 39 74 73 64 32 61 316 612 836 609 354 440
0 0 0 0 0 0 32 143 82 46 43 63 0 0 0 0 0 2 3 4 4 3 1 1 3 2 3 1 4 12 31 34 52 16 4 6 3 8 4 41 142 346 609 668
0 0 0 0 0 0 84 311 125 37 29 0 0 2 0 0 0 0 0 1 1 1 2 2 1 1 2 1 0 1 1 2 2 3 0 0 0 0 2 1 15 45 152 322
0 0 0 0 0 0 514 329 181 23 5 7 1 0 0 0 0 0 0 0 0 0 0 1 2 1 0 0 0 0 0 3 5 4 2 0 0 0 0 0 0 8 54 54
0 0 0 0 0 0 0 263 136 21 0 0 0 0 0 0 0 0 0 0 0 0 0 0 0 0 0 0 0 0 0 0 0 0 0 4 0 1 0 0 0 0 12 30
0 0 0 0 0 0 0 147 116 57 0 0 0 0 0 0 0 0 0 0 0 0 0 0 0 0 0 0 0 0 0 0 0 0 0 0 0 0 0 0 0 0 0 34
0 0 0 0 0 0 0 0 0 0 0 0 0 0 0 0 0 0 0 0 0 0 0 0 0 0 0 0 0 0 0 0 0 0 0 0 0 0 0 0 0 0 18 8
0 0 2 0 0 0 0 0 0 0 0 0 0 0 0 0 0 0 0 0 0 0 0 0 0 0 0 0 0 0 0 0 0 0 0 0 0 0 0 0 0 0 0 0
0 0 0 0 0 0 0 0 0 0 0 0 0 0 0 0 0 0 0 0 0 0 0 0 0 0 0 0 0 0 0 0 0 0 0 0 0 0 0 0 0 0 0 0
0 0 0 0 0 0 0 0 0 0 0 0 0 0 0 0 0 0 0 0 0 0 0 0 0 0 0 0 0 0 0 0 0 0 0 0 0 0 0 0 0 0 0 0
0 0 0 0 0 0 0 0 0 0 0 0 0 0 0 0 0 0 0 0 0 0 0 0 0 0 0 0 0 0 0 0 0 0 0 0 0 0 0 0 0 0 0 0
0 0 0 0 0 0 0 0 0 0 0 0 0 0 0 0 0 0 0 0 0 0 0 0 0 0 0 0 0 0 0 0 0 0 0 0 0 0 0 0 0 0 0 0
0 0 0 0 0 0 0 0 0 0 0 0 0 0 0 0 0 0 0 0 0 0 0 0 0 0 0 0 0 0 0 0 0 0 0 0 0 0 0 0 0 0 0 0
0 0 0 0 0 0 0 0 0 0 0 0 0 0 0 0 0 0 0 0 0 0 0 0 0 0 0 0 0 0 0 0 0 0 0 0 0 0 0 0 0 0 0 0
0 0 0 0 0 0 0 0 0 0 0 0 0 0 0 0 0 0 0 0 0 0 0 0 0 0 0 0 0 0 0 0 0 0 0 0 0 0 0 0 0 0 0 0
0 0 0 0 0 0 0 0 0 0 0 0 0 0 0 0 0 0 0 0 0 0 0 0 0 0 0 0 0 0 0 0 0 0 0 0 0 0 0 0 0 0 0 0
0 0 0 0 0 0 0 0 0 0 0 0 0 0 0 0 0 0 0 0 0 0 0 0 0 0 0 0 0 0 0 0 0 0 0 0 0 0 0 0 0 0 0 0
0 0 0 0 0 0 0 0 0 0 0 0 0 0 0 0 0 0 0 0 0 0 0 0 0 0 0 0 0 0 0 0 0 0 0 0 0 0 0 0 0 0 0 0
0 0 0 0 0 0 0 0 0 0 0 0 0 0 0 0 0 0 0 0 0 0 0 0 0 0 0 0 0 0 0 0 0 0 0 0 0 0 0 0 0 0 0 0
0 0 0 0 0 0 0 0 0 0 0 0 0 0 0 0 0 0 0 0 0 0 0 0 0 0 0 0 0 0 0 0 0 0 0 0 0 0 0 0 0 0 0 0
0 0 0 0 0 0 0 0 0 0 0 0 0 0 1 3 0 0 0 0 0 0 0 0 0 0 0 0 0 0 0 0 0 0 0 0 0 0 0 0 0 0 0 0
0 0 0 0 0 0 0 0 0 0 0 0 6 1 0 0 0 1 0 0 0 0 0 0 0 0 0 0 0 0 0 0 0 0 0 0 0 0 0 0 0 0 0 0
0 0 0 0 0 0 0 0 0 0 0 0 0 0 0 0 0 3 1 1 0 5 0 0 0 0 0 0 0 0 0 0 0 0 0 0 0 0 0 0 0 0 0 0
0 0 0 0 0 0 0 0 0 0 0 0 0 0 0 0 0 0 0 0 0 0 0 0 0 0 0 0 0 0 0 0 0 0 0 0 0 0 0 0 0 0 0 0
0 0 0 0 0 0 0 0 0 0 0 0 0 0 0 0 2 1 0 0 7 4 0 0 0 0 0 0 0 0 0 0 0 0 0 0 0 0 0 0 0 0 0 0
0 0 0 0 0 0 0 0 0 0 0 0 0 0 0 0 13 11 14 8 98 31 1 2 1 1 0 0 0 0 0 0 0 0 0 0 0 0 0 0 0 0 0 0
0 0 0 0 0 0 0 0 0 0 0 0 0 0 0 0 0 5 6 1 0 0 5 2 1 0 0 14 9 0 0 0 0 0 0 0 0 0 0 0 0 0 0 0

GFSNGP_con_sbcape_096.txt.gz
CAPE
0 0 0 0 0 0 0 0 0 0 0 4 43 21 87 12 2 2 4 2 10 53 39 8 49 119 128 127 74 50 33 15 32 34 3 3 2 1 19 101 311 504 472 350
0 0 0 0 0 0 1 21 95 14 45 5 13 65 13 1 4 4 10 4 2 5 2 1 1 6 10 23 58 42 28 20 1 17 3 0 9 1 0 0 0 1 238 382
0 0 0 0 0 0 0 74 96 91 36 79 55 26 0 0 1 5 7 3 7 3 2 2 2 2 1 1 1 2 2 2 4 0 2 0 0 0 0 0 0 0 16 22
0 0 0 0 0 0 53 168 88 41 64 124 42 0 0 0 0 0 0 0 0 3 4 1 0 0 0 0 0 0 0 0 1 4 4 3 0 0 0 0 0 0 0 6
0 0 0 0 0 0 0 102 101 65 81 1 0 0 0 0 0 0 0 0 0 0 2 0 0 0 0 0 0 0 0 0 0 0 0 0 2 4 0 0 0 0 0 44
0 0 0 0 0 0 0 43 145 37 0 0 0 0 0 0 0 0 0 0 0 0 0 0 0 0 0 0 0 0 0 0 0 0 0 0 0 0 0 0 0 0 5 4
0 0 0 0 0 0 0 0 37 7 0 0 0 0 0 0 0 0 0 0 0 0 0 0 0 0 0 0 0 0 0 0 0 0 0 0 0 0 0 0 0 0 0 0
0 0 0 0 0 0 0 0 0 0 0 0 0 0 0 0 0 0 0 0 0 0 0 0 0 0 0 0 0 0 0 0 0 0 0 0 0 0 0 0 0 0 0 0
0 0 0 0 0 0 0 0 0 0 0 0 0 0 0 0 0 0 0 0 0 0 0 0 0 0 0 0 0 0 0 0 0 0 0 0 0 0 0 0 0 0 0 0
0 0 0 0 0 0 0 0 0 0 0 0 0 0 0 0 0 0 0 0 0 0 0 0 0 0 0 0 0 0 0 0 0 0 0 0 0 0 0 0 0 0 0 0
0 0 0 0 0 0 0 0 0 0 0 0 0 0 0 0 0 0 0 0 0 0 0 0 0 0 0 0 0 0 0 0 0 0 0 0 0 0 0 0 0 0 0 0
0 0 0 0 0 0 0 0 0 0 0 0 0 0 0 0 0 0 0 0 0 0 0 0 0 0 0 0 0 0 0 0 0 0 0 0 0 0 0 0 0 0 0 0
0 0 0 0 0 0 0 0 0 0 0 0 0 0 0 0 0 0 0 0 0 0 0 0 0 0 0 0 0 0 0 0 0 0 0 0 0 0 0 0 0 0 0 0
0 0 0 0 0 0 0 0 0 0 0 0 0 0 0 0 0 0 0 0 0 0 0 0 0 0 0 0 0 0 0 0 0 0 0 0 0 0 0 0 0 0 0 0
0 0 0 0 0 0 0 0 0 0 0 0 0 0 0 0 0 0 0 0 0 0 0 0 0 0 0 0 0 0 0 0 0 0 0 0 0 0 0 0 0 0 0 0
0 0 0 0 0 0 0 0 0 0 0 0 0 0 0 0 0 0 0 0 0 0 0 0 0 0 0 0 0 0 0 0 0 0 0 0 0 0 0 0 0 0 0 0
0 0 0 0 0 0 0 0 0 0 0 0 0 0 0 0 0 0 0 0 0 0 0 0 0 0 0 0 0 0 0 0 0 0 0 0 0 0 0 0 0 0 0 0
0 0 0 0 0 0 0 0 0 0 0 0 0 0 0 0 0 0 0 0 0 0 0 0 0 0 0 0 0 0 0 0 0 0 0 0 0 0 0 0 0 0 0 0
0 0 0 0 0 0 0 0 0 0 0 0 0 0 1 0 0 0 0 0 0 0 0 0 0 0 0 0 0 0 0 0 0 0 0 0 0 0 0 0 0 0 0 0
0 0 0 0 0 0 0 0 0 0 0 0 0 0 0 0 0 0 0 0 0 0 0 0 0 0 0 0 0 0 0 0 0 0 0 0 0 0 0 0 0 0 0 0
0 0 0 0 0 0 0 0 0 0 0 0 0 0 0 0 0 0 0 0 0 0 0 0 0 0 0 0 0 0 0 0 0 0 0 0 0 0 0 0 0 0 0 0
0 0 0 0 0 0 0 0 0 0 0 0 0 0 0 0 5 3 2 0 0 0 0 0 0 0 0 0 0 0 0 0 0 0 0 0 0 0 0 0 0 0 0 0
0 0 0 0 0 0 0 0 0 0 0 0 0 0 0 0 0 0 3 2 10 2 0 0 0 0 0 0 0 0 0 0 0 0 0 0 0 0 0 0 0 0 0 0
0 0 0 0 0 0 0 0 0 0 0 0 0 0 0 0 0 0 0 0 0 0 7 0 0 0 1 0 0 0 0 0 0 0 0 0 0 0 0 0 0 0 0 0
0 0 0 0 0 0 0 0 0 0 0 0 0 0 0 1 19 24 24 6 0 2 4 0 13 3 7 0 1 0 0 0 0 0 0 0 0 0 0 0 0 0 0 0
0 0 0 0 0 0 0 0 0 0 0 0 0 0 0 0 0 7 15 16 21 5 8 4 35 67 31 5 0 0 0 0 0 0 0 0 0 0 0 0 0 0 0 0
0 0 0 0 0 0 0 0 0 0 0 0 0 0 0 0 0 0 0 6 0 0 22 36 7 5 2 1 1 1 0 0 0 0 0 0 0 0 0 0 0 0 0 0

GFSNGP_con_sbcape_099.txt.gz
CAPE
0 0 0 0 0 0 0 0 0 0 91 370 420 298 270 199 263 357 337 339 422 473 502 529 587 540 292 211 32 13 36 29 71 196 186 542 694 740 708 1169 1339 1612 1631 1511
25 0 0 0 0 0 0 0 0 84 67 249 369 264 226 201 217 245 235 182 330 335 310 296 437 432 430 217 87 26 60 68 70 40 142 258 301 291 294 366 616 723 796 891
47 0 0 3 0 0 4 44 88 191 298 506 359 325 232 121 109 117 124 86 104 48 8 33 67 39 33 40 50 82 137 110 48 9 4 9 77 126 135 181 207 256 325 460
160 19 51 1 0 0 48 401 393 336 274 321 285 267 76 50 36 40 14 3 4 2 2 1 1 1 0 0 0 0 0 2 4 5 3 1 18 37 41 57 47 117 334 8
189 77 2 0 0 0 0 94 359 289 217 132 32 0 1 8 35 0 1 1 2 1 1 1 0 0 0 0 0 0 0 0 0 3 3 3 3 1 0 2 1 218 3 2
238 157 61 0 0 0 0 226 389 233 158 61 57 144 2 0 0 2 1 2 2 1 3 0 0 0 0 0 0 0 0 0 0 0 0 0 2 0 3 5 31 9 2 0
198 182 53 0 0 0 76 49 336 331 67 137 174 75 0 0 2 4 1 0 0 0 1 0 0 0 0 0 0 0 0 0 0 0 0 0 0 0 0 0 0 0 0 0
3 49 32 8 13 7 0 0 113 64 0 0 0 0 0 0 3 0 0 0 0 0 0 0 0 0 0 0 0 0 0 0 0 0 0 0 0 0 0 0 0 0 0 0
33 72 4 0 0 0 0 0 34 14 0 0 0 0 0 0 0 0 0 0 0 0 0 0 0 0 0 0 0 0 0 0 0 0 0 0 0 0 0 0 0 0 0 0
46 0 0 0 0 0 4 8 0 0 0 0 0 0 0 0 0 0 0 0 0 0 0 0 0 0 0 0 0 0 0 0 0 0 0 0 0 0 0 0 0 0 0 0
15 0 0 0 0 0 35 54 9 0 0 0 0 0 0 0 0 0 0 0 0 0 0 0 0 0 0 0 0 0 0 0 0 0 0 0 0 0 0 0 0 0 0 0
207 0 5 0 0 0 17 67 48 5 0 0 0 0 0 0 0 0 0 0 0 0 0 0 0 0 0 0 0 0 0 0 0 0 0 0 0 0 0 0 0 0 0 0
0 0 0 0 0 0 0 0 0 3 0 0 0 0 0 0 0 0 0 0 0 0 0 0 0 0 0 0 0 0 0 0 0 0 0 0 0 0 0 0 0 0 0 0
0 0 0 0 0 0 0 0 0 0 0 0 0 0 0 0 0 0 0 0 0 0 0 0 0 0 0 0 0 0 0 0 0 0 0 0 0 0 0 0 0 0 0 0
0 0 0 0 0 0 0 0 0 0 0 0 0 0 0 0 0 0 0 0 0 0 0 0 0 0 0 0 0 0 0 0 0 0 0 0 0 0 0 0 0 0 0 0
0 0 0 0 0 0 0 0 0 0 0 0 1 0 0 0 11 0 0 0 0 0 0 0 0 0 0 0 0 0 0 0 0 0 0 0 0 0 0 0 0 0 0 0
0 0 0 0 0 0 0 0 0 0 0 0 0 4 0 0 1 1 0 0 0 0 0 0 0 0 0 0 0 0 0 0 0 0 0 0 0 0 0 0 0 0 0 0
0 0 0 0 0 0 0 0 0 0 0 0 0 0 1 1 7 1 22 6 0 0 0 0 0 0 0 0 0 0 0 0 0 0 0 0 0 0 0 0 0 0 0 0
0 0 0 0 0 0 0 0 0 0 0 0 0 0 0 0 1 17 24 0 0 0 0 0 0 0 0 0 0 0 0 0 0 0 0 0 0 0 0 0 0 0 0 0
0 0 0 0 0 0 0 0 0 2 0 5 0 0 0 0 0 0 5 13 14 1 0 0 0 0 0 0 0 0 0 0 0 0 0 0 0 0 0 0 0 0 0 0
0 3 1 0 0 0 0 3 6 4 0 0 8 16 22 15 6 10 10 1 6 1 0 0 0 0 0 0 0 0 0 0 0 0 0 0 0 0 0 0 0 0 0 0
0 0 0 0 0 0 0 0 0 0 0 0 0 0 0 7 28 55 71 61 84 5 3 0 0 0 0 0 0 12 0 0 0 0 0 0 0 0 0 0 0 0 0 0
0 0 0 0 0 0 0 0 0 0 0 0 0 1 2 5 9 10 7 63 132 96 100 56 3 0 0 1 0 0 32 4 0 0 0 0 0 0 0 0 0 0 0 0
0 0 0 0 0 0 0 0 0 0 0 0 1 1 1 7 4 9 22 8 0 1 7 139 95 0 0 65 1 0 0 35 30 12 0 0 0 0 0 0 0 0 0 0
0 0 0 0 0 0 0 0 0 0 0 0 0 0 0 3 20 16 33 43 22 18 11 4 32 13 92 51 10 34 3 0 0 61 33 49 40 41 36 21 2 1 2 0
0 0 0 0 0 0 0 0 0 0 0 0 0 0 0 0 4 16 43 21 38 15 50 65 47 149 288 231 96 32 11 14 0 0 11 10 46 66 62 44 37 20 7 2
0 0 0 0 0 0 0 0 0 0 0 0 0 0 0 14 28 7 0 59 39 48 28 16 14 1 17 156 260 59 12 2 1 1 3 0 18 93 68 45 33 32 19 22

GFSNGP_con_sbcape_102.txt.gz
CAPE
48 14 5 53 41 0 0 0 6 7 1 6 665 975 1135 860 714 781 684 743 804 812 865 975 1025 678 403 145 54 89 231 258 623 970 1042 1236 1223 1438 1500 1588 1228 1940 1413 1768
82 64 64 38 4 0 0 0 0 2 20 341 798 975 995 824 693 688 830 781 905 853 870 914 954 887 643 540 324 229 67 35 59 143 373 764 1017 1206 1313 1528 1762 1808 1834 1794
102 129 110 88 63 15 17 38 29 17 137 624 1011 963 916 867 764 778 638 666 878 1028 972 1000 1150 990 913 586 373 295 75 40 41 124 154 175 284 618 836 1043 1134 1144 1185 1135
181 181 117 172 70 51 28 88 483 441 547 747 946 782 781 702 636 522 431 229 63 10 4 7 129 442 446 397 409 380 263 136 227 101 32 10 26 104 252 304 510 725 392 144
195 217 160 62 49 28 32 222 566 779 647 592 633 452 268 243 282 261 86 9 4 5 3 2 1 1 1 1 1 1 2 5 14 5 3 3 2 24 69 278 322 426 103 3
218 133 135 150 0 0 1 225 328 574 477 459 257 503 324 175 182 4 5 4 4 3 3 1 0 0 0 0 0 0 0 0 0 0 34 88 64 4 2 162 26 0 0 0
126 126 208 158 27 20 139 169 241 345 345 314 364 133 241 76 18 6 5 4 3 1 3 3 0 0 0 0 0 0 0 0 0 0 6 4 4 9 7 0 0 0 0 0
280 192 160 282 245 271 280 105 209 299 90 9 21 79 155 11 7 3 1 0 0 0 0 0 0 0 0 0 0 0 1 0 0 0 0 1 11 14 3 0 0 0 0 0
415 474 382 367 368 391 348 205 318 366 7 33 52 74 21 6 2 1 0 0 0 0 0 0 1 0 0 0 0 0 0 0 0 0 0 0 4 0 0 0 0 0 0 0
442 303 214 160 204 510 510 370 387 271 13 9 32 17 19 5 2 0 0 0 0 0 0 0 0 0 0 0 0 0 0 0 0 0 0 0 0 0 0 0 0 0 0 0
418 210 135 99 115 331 572 545 365 242 74 0 4 5 2 0 0 4 0 0 0 0 0 0 0 0 0 0 0 0 0 0 0 0 0 0 0 0 0 0 0 0 0 0
434 424 435 167 26 114 383 459 385 217 44 3 0 1 1 2 0 0 0 0 0 0 0 0 0 0 0 0 0 0 0 0 0 0 0 0 0 0 0 0 0 0 0 0
424 205 216 38 0 1 88 199 268 267 170 69 20 0 0 3 0 1 0 0 0 0 0 0 0 0 0 0 0 0 0 0 0 0 0 0 0 0 0 0 0 0 0 0
133 146 149 58 43 1 0 0 0 100 217 240 172 108 75 28 14 61 7 0 0 0 0 0 0 0 0 0 0 0 0 0 0 0 0 0 0 0 0 0 0 0 0 0
28 23 65 1 0 0 0 0 0 38 125 172 188 200 144 144 170 147 34 3 0 0 0 0 0 0 0 0 0 0 0 0 0 0 0 0 0 0 0 0 0 0 0 0
24 0 0 0 0 0 0 0 8 2 2 61 107 113 108 74 127 138 54 0 0 0 0 0 0 0 0 0 0 0 0 0 0 0 0 0 0 0 0 0 0 0 0 0
0 0 0 0 0 0 0 0 0 0 4 9 4 14 86 69 80 146 91 17 5 7 4 0 0 0 0 0 0 0 0 0 0 0 0 0 0 0 0 0 0 0 0 0
0 0 0 0 0 0 0 0 0 0 0 0 0 12 35 52 113 148 164 133 102 91 88 38 7 0 0 0 0 0 0 0 0 0 0 0 0 0 0 0 0 0 0 0
0 0 0 0 0 0 1 0 1 0 0 0 0 2 6 33 73 90 134 150 154 130 142 79 23 9 0 0 0 0 0 0 0 0 0 0 0 0 0 0 0 0 0 0
0 0 1 3 1 2 9 12 14 17 13 3 3 0 2 12 23 39 66 112 150 154 158 111 41 15 10 0 0 0 0 0 0 0 0 0 0 0 0 0 0 0 0 0
0 0 12 25 22 16 17 27 38 51 30 0 1 10 11 17 25 49 120 125 155 122 72 34 29 48 17 0 0 0 0 0 0 0 0 0 1 2 7 7 1 1 0 0
1 16 16 11 4 2 10 19 7 0 0 0 0 0 0 0 2 3 8 54 95 0 54 118 95 68 22 2 0 0 0 0 4 4 1 0 0 5 6 11 14 13 9 5
7 14 4 0 0 5 2 0 0 0 0 2 5 7 2 1 0 0 0 9 7 3 1 3 42 0 15 121 21 0 0 0 1 7 5 5 6 6 13 17 17 21 21 16
0 0 0 0 0 0 3 2 0 0 0 2 7 3 0 0 3 7 17 5 0 1 7 8 10 5 0 152 217 158 18 2 1 10 38 1 25 28 37 44 41 35 35 14
0 0 0 0 0 0 4 0 0 2 4 6 4 2 1 1 5 15 20 26 2 10 43 17 6 6 58 216 94 13 15 70 1 25 21 54 50 87 92 47 60 65 65 62
0 0 0 0 0 0 0 0 0 1 5 7 6 6 8 12 13 27 35 14 26 16 35 25 3 22 59 110 112 66 25 39 84 9 81 3 88 136 220 206 183 200 118 89
0 0 0 0 0 0 0 0 3 1 0 12 29 22 21 11 19 6 7 48 51 52 43 46 28 8 15 14 60 120 275 265 36 8 2 2 23 66 75 79 115 170 175 153

GFSNGP_con_sbcape_105.txt.gz
CAPE
34 7 10 9 20 5 4 3 57 67 66 79 739 911 1389 1563 1453 1713 1489 1093 1068 1230 1447 1530 1249 1062 789 398 387 311 412 884 836 1885 1530 1413 1386 1611 946 1018 1141 1210 1217 2236
97 9 17 19 42 27 40 15 11 10 33 214 1057 1213 1568 1391 991 1139 1110 1211 1318 1295 1278 1465 1460 1288 1141 779 637 387 364 515 951 1104 1189 1479 1413 1396 1416 1283 1257 1308 1337 1527
113 47 64 34 41 53 32 29 44 67 38 744 712 984 1302 1292 944 894 1279 1082 1240 1078 1134 1204 1330 1303 1165 859 540 619 291 280 272 350 240 386 587 1095 1161 1186 1269 1431 1262 1300
194 74 96 134 102 118 56 90 88 212 102 690 812 1263 1178 1160 942 882 726 988 886 654 611 669 1278 1472 1339 1184 1007 687 674 365 256 144 161 227 177 124 234 548 927 942 824 277
263 115 48 59 154 148 86 277 574 478 426 564 1230 1200 701 712 657 705 484 134 28 30 6 5 51 550 986 919 770 700 570 528 379 296 166 21 11 54 97 247 433 272 165 88
344 287 169 196 45 24 74 147 192 161 776 874 879 918 905 524 305 231 12 11 9 6 7 2 3 3 2 3 4 3 2 44 50 76 1 1 0 0 0 3 2 16 0 0
225 202 217 98 24 2 139 317 210 501 632 489 747 621 810 470 121 9 8 8 6 2 5 6 3 1 5 1 3 3 0 0 0 0 0 5 5 29 6 1 0 0 0 0
345 207 114 231 269 393 418 327 278 499 431 352 163 287 19 3 7 9 5 3 1 1 2 0 0 0 1 1 0 1 0 5 0 0 0 2 28 3 2 1 0 0 0 0
226 419 505 466 502 567 434 350 384 520 320 296 214 9 9 7 8 5 2 1 0 0 2 3 0 0 0 0 0 0 6 16 14 3 7 20 13 15 2 0 0 0 0 0
381 404 384 377 584 747 725 528 478 537 190 118 7 7 9 25 7 8 4 0 0 0 0 0 0 0 0 0 0 0 0 4 1 0 4 9 19 4 5 18 17 13 7 0
407 221 322 227 373 631 829 690 537 419 241 0 1 7 5 10 18 21 7 1 0 0 0 0 0 0 0 0 0 0 5 0 0 0 0 0 0 0 0 0 0 0 1 0
609 824 646 401 225 372 510 714 490 318 151 2 0 1 1 1 2 1 7 17 0 0 0 0 0 0 0 0 0 0 0 0 0 0 0 0 0 0 0 0 0 0 0 0
723 549 614 326 124 73 198 339 593 521 191 2 0 0 0 0 0 0 0 0 11 7 0 0 0 0 0 0 0 0 0 0 0 0 0 0 0 0 0 0 0 0 0 0
459 482 430 275 305 81 30 41 88 574 517 199 26 35 9 2 9 27 1 0 13 16 4 0 0 0 0 0 0 0 0 0 0 0 0 0 0 0 0 0 0 0 0 0
435 385 413 356 255 181 73 35 95 240 373 349 263 118 128 23 43 1 54 73 84 65 1 0 0 0 0 0 0 0 0 0 0 0 0 0 0 0 0 0 0 0 0 0
303 173 69 39 38 22 10 18 24 61 138 198 319 263 231 240 172 131 141 67 86 82 55 3 0 0 0 0 0 0 0 0 0 0 0 0 0 0 0 0 0 0 0 0
218 47 0 0 0 0 0 2 10 65 63 44 82 117 193 237 210 217 244 179 75 75 83 55 7 0 0 0 0 0 0 0 0 0 0 0 0 0 0 0 0 0 0 0
1 2 0 0 0 0 0 0 0 0 2 20 46 79 95 179 202 197 228 233 102 31 62 44 36 9 0 0 0 0 0 0 0 0 0 0 0 0 0 0 0 0 0 0
0 0 0 0 0 3 8 6 9 14 9 5 4 14 39 64 83 98 145 168 162 183 148 218 39 6 9 0 0 0 0 0 0 0 0 0 0 0 0 0 0 0 0 0
0 0 0 0 1 6 11 19 27 40 48 45 40 30 28 36 55 55 83 136 156 165 243 198 191 83 43 37 0 0 0 0 0 0 0 0 0 0 0 0 0 0 0 0
0 0 0 3 5 7 7 7 18 27 47 45 22 12 17 22 29 40 63 65 146 167 195 47 197 143 110 55 24 0 0 2 0 0 0 0 0 0 0 1 0 0 1 0
0 6 17 27 39 33 21 10 9 20 18 8 1 0 1 0 1 1 10 3 41 5 37 139 91 80 152 114 45 43 28 2 1 0 0 0 3 4 3 8 12 8 5 8
0 3 20 37 37 36 26 8 6 5 4 0 2 8 6 5 4 3 10 26 5 3 0 5 14 1 10 59 96 91 80 57 22 0 0 11 8 8 17 12 11 14 19 20
0 2 12 19 24 9 7 4 3 2 2 8 7 5 0 6 27 17 7 0 0 0 5 12 0 0 0 40 119 106 99 82 145 0 0 0 1 0 2 29 38 31 39 30
28 42 35 8 2 0 0 15 7 6 6 20 12 4 2 0 10 14 15 10 0 1 28 0 0 1 14 30 101 141 243 222 97 24 44 124 14 4 12 67 59 68 81 77
98 47 27 20 0 0 9 5 3 13 20 27 23 26 27 30 23 20 49 16 31 12 47 47 9 16 24 47 65 182 213 306 68 57 91 179 7 0 78 168 113 84 44 56
3 3 25 0 0 0 0 0 5 10 0 16 30 34 32 35 33 4 10 27 37 30 30 35 53 17 19 8 7 44 148 109 40 126 98 25 10 8 43 20 39 37 52 44

GFSNGP_con_sbcape_108.txt.gz
CAPE
0 13 9 14 6 14 0 1 22 47 116 724 679 678 623 1212 1489 1590 1460 1197 1051 747 859 1490 452 491 668 421 766 1067 1065 1157 454 758 1283 1801 1541 2254 1695 2024 1594 1713 1910 2025
28 3 7 5 0 26 25 4 0 13 16 414 872 991 1029 1407 1821 1642 1225 1050 1348 1488 1230 1300 1277 934 690 711 741 591 421 467 707 816 773 625 783 1226 1603 1916 1754 1786 1643 1843
29 19 4 0 5 7 62 34 15 18 372 117 548 715 295 929 1207 1506 1430 1477 1644 1278 1284 1611 1532 1637 1248 1381 1251 950 610 648 843 1067 725 455 593 888 796 1067 1363 1497 1709 1538
126 96 80 105 113 95 21 47 239 478 474 287 587 0 0 567 1009 1034 1120 683 580 876 1116 1236 1378 1212 1123 1376 1150 964 809 732 431 326 187 102 134 432 525 278 341 478 188 108
109 89 86 175 127 82 7 284 303 273 133 2 154 163 439 658 677 669 148 7 5 4 4 2 29 656 1135 1260 1164 1085 960 561 329 276 74 93 51 72 73 106 110 1 0 0
427 118 229 213 106 29 1 173 351 385 408 42 287 225 371 525 167 1 2 4 6 9 5 2 2 1 0 2 217 241 498 409 407 355 159 25 1 0 16 51 2 0 0 0
238 238 384 134 64 0 14 324 236 255 398 628 657 221 24 5 6 5 7 5 2 4 4 3 3 4 4 5 2 1 0 0 43 97 43 1 2 97 8 0 0 0 0 0
264 138 133 28 309 137 337 405 219 341 320 471 563 127 5 3 5 5 4 3 3 1 4 2 0 0 1 1 0 0 0 0 0 0 0 2 0 0 0 0 0 0 0 0
112 254 249 384 500 439 273 376 498 430 497 129 2 6 6 7 5 4 3 4 3 1 0 0 0 0 0 0 0 0 0 0 0 14 5 10 0 1 0 0 0 0 0 0
552 166 49 332 486 650 669 657 636 496 82 0 2 4 6 8 7 5 1 0 0 0 0 0 0 0 0 0 0 0 0 0 0 0 0 0 0 0 0 0 0 1 7 0
337 481 472 312 541 634 782 656 667 343 24 2 2 5 7 8 12 18 5 0 0 0 0 0 0 0 0 0 0 0 0 0 0 0 0 0 0 0 0 0 0 0 0 0
518 425 903 499 303 374 886 770 583 353 109 5 1 0 0 0 0 0 5 12 0 0 0 0 0 0 0 0 0 0 0 0 0 0 0 0 0 0 0 0 0 0 0 0
783 585 491 443 139 132 222 953 685 439 238 21 4 0 0 1 0 0 0 0 3 0 0 0 0 0 0 0 0 0 0 0 0 0 0 0 0 0 0 0 0 0 0 0
574 408 362 111 136 37 27 165 679 450 141 15 2 1 2 1 0 0 0 0 0 0 0 0 0 0 0 0 0 0 0 0 0 0 0 0 0 0 0 0 0 0 0 0
228 171 180 147 270 105 74 38 176 628 408 238 65 8 6 28 32 20 15 10 0 1 0 0 0 0 0 0 0 0 0 0 0 0 0 0 0 0 0 0 1 0 0 0
234 161 103 212 85 75 45 59 37 402 532 387 351 263 187 103 51 53 58 56 16 0 7 5 2 0 0 0 0 0 0 0 0 0 0 0 0 0 0 0 0 0 0 0
232 130 18 1 5 10 9 11 32 62 95 588 547 304 390 398 272 249 232 158 161 115 74 58 41 29 0 0 0 0 0 0 0 0 0 0 0 0 0 0 0 0 0 0
139 37 5 0 0 0 0 0 0 0 12 30 185 191 92 334 159 270 264 329 255 247 207 208 88 41 0 0 0 0 0 0 0 0 0 0 0 0 0 0 0 0 0 0
0 0 0 0 0 0 1 0 1 5 0 0 0 0 3 80 291 471 394 237 268 276 352 311 134 90 46 9 0 0 0 0 0 0 0 0 0 0 0 0 0 0 0 0
0 0 0 0 0 0 1 2 3 12 31 25 29 15 2 2 16 43 62 117 246 198 367 268 95 226 110 91 20 0 0 2 0 0 0 0 0 0 0 0 0 0 0 0
0 0 0 0 0 2 4 6 13 20 24 34 25 3 1 29 26 45 46 18 66 49 188 160 223 179 276 192 54 8 0 8 11 15 7 0 0 0 0 0 0 0 1 2
0 0 0 0 5 12 22 16 12 16 30 43 1 0 0 2 0 2 49 49 15 0 5 68 44 0 79 72 192 47 31 20 8 23 36 19 8 1 1 10 16 18 4 9
0 1 3 7 24 32 22 9 0 2 9 2 4 7 9 5 14 11 64 4 11 0 0 0 0 0 0 0 15 97 47 50 61 37 7 24 0 2 0 6 14 23 51 41
254 291 104 43 21 47 44 1 0 15 1 1 5 11 7 0 8 5 0 0 0 0 0 0 0 0 0 0 0 40 166 236 160 159 105 0 0 0 2 31 22 16 54 58
514 436 190 174 194 65 98 21 6 1 1 2 16 4 0 0 39 16 37 0 0 1 14 0 0 0 0 15 26 39 221 231 288 304 320 110 33 0 0 2 0 0 0 5
888 64 80 114 13 1 0 5 17 12 10 28 10 0 6 4 0 0 18 23 32 7 52 62 27 11 2 0 0 26 147 288 193 276 255 332 313 117 27 16 98 6 10 12
466 52 43 31 1 0 0 46 31 24 1 42 28 29 31 22 49 19 6 40 28 39 35 38 24 11 6 5 17 10 15 96 39 133 211 98 75 273 265 267 142 10 20 40

GFSNGP_con_sbcape_111.txt.gz
CAPE
1 4 0 0 0 2 4 0 0 180 475 189 48 33 111 0 170 304 168 170 264 196 100 36 0 0 2 0 35 129 266 571 401 577 657 754 942 466 1080 1139 882 747 765 752
7 3 1 2 5 0 0 8 3 413 327 88 8 166 112 28 448 759 687 552 567 375 259 5 0 0 0 0 1 415 186 279 311 317 367 374 397 306 409 311 329 435 511 191
7 31 3 0 14 16 30 314 355 691 470 350 0 2 43 0 70 32 283 286 757 864 865 692 103 0 223 158 309 233 138 163 218 356 343 330 241 308 323 223 199 144 67 0
109 20 38 138 5 3 283 414 223 340 459 24 0 0 5 175 176 3 3 1 7 24 23 105 802 468 538 368 338 271 233 398 487 424 179 74 58 85 219 158 133 44 1 0
97 26 123 182 58 0 107 201 216 382 1 284 91 21 1 1 1 4 4 2 5 5 6 4 3 291 559 524 281 340 332 359 288 134 40 26 0 0 55 16 0 0 0 0
177 207 165 179 63 3 0 186 377 422 391 437 305 83 216 4 1 3 1 2 4 5 3 3 4 3 0 113 201 381 363 321 260 151 50 0 0 0 1 0 0 0 0 0
85 3 133 16 52 94 1 161 437 252 405 127 37 26 4 1 2 1 2 1 1 5 5 6 2 0 0 5 3 3 8 172 115 32 17 7 1 0 0 0 0 0 0 0
63 90 0 9 188 211 102 0 352 405 375 87 2 2 2 3 3 2 1 1 1 1 1 1 1 2 2 2 1 0 0 0 0 0 0 0 0 0 0 0 0 0 0 0
170 196 85 55 42 3 3 508 443 134 0 0 0 1 1 3 2 1 2 1 0 0 0 0 0 0 0 1 0 0 0 0 1 0 0 0 0 0 0 0 0 0 0 0
265 135 199 49 251 244 479 355 201 80 0 0 1 4 4 2 0 0 0 0 0 0 0 0 0 0 0 0 0 0 0 0 0 0 0 0 0 0 0 0 0 0 0 0
210 14 34 201 507 678 791 449 191 12 0 0 0 3 1 0 0 0 0 0 0 0 0 0 0 0 0 0 0 0 0 0 0 0 0 0 0 0 0 0 0 0 0 0
405 59 350 357 458 778 658 521 213 15 0 2 0 0 0 0 0 0 0 0 0 0 0 0 0 0 0 0 0 0 0 0 0 0 0 0 0 0 0 0 0 0 0 0
511 521 118 180 169 780 656 483 191 2 0 0 0 0 0 0 0 0 0 0 0 0 0 0 0 0 0 0 0 0 0 0 0 0 0 0 0 0 0 0 0 0 0 0
526 396 358 293 35 274 732 539 269 13 0 0 0 0 0 0 0 0 0 0 0 0 0 0 0 0 0 0 0 0 0 0 0 0 0 0 0 0 0 0 0 0 0 0
411 256 184 155 144 52 8 451 268 73 12 0 2 0 0 0 0 0 0 0 0 0 0 0 0 0 0 0 0 0 0 0 0 0 0 0 0 0 0 0 0 0 0 0
259 143 261 142 74 70 80 66 322 140 53 17 13 0 0 2 0 0 0 0 0 0 0 0 0 0 0 0 0 0 0 0 0 0 0 0 0 0 0 0 0 0 0 0
191 98 0 2 8 4 0 0 29 329 288 46 44 16 7 16 11 19 27 28 26 21 12 9 0 0 0 0 0 0 0 0 0 0 0 0 0 0 0 0 0 0 0 0
299 201 0 0 0 0 0 0 0 1 17 1 279 381 267 137 31 41 72 73 76 54 38 35 11 0 0 0 0 0 0 0 0 0 0 0 0 0 0 0 0 0 0 0
127 15 0 0 0 0 0 0 0 0 0 0 0 0 8 1 13 143 166 132 71 39 36 40 52 15 0 0 0 0 0 0 0 0 0 0 0 0 0 0 0 0 0 0
0 0 0 0 0 0 0 0 0 0 0 0 0 0 0 0 0 4 18 24 26 47 63 64 49 22 5 3 17 0 0 0 0 0 0 0 0 0 0 0 0 0 0 0
0 0 0 0 0 0 0 4 1 2 25 14 1 0 0 0 0 0 0 0 0 0 27 74 51 22 23 14 14 0 0 0 0 0 0 0 0 0 0 0 0 0 0 0
0 0 0 0 0 0 0 0 0 0 21 17 6 0 0 0 0 0 0 5 0 0 2 0 0 0 0 3 7 3 0 0 0 6 0 0 0 0 0 0 0 0 0 0
0 0 0 0 0 0 1 5 0 0 6 0 0 0 0 0 0 0 0 0 0 0 0 0 0 0 0 0 0 0 1 5 0 0 2 5 1 0 0 0 0 1 0 0
0 0 0 0 0 7 2 0 0 0 0 0 0 0 0 0 0 0 0 0 0 0 0 0 0 0 0 0 0 0 0 1 0 0 7 10 0 0 0 0 1 8 0 1
52 12 1 0 1 0 0 0 0 0 0 0 0 0 0 0 0 0 0 0 0 0 0 0 0 0 0 0 0 0 0 0 3 8 8 10 0 0 0 0 0 0 0 0
489 128 12 0 1 1 0 0 0 0 0 6 0 0 0 0 0 4 12 4 0 0 16 0 0 0 0 0 0 0 0 0 0 0 0 1 8 4 0 0 0 0 0 0
927 327 80 18 2 0 0 0 0 0 0 4 0 0 0 0 0 0 11 12 0 0 15 32 14 0 2 0 1 4 2 6 0 9 0 0 0 0 0 0 0 0 0 0

GFSNGP_con_sbcape_114.txt.gz
CAPE
0 0 0 0 0 0 0 0 0 3 162 82 257 43 0 8 4 21 31 8 119 90 78 47 43 33 24 38 26 17 37 207 336 298 312 339 235 185 271 210 288 376 343 0
0 0 0 0 19 313 275 168 392 363 332 72 65 23 0 59 7 0 0 2 197 171 152 27 17 4 0 0 76 139 96 158 214 171 232 331 309 353 309 142 131 71 75 0
0 0 0 33 199 340 271 462 435 186 72 0 0 36 106 50 27 10 4 2 4 93 49 11 4 0 0 0 0 51 70 95 116 108 124 127 218 219 284 131 49 20 0 0
5 0 4 9 46 287 285 237 258 287 9 0 21 27 2 3 0 2 1 3 1 3 4 2 1 0 8 0 2 165 112 94 125 146 126 47 65 165 238 104 85 8 0 0
18 0 34 66 1 0 82 198 318 374 280 14 11 20 4 6 5 5 6 13 7 6 3 4 4 1 146 104 177 173 136 155 147 113 31 7 11 41 34 4 1 1 0 0
4 26 6 11 0 18 0 51 156 224 157 95 85 94 10 6 2 4 2 3 2 5 1 3 1 2 0 46 161 160 101 64 60 30 12 4 9 15 1 0 0 0 0 0
104 10 47 37 2 0 0 0 154 222 100 15 4 1 2 2 2 1 2 1 1 0 1 2 1 2 1 1 2 3 49 74 28 16 0 0 0 1 0 0 0 0 0 0
5 14 0 1 53 91 32 0 342 142 5 1 0 0 0 1 1 2 1 0 0 1 1 0 0 0 2 1 1 1 1 2 1 2 1 0 0 0 0 0 0 0 0 0
0 2 0 0 3 0 0 267 43 32 0 0 0 0 0 3 1 0 0 0 0 0 0 0 0 0 0 1 1 1 1 1 1 0 0 0 0 0 0 0 0 0 0 0
50 7 0 44 0 324 141 142 10 0 0 0 0 1 3 1 0 0 0 0 0 0 0 0 0 0 0 0 0 0 2 1 0 1 0 0 1 0 0 0 0 0 0 0
2 70 10 33 169 399 215 25 0 0 0 0 0 0 0 0 0 0 0 0 0 0 0 0 0 0 0 0 0 0 0 0 0 0 0 0 0 0 0 0 0 0 0 0
35 15 4 40 93 441 163 2 0 0 0 0 0 0 0 0 0 0 0 0 0 0 0 0 0 0 0 0 0 0 0 0 0 0 0 0 0 0 0 0 0 0 0 0
197 0 7 150 583 555 173 7 0 0 0 0 0 0 0 0 0 0 0 0 0 0 0 0 0 0 0 0 0 0 0 0 0 0 0 0 0 0 0 0 0 0 0 0
106 66 72 15 492 477 263 32 0 0 0 0 0 0 0 0 0 0 0 0 0 0 0 0 0 0 0 0 0 0 0 0 0 0 0 0 0 0 0 0 0 0 0 0
193 66 35 2 457 489 380 37 7 0 0 0 0 0 0 0 0 0 0 0 0 0 0 0 0 0 0 0 0 0 0 0 0 0 0 0 0 0 0 0 0 0 0 0
82 20 8 0 54 299 349 258 74 3 2 0 0 0 0 0 0 0 0 0 0 0 0 0 0 0 0 0 0 0 0 0 0 0 0 0 0 0 0 0 0 0 0 0
0 0 3 1 0 5 5 191 101 16 1 0 0 0 0 0 0 0 0 0 0 0 0 0 0 0 0 0 0 0 0 0 0 0 0 0 0 0 0 0 0 0 0 0
0 0 0 0 0 0 0 0 57 23 1 3 0 8 0 0 0 0 0 0 0 0 0 0 0 0 0 0 0 0 0 0 0 0 0 0 0 0 0 0 0 0 0 0
0 0 0 0 0 0 0 0 0 0 0 0 3 17 3 0 0 0 0 0 2 2 4 0 0 7 0 0 0 0 0 0 0 0 0 0 0 0 0 0 0 0 0 0
0 0 0 0 0 0 0 0 0 0 0 0 0 0 0 0 1 2 1 2 1 0 0 0 10 21 0 0 10 0 0 0 0 0 0 0 0 0 0 0 0 0 0 0
0 0 0 0 0 0 0 0 0 0 0 0 0 0 0 0 0 0 0 0 0 0 0 0 7 8 0 0 13 0 0 0 0 0 0 0 0 0 0 0 0 0 0 0
0 0 0 0 0 0 0 0 0 0 0 0 0 0 0 0 0 0 0 0 0 0 0 0 0 0 0 7 13 2 0 0 0 0 0 0 0 0 0 0 0 0 0 0
0 0 0 0 0 0 0 0 0 0 0 0 0 0 0 0 0 0 0 0 0 0 0 0 0 0 0 0 0 0 0 0 0 0 0 0 0 0 0 0 0 0 0 0
0 0 0 0 0 0 0 0 0 0 0 0 0 0 0 0 0 0 0 0 0 0 0 0 0 0 0 0 0 0 0 0 0 0 0 0 0 0 0 0 0 0 0 0
0 0 0 0 0 0 0 0 0 0 0 0 0 0 0 0 0 0 0 0 0 0 0 0 0 0 0 0 0 0 0 0 0 0 0 0 0 0 0 0 0 0 0 0
0 0 0 0 0 0 0 0 0 0 0 0 0 0 0 0 0 0 0 0 0 0 0 0 0 0 0 0 0 0 0 0 0 0 0 0 0 0 0 0 0 0 0 0
3 0 0 0 0 0 0 0 0 0 0 0 0 0 0 0 0 0 0 0 0 0 0 0 0 0 0 0 0 0 0 0 0 0 0 0 0 0 0 0 0 0 0 0

GFSNGP_con_sbcape_117.txt.gz
CAPE
0 0 0 0 207 190 65 5 0 77 180 122 181 6 28 1 5 29 44 68 127 5 58 147 203 314 521 493 343 352 332 402 366 310 215 203 132 117 107 22 0 0 87 35
0 0 0 332 237 165 210 321 307 292 149 0 204 135 84 44 0 0 2 24 44 101 105 124 156 177 241 175 162 157 250 376 394 280 234 214 225 208 224 97 95 26 69 0
0 0 8 0 89 225 244 329 199 38 20 20 82 10 11 4 5 1 1 2 5 5 11 2 4 0 0 0 2 52 71 73 161 160 154 198 203 259 172 99 24 0 0 0
0 0 1 0 3 261 251 182 197 24 75 60 25 6 6 7 4 6 0 5 4 1 4 2 2 1 0 0 0 7 21 29 101 94 95 117 136 162 119 90 70 0 0 0
0 0 0 10 0 0 4 213 157 260 48 73 22 0 2 4 5 3 2 2 3 2 2 3 1 1 0 1 0 1 47 86 60 70 46 28 35 39 29 74 67 1 1 0
0 19 20 10 0 0 0 207 118 202 232 230 114 30 3 2 2 2 2 1 1 1 1 1 0 1 69 63 159 104 77 82 79 47 11 4 2 6 1 1 1 0 1 0
0 0 1 70 0 2 22 0 209 229 49 4 13 1 2 1 0 0 0 0 0 0 0 0 1 1 1 1 2 0 142 58 22 2 5 3 1 2 2 0 0 0 0 0
0 1 6 5 20 49 0 0 313 206 8 0 2 2 1 2 1 0 0 0 0 0 0 0 0 1 2 0 1 1 1 2 24 17 2 1 1 0 0 0 0 0 0 0
0 0 0 0 1 0 0 233 384 115 0 0 1 1 0 1 0 0 0 0 0 0 0 0 0 0 0 1 1 1 0 2 1 1 1 3 1 1 0 0 0 0 0 0
13 0 0 3 0 128 179 122 12 0 0 0 0 0 1 0 0 0 0 0 0 0 0 0 0 0 0 0 0 1 1 2 1 3 5 5 5 2 0 0 0 0 0 0
0 18 0 0 16 261 22 0 0 0 0 0 0 0 0 0 0 0 0 0 0 0 0 0 0 0 0 0 0 0 0 0 1 1 0 0 1 2 2 0 0 0 0 0
98 28 10 4 61 49 0 0 0 0 0 0 0 0 0 0 0 0 0 0 0 0 0 0 0 0 0 0 0 0 0 0 0 0 0 0 0 1 0 0 0 0 0 0
109 0 0 1 289 152 1 0 0 0 0 0 0 0 0 0 0 0 0 0 0 0 0 0 0 0 0 0 0 0 0 0 0 0 0 0 0 0 0 0 0 0 0 0
0 11 100 422 465 265 15 0 0 0 0 0 0 0 0 0 0 0 0 0 0 0 0 0 0 0 0 0 0 0 0 0 0 0 0 0 0 0 0 0 0 0 0 0
0 0 38 127 294 171 18 0 0 0 0 0 0 0 0 0 0 0 0 0 0 0 0 0 0 0 0 0 0 0 0 0 0 0 0 0 0 0 0 0 0 0 0 0
37 0 0 253 259 162 20 0 0 0 0 0 0 0 0 0 0 0 0 0 0 0 0 0 0 0 0 0 0 0 0 0 0 0 0 0 0 0 0 0 0 0 0 0
81 21 0 345 294 284 145 30 0 0 0 0 0 0 0 0 0 0 0 0 0 0 0 0 0 0 0 0 0 0 0 0 0 0 0 0 0 0 0 0 0 0 0 0
0 0 0 16 27 180 100 112 21 0 0 0 0 0 0 0 0 0 0 0 0 0 0 0 0 0 0 0 0 0 0 0 0 0 0 0 0 0 0 0 0 0 0 0
0 0 0 0 0 0 0 0 8 0 0 0 0 0 0 0 0 0 0 0 0 0 0 0 0 1 0 0 0 0 0 0 0 0 0 0 0 0 0 0 0 0 0 0
0 0 0 0 0 0 0 0 0 0 0 0 0 0 0 0 0 0 0 0 1 0 0 0 0 0 3 0 9 0 0 0 0 0 0 0 0 0 0 0 0 0 0 0
0 0 0 0 0 0 0 0 0 0 0 0 0 0 0 0 0 0 0 0 0 0 0 0 0 0 0 0 2 0 0 0 0 0 0 0 0 0 0 0 0 0 0 0
0 0 0 0 0 0 0 0 0 0 0 0 0 0 0 0 0 0 0 0 0 0 0 0 0 0 0 17 0 0 0 0 0 0 0 0 0 0 0 0 0 0 0 0
0 0 0 0 0 0 0 0 0 0 0 0 0 0 0 0 0 0 0 0 0 0 0 0 0 0 0 0 0 0 0 0 0 0 0 0 0 0 0 0 0 0 0 0
0 0 0 0 0 0 0 0 0 0 0 0 0 0 0 0 0 0 0 0 0 0 0 0 0 0 0 0 0 0 0 0 0 0 0 0 0 0 0 0 0 0 0 0
0 0 0 0 0 0 0 0 0 0 0 0 0 0 0 0 0 0 0 0 0 0 0 0 0 0 0 0 0 0 0 0 0 0 0 0 0 0 0 0 0 0 0 0
0 0 0 0 0 0 0 0 0 0 0 0 0 0 0 0 0 0 0 0 0 0 0 0 0 0 0 0 0 0 0 0 0 0 0 0 0 0 0 0 0 0 0 0
0 0 0 0 0 0 0 0 0 0 0 0 0 0 0 0 0 0 0 0 0 0 0 0 0 0 0 0 0 0 0 0 0 0 0 0 0 0 0 0 0 0 0 0

GFSNGP_con_sbcape_120.txt.gz
CAPE
0 0 0 0 155 261 211 32 0 32 215 88 79 75 81 1 0 52 69 93 24 33 52 82 127 113 163 221 402 285 271 299 285 256 263 233 177 95 61 0 0 0 0 51
0 0 186 369 219 167 371 412 234 151 29 27 75 9 2 82 21 1 11 23 182 94 155 148 174 172 298 423 413 378 242 328 316 210 249 274 221 173 148 151 14 0 122 67
0 0 39 1 50 223 172 142 85 68 63 213 36 13 8 4 6 6 3 5 38 74 37 57 5 19 34 17 73 79 79 101 211 196 176 144 179 168 188 160 52 105 4 0
0 0 0 0 5 275 311 236 43 71 107 99 7 5 5 5 5 5 5 4 4 4 3 11 3 0 0 0 6 27 37 49 60 52 114 55 87 131 126 130 15 5 0 0
0 0 0 21 4 15 162 261 228 167 90 41 1 0 0 3 3 3 4 4 2 2 2 2 1 1 8 0 0 0 11 29 50 37 10 36 36 33 43 86 66 20 0 1
0 0 36 0 0 13 50 185 245 334 144 111 150 47 6 1 0 1 1 2 1 1 2 2 1 1 25 55 33 32 32 19 21 55 40 39 1 0 1 1 1 1 1 0
0 0 0 0 0 9 128 3 279 164 23 1 21 1 0 0 0 0 0 0 0 0 1 1 1 1 13 2 1 1 0 45 37 50 29 4 1 1 1 1 0 1 0 1
0 0 0 0 0 18 1 21 387 68 0 1 1 1 1 0 0 0 0 0 0 0 0 0 0 1 1 1 2 2 0 12 12 5 2 1 1 0 1 3 1 1 0 0
0 0 0 0 0 0 1 208 265 4 0 0 0 0 0 0 0 0 0 0 0 0 0 0 0 0 0 2 1 1 1 1 1 0 1 1 1 1 1 1 0 0 0 0
19 0 2 0 5 36 178 164 0 0 0 0 0 0 0 0 0 0 0 0 0 0 0 0 0 0 0 2 1 0 1 1 1 3 1 1 1 1 1 1 9 5 0 0
0 1 0 0 0 274 25 0 0 0 0 0 0 0 0 0 0 0 0 0 0 0 0 0 0 0 0 0 0 0 0 1 1 6 2 4 4 5 4 4 6 0 3 0
74 0 14 0 32 146 36 0 0 0 0 0 0 0 0 0 0 0 0 0 0 0 0 0 0 0 0 0 0 0 0 0 0 0 0 0 1 2 2 1 7 0 0 0
80 0 0 3 248 83 15 0 0 0 0 0 0 0 0 0 0 0 0 0 0 0 0 0 0 0 0 0 0 0 0 0 0 0 0 0 0 0 0 0 0 0 0 0
0 6 288 465 480 104 5 0 0 0 0 0 0 0 0 0 0 0 0 0 0 0 0 0 0 0 0 0 0 0 0 0 0 0 0 0 0 0 0 0 0 0 0 0
0 0 0 227 322 95 0 0 0 0 0 0 0 0 0 0 0 0 0 0 0 0 0 0 0 0 0 0 0 0 0 0 0 0 0 0 0 0 0 0 0 0 0 0
0 0 148 426 312 57 0 0 0 0 0 0 0 0 0 0 0 0 0 0 0 0 0 0 0 0 0 0 0 0 0 0 0 0 0 0 0 0 0 0 0 0 0 0
0 0 102 259 189 44 7 0 0 0 0 0 0 0 0 0 0 0 0 0 0 0 0 0 0 0 0 0 0 0 0 0 0 0 0 0 0 0 0 0 0 0 0 0
0 0 0 112 111 91 20 0 0 0 0 0 0 0 0 0 0 0 0 0 0 0 0 0 0 0 0 0 0 0 0 0 0 0 0 0 0 0 0 0 0 0 0 0
0 0 0 0 12 68 63 11 0 0 0 0 0 0 0 0 0 0 0 0 0 0 0 0 0 1 0 0 0 0 0 0 0 0 0 0 0 0 0 0 0 0 0 0
0 0 0 0 0 0 0 0 0 0 0 0 0 0 0 0 0 0 0 0 0 0 0 0 0 0 0 0 20 0 0 0 0 0 0 0 0 0 0 0 0 0 0 0
0 0 0 0 0 0 0 0 0 0 0 0 0 0 0 0 0 0 0 0 0 0 0 0 0 0 0 0 13 0 0 0 0 0 0 0 0 0 0 0 0 0 0 0
0 0 0 0 0 0 0 0 0 0 0 0 0 0 0 0 0 0 0 0 0 0 0 0 0 0 0 3 0 0 0 0 0 0 0 0 0 0 0 0 0 0 0 0
0 0 0 0 0 0 0 0 0 0 0 0 0 0 0 0 0 0 0 0 0 0 0 0 0 0 0 0 0 0 0 0 0 0 0 0 0 0 0 0 0 0 0 0
0 0 0 0 0 0 0 0 0 0 0 0 0 0 0 0 0 0 0 0 0 0 0 0 0 0 0 0 0 0 0 0 0 0 0 0 0 0 0 0 0 0 0 0
0 0 0 0 0 0 0 0 0 0 0 0 0 0 0 0 0 0 0 0 0 0 0 0 0 0 0 0 0 0 0 0 0 0 0 0 0 0 0 0 0 0 0 0
0 0 0 0 0 0 0 0 0 0 0 0 0 0 0 0 0 0 0 0 0 0 0 0 0 0 0 0 0 0 0 0 0 0 0 0 0 0 0 0 0 0 0 0
0 0 0 0 0 0 0 0 0 0 0 0 0 0 0 0 0 0 0 0 0 0 0 0 0 0 0 0 0 0 0 0 0 0 0 0 0 0 0 0 0 0 0 2

GFSNGP_con_sbcape_126.txt.gz
CAPE
47 74 133 195 309 476 258 295 225 158 185 883 865 460 279 206 204 444 418 500 409 217 251 243 399 681 716 762 1059 1154 1105 1164 1256 1326 1417 1278 1183 1268 1415 1345 1242 1460 1592 1345
68 30 140 349 421 371 466 467 406 408 353 862 766 352 203 133 95 72 27 16 50 331 310 441 569 693 775 659 534 902 530 802 1112 1346 1273 1143 1598 1687 1751 1783 1649 1618 1558 1430
104 62 19 124 350 326 335 480 484 387 799 988 791 357 109 122 55 13 7 6 9 10 10 67 340 487 568 1067 1249 518 1212 846 966 1233 1456 1297 1547 927 1214 1534 1552 1638 1535 1409
54 75 114 257 501 482 521 512 600 487 837 976 621 184 132 44 16 18 6 6 7 6 7 28 200 339 274 564 996 1322 1288 947 1503 1490 1264 1245 1365 1370 1348 519 366 298 1045 1136
16 14 6 35 100 446 386 367 509 697 1023 715 369 342 153 8 5 6 7 7 8 6 5 7 31 110 291 339 424 682 760 998 820 866 936 1103 453 702 977 872 138 143 168 552
94 49 43 245 478 542 786 390 898 1063 1028 851 682 812 305 4 0 1 3 6 8 8 9 5 6 65 240 247 311 480 609 383 275 244 241 161 168 149 324 298 221 179 127 47
139 163 157 357 463 602 374 535 1058 1049 963 846 759 587 71 2 1 0 1 0 2 4 8 8 5 82 47 32 23 47 349 370 315 382 468 480 443 123 120 119 72 4 2 2
124 137 124 430 536 575 833 952 838 1238 975 1014 365 62 5 2 1 2 1 1 0 2 12 8 5 1 3 6 11 25 139 35 13 14 5 12 6 2 2 4 4 5 2 1
164 286 679 650 557 727 698 749 1186 1007 662 485 269 124 39 5 4 1 0 1 0 1 4 11 10 8 3 5 4 7 5 5 5 5 5 4 1 6 8 8 5 5 5 5
453 271 405 614 727 669 759 946 1293 892 636 400 315 137 12 6 4 5 0 0 0 0 1 4 9 7 9 6 4 2 4 11 7 4 3 4 3 3 4 7 5 6 5 6
484 580 789 834 824 858 1124 1503 1286 831 589 352 162 71 13 8 1 0 2 4 0 0 2 3 1 0 1 3 2 7 5 6 6 4 4 4 3 4 4 3 1 5 6 4
248 538 571 773 1059 1164 1590 1495 1110 814 385 148 167 84 38 19 7 8 5 2 1 0 0 0 0 0 0 0 0 0 0 0 2 3 2 3 1 0 0 0 0 1 0 0
630 914 927 1094 1198 1609 1518 1176 937 557 326 309 248 192 95 36 13 1 2 0 0 0 0 0 0 0 0 0 0 0 0 0 0 0 0 0 0 0 0 0 0 0 0 0
854 1027 1180 1128 1402 1488 1281 965 361 344 343 336 218 92 5 0 0 0 0 0 0 0 0 0 0 0 0 0 0 0 0 0 0 0 0 0 0 0 0 0 0 0 0 0
819 893 834 1270 1634 1289 932 565 432 348 328 153 0 0 0 0 0 0 0 1 2 1 0 0 0 0 0 0 0 0 0 0 0 0 0 0 0 0 0 0 0 0 0 0
747 806 866 1373 1468 1063 703 507 301 196 179 19 0 0 0 0 0 0 0 0 4 1 1 0 0 0 0 0 0 0 0 0 0 0 0 0 0 0 0 0 0 0 0 0
552 841 772 1126 1315 897 601 300 109 135 78 12 3 0 0 0 0 0 0 0 0 0 0 0 0 0 0 0 0 0 0 0 0 0 0 0 0 0 0 0 0 0 0 0
365 401 833 1134 1308 900 456 146 98 126 110 26 9 0 0 0 0 0 0 0 1 2 0 5 18 14 4 0 0 1 1 0 0 0 0 0 0 0 0 0 0 0 0 0
195 389 547 978 1206 863 364 231 163 263 272 154 66 20 3 0 0 0 8 15 24 32 25 35 0 0 57 48 24 27 19 15 12 3 0 0 0 0 0 0 0 0 0 0
249 701 898 1148 1144 713 458 328 182 341 455 314 242 171 124 48 34 42 45 49 40 55 168 86 99 52 61 69 10 26 30 21 17 21 22 6 2 1 1 0 0 0 1 0
209 536 756 1055 1013 804 724 660 429 574 689 642 556 474 382 301 140 133 193 157 236 353 123 10 77 58 108 102 116 97 56 40 49 36 38 27 13 2 3 2 17 29 33 35
90 360 476 438 627 839 959 970 1009 850 974 935 813 766 726 658 472 366 357 380 254 0 0 2 14 6 22 0 33 45 46 53 66 62 77 74 70 76 80 60 50 79 44 26
60 171 362 453 454 177 442 711 924 1091 1175 1231 1177 1050 916 357 383 487 586 609 365 0 0 4 0 0 0 0 1 3 9 22 36 50 62 65 64 63 59 80 72 22 9 16
119 210 264 311 74 90 402 581 494 833 1011 910 724 657 200 9 40 14 13 12 25 0 0 0 0 0 0 0 0 0 0 0 0 0 1 1 9 16 21 18 11 4 0 0
185 320 401 328 332 158 249 425 343 281 395 343 207 227 18 0 4 2 7 9 0 0 0 0 0 0 0 0 0 0 0 0 1 2 5 8 13 22 27 12 0 0 0 0
321 203 168 268 38 0 11 97 31 5 7 1 0 0 0 3 16 14 30 4 2 0 0 0 0 0 0 0 0 0 0 0 1 17 21 33 10 0 0 0 0 1 0 0
239 6 33 135 95 2 0 1 10 0 0 0 0 5 7 7 10 10 7 2 0 0 0 0 0 0 0 0 0 0 0 0 0 0 7 5 5 6 16 20 30 4 1 0